<?xml version="1.0" encoding="UTF-8" standalone="no" ?>
<gpx xmlns="http://www.topografix.com/GPX/1/1" creator="www.cicloide.com" version="1.1" xmlns:xsi="http://www.w3.org/2001/XMLSchema-instance" xsi:schemaLocation="http://www.topografix.com/GPX/1/1 http://www.topografix.com/GPX/1/1/gpx.xsd">
  <trk>
    <name>www.cicloide.com 9154</name>
    <desc>www.cicloide.com 9154</desc>
    <trkseg>
      <trkpt lat="41.603569000" lon="2.540338100">
        <ele>101.60</ele>
        <time>2012-05-27T16:13:06Z</time>
      </trkpt>
      <trkpt lat="41.603569000" lon="2.540340100">
        <ele>101.60</ele>
        <time>2012-05-27T16:13:08Z</time>
      </trkpt>
      <trkpt lat="41.603569000" lon="2.540340100">
        <ele>101.60</ele>
        <time>2012-05-27T16:13:39Z</time>
      </trkpt>
      <trkpt lat="41.603550000" lon="2.540379100">
        <ele>101.60</ele>
        <time>2012-05-27T16:13:52Z</time>
      </trkpt>
      <trkpt lat="41.603413000" lon="2.540501100">
        <ele>101.60</ele>
        <time>2012-05-27T16:13:57Z</time>
      </trkpt>
      <trkpt lat="41.603165000" lon="2.540632100">
        <ele>103.00</ele>
        <time>2012-05-27T16:14:04Z</time>
      </trkpt>
      <trkpt lat="41.603085000" lon="2.540669100">
        <ele>103.00</ele>
        <time>2012-05-27T16:14:06Z</time>
      </trkpt>
      <trkpt lat="41.602966000" lon="2.540753100">
        <ele>103.00</ele>
        <time>2012-05-27T16:14:09Z</time>
      </trkpt>
      <trkpt lat="41.602760000" lon="2.540843100">
        <ele>102.50</ele>
        <time>2012-05-27T16:14:14Z</time>
      </trkpt>
      <trkpt lat="41.602634000" lon="2.540886100">
        <ele>102.00</ele>
        <time>2012-05-27T16:14:16Z</time>
      </trkpt>
      <trkpt lat="41.602489000" lon="2.540932100">
        <ele>101.60</ele>
        <time>2012-05-27T16:14:19Z</time>
      </trkpt>
      <trkpt lat="41.602032000" lon="2.541099100">
        <ele>100.10</ele>
        <time>2012-05-27T16:14:28Z</time>
      </trkpt>
      <trkpt lat="41.601757000" lon="2.541194100">
        <ele>99.20</ele>
        <time>2012-05-27T16:14:33Z</time>
      </trkpt>
      <trkpt lat="41.601528000" lon="2.541229100">
        <ele>96.30</ele>
        <time>2012-05-27T16:14:39Z</time>
      </trkpt>
      <trkpt lat="41.601414000" lon="2.541347100">
        <ele>91.90</ele>
        <time>2012-05-27T16:14:44Z</time>
      </trkpt>
      <trkpt lat="41.601353000" lon="2.541355100">
        <ele>91.90</ele>
        <time>2012-05-27T16:14:46Z</time>
      </trkpt>
      <trkpt lat="41.601166000" lon="2.541354100">
        <ele>93.40</ele>
        <time>2012-05-27T16:14:53Z</time>
      </trkpt>
      <trkpt lat="41.600933000" lon="2.541399100">
        <ele>93.40</ele>
        <time>2012-05-27T16:15:01Z</time>
      </trkpt>
      <trkpt lat="41.600704000" lon="2.541425100">
        <ele>93.90</ele>
        <time>2012-05-27T16:15:08Z</time>
      </trkpt>
      <trkpt lat="41.600452000" lon="2.541512100">
        <ele>94.30</ele>
        <time>2012-05-27T16:15:15Z</time>
      </trkpt>
      <trkpt lat="41.600277000" lon="2.541601100">
        <ele>94.30</ele>
        <time>2012-05-27T16:15:19Z</time>
      </trkpt>
      <trkpt lat="41.599857000" lon="2.541741100">
        <ele>91.50</ele>
        <time>2012-05-27T16:15:26Z</time>
      </trkpt>
      <trkpt lat="41.599651000" lon="2.541815100">
        <ele>88.10</ele>
        <time>2012-05-27T16:15:29Z</time>
      </trkpt>
      <trkpt lat="41.599606000" lon="2.541830100">
        <ele>87.10</ele>
        <time>2012-05-27T16:15:31Z</time>
      </trkpt>
      <trkpt lat="41.599464000" lon="2.541820100">
        <ele>85.20</ele>
        <time>2012-05-27T16:15:34Z</time>
      </trkpt>
      <trkpt lat="41.599258000" lon="2.541820100">
        <ele>84.70</ele>
        <time>2012-05-27T16:15:38Z</time>
      </trkpt>
      <trkpt lat="41.599052000" lon="2.541918100">
        <ele>84.70</ele>
        <time>2012-05-27T16:15:43Z</time>
      </trkpt>
      <trkpt lat="41.598869000" lon="2.541956100">
        <ele>84.70</ele>
        <time>2012-05-27T16:15:50Z</time>
      </trkpt>
      <trkpt lat="41.598621000" lon="2.541980100">
        <ele>84.70</ele>
        <time>2012-05-27T16:15:57Z</time>
      </trkpt>
      <trkpt lat="41.598385000" lon="2.542004100">
        <ele>84.20</ele>
        <time>2012-05-27T16:16:02Z</time>
      </trkpt>
      <trkpt lat="41.597980000" lon="2.542069100">
        <ele>83.80</ele>
        <time>2012-05-27T16:16:13Z</time>
      </trkpt>
      <trkpt lat="41.597595000" lon="2.542138100">
        <ele>82.80</ele>
        <time>2012-05-27T16:16:23Z</time>
      </trkpt>
      <trkpt lat="41.597263000" lon="2.542199100">
        <ele>81.40</ele>
        <time>2012-05-27T16:16:30Z</time>
      </trkpt>
      <trkpt lat="41.596951000" lon="2.542233100">
        <ele>80.90</ele>
        <time>2012-05-27T16:16:37Z</time>
      </trkpt>
      <trkpt lat="41.596500000" lon="2.542295100">
        <ele>79.40</ele>
        <time>2012-05-27T16:16:46Z</time>
      </trkpt>
      <trkpt lat="41.596252000" lon="2.542310100">
        <ele>78.50</ele>
        <time>2012-05-27T16:16:51Z</time>
      </trkpt>
      <trkpt lat="41.596054000" lon="2.542346100">
        <ele>77.00</ele>
        <time>2012-05-27T16:16:54Z</time>
      </trkpt>
      <trkpt lat="41.595860000" lon="2.542357100">
        <ele>76.60</ele>
        <time>2012-05-27T16:16:58Z</time>
      </trkpt>
      <trkpt lat="41.595612000" lon="2.542361100">
        <ele>75.10</ele>
        <time>2012-05-27T16:17:05Z</time>
      </trkpt>
      <trkpt lat="41.595592000" lon="2.542357100">
        <ele>74.60</ele>
        <time>2012-05-27T16:17:07Z</time>
      </trkpt>
      <trkpt lat="41.595600000" lon="2.542386100">
        <ele>74.20</ele>
        <time>2012-05-27T16:17:12Z</time>
      </trkpt>
      <trkpt lat="41.595718000" lon="2.542369100">
        <ele>73.70</ele>
        <time>2012-05-27T16:17:17Z</time>
      </trkpt>
      <trkpt lat="41.595974000" lon="2.542348100">
        <ele>73.70</ele>
        <time>2012-05-27T16:17:28Z</time>
      </trkpt>
      <trkpt lat="41.596241000" lon="2.542309100">
        <ele>73.70</ele>
        <time>2012-05-27T16:17:38Z</time>
      </trkpt>
      <trkpt lat="41.596458000" lon="2.542284100">
        <ele>73.70</ele>
        <time>2012-05-27T16:17:45Z</time>
      </trkpt>
      <trkpt lat="41.596680000" lon="2.542258100">
        <ele>75.10</ele>
        <time>2012-05-27T16:17:54Z</time>
      </trkpt>
      <trkpt lat="41.596920000" lon="2.542223100">
        <ele>76.10</ele>
        <time>2012-05-27T16:18:02Z</time>
      </trkpt>
      <trkpt lat="41.597153000" lon="2.542195100">
        <ele>77.00</ele>
        <time>2012-05-27T16:18:11Z</time>
      </trkpt>
      <trkpt lat="41.597374000" lon="2.542167100">
        <ele>78.00</ele>
        <time>2012-05-27T16:18:18Z</time>
      </trkpt>
      <trkpt lat="41.597630000" lon="2.542119100">
        <ele>79.00</ele>
        <time>2012-05-27T16:18:27Z</time>
      </trkpt>
      <trkpt lat="41.597847000" lon="2.542088100">
        <ele>79.40</ele>
        <time>2012-05-27T16:18:34Z</time>
      </trkpt>
      <trkpt lat="41.598167000" lon="2.542039100">
        <ele>80.40</ele>
        <time>2012-05-27T16:18:44Z</time>
      </trkpt>
      <trkpt lat="41.598564000" lon="2.541999100">
        <ele>81.80</ele>
        <time>2012-05-27T16:18:56Z</time>
      </trkpt>
      <trkpt lat="41.598816000" lon="2.541971100">
        <ele>82.80</ele>
        <time>2012-05-27T16:19:05Z</time>
      </trkpt>
      <trkpt lat="41.599014000" lon="2.541934100">
        <ele>83.30</ele>
        <time>2012-05-27T16:19:12Z</time>
      </trkpt>
      <trkpt lat="41.599094000" lon="2.541884100">
        <ele>83.80</ele>
        <time>2012-05-27T16:19:14Z</time>
      </trkpt>
      <trkpt lat="41.599308000" lon="2.541901100">
        <ele>84.20</ele>
        <time>2012-05-27T16:19:23Z</time>
      </trkpt>
      <trkpt lat="41.599339000" lon="2.541896100">
        <ele>84.20</ele>
        <time>2012-05-27T16:19:24Z</time>
      </trkpt>
      <trkpt lat="41.599415000" lon="2.541872100">
        <ele>85.20</ele>
        <time>2012-05-27T16:19:26Z</time>
      </trkpt>
      <trkpt lat="41.599533000" lon="2.541809100">
        <ele>85.20</ele>
        <time>2012-05-27T16:19:31Z</time>
      </trkpt>
      <trkpt lat="41.599655000" lon="2.541797100">
        <ele>85.20</ele>
        <time>2012-05-27T16:19:35Z</time>
      </trkpt>
      <trkpt lat="41.599960000" lon="2.541698100">
        <ele>86.70</ele>
        <time>2012-05-27T16:19:45Z</time>
      </trkpt>
      <trkpt lat="41.600220000" lon="2.541604100">
        <ele>88.10</ele>
        <time>2012-05-27T16:19:54Z</time>
      </trkpt>
      <trkpt lat="41.600376000" lon="2.541513100">
        <ele>90.00</ele>
        <time>2012-05-27T16:20:01Z</time>
      </trkpt>
      <trkpt lat="41.600525000" lon="2.541458100">
        <ele>92.90</ele>
        <time>2012-05-27T16:20:08Z</time>
      </trkpt>
      <trkpt lat="41.600697000" lon="2.541420100">
        <ele>96.30</ele>
        <time>2012-05-27T16:20:13Z</time>
      </trkpt>
      <trkpt lat="41.600941000" lon="2.541389100">
        <ele>95.80</ele>
        <time>2012-05-27T16:20:22Z</time>
      </trkpt>
      <trkpt lat="41.601215000" lon="2.541330100">
        <ele>94.80</ele>
        <time>2012-05-27T16:20:29Z</time>
      </trkpt>
      <trkpt lat="41.601402000" lon="2.541320100">
        <ele>94.80</ele>
        <time>2012-05-27T16:20:36Z</time>
      </trkpt>
      <trkpt lat="41.601559000" lon="2.541197100">
        <ele>94.80</ele>
        <time>2012-05-27T16:20:41Z</time>
      </trkpt>
      <trkpt lat="41.601612000" lon="2.541187100">
        <ele>94.80</ele>
        <time>2012-05-27T16:20:43Z</time>
      </trkpt>
      <trkpt lat="41.601875000" lon="2.541125100">
        <ele>95.80</ele>
        <time>2012-05-27T16:20:51Z</time>
      </trkpt>
      <trkpt lat="41.602203000" lon="2.541034100">
        <ele>96.30</ele>
        <time>2012-05-27T16:21:00Z</time>
      </trkpt>
      <trkpt lat="41.602474000" lon="2.540933100">
        <ele>97.70</ele>
        <time>2012-05-27T16:21:09Z</time>
      </trkpt>
      <trkpt lat="41.602699000" lon="2.540849100">
        <ele>99.20</ele>
        <time>2012-05-27T16:21:16Z</time>
      </trkpt>
      <trkpt lat="41.602959000" lon="2.540746100">
        <ele>100.10</ele>
        <time>2012-05-27T16:21:24Z</time>
      </trkpt>
      <trkpt lat="41.603184000" lon="2.540611100">
        <ele>101.10</ele>
        <time>2012-05-27T16:21:31Z</time>
      </trkpt>
      <trkpt lat="41.603485000" lon="2.540428100">
        <ele>103.00</ele>
        <time>2012-05-27T16:21:42Z</time>
      </trkpt>
      <trkpt lat="41.603752000" lon="2.540244100">
        <ele>104.00</ele>
        <time>2012-05-27T16:21:51Z</time>
      </trkpt>
      <trkpt lat="41.604015000" lon="2.540040100">
        <ele>105.40</ele>
        <time>2012-05-27T16:21:59Z</time>
      </trkpt>
      <trkpt lat="41.604198000" lon="2.539966100">
        <ele>105.90</ele>
        <time>2012-05-27T16:22:06Z</time>
      </trkpt>
      <trkpt lat="41.604374000" lon="2.539892100">
        <ele>106.40</ele>
        <time>2012-05-27T16:22:11Z</time>
      </trkpt>
      <trkpt lat="41.604588000" lon="2.539891100">
        <ele>106.80</ele>
        <time>2012-05-27T16:22:17Z</time>
      </trkpt>
      <trkpt lat="41.604778000" lon="2.539940100">
        <ele>106.80</ele>
        <time>2012-05-27T16:22:22Z</time>
      </trkpt>
      <trkpt lat="41.605186000" lon="2.540027100">
        <ele>107.30</ele>
        <time>2012-05-27T16:22:34Z</time>
      </trkpt>
      <trkpt lat="41.605549000" lon="2.540094100">
        <ele>108.80</ele>
        <time>2012-05-27T16:22:43Z</time>
      </trkpt>
      <trkpt lat="41.605839000" lon="2.540173100">
        <ele>109.20</ele>
        <time>2012-05-27T16:22:53Z</time>
      </trkpt>
      <trkpt lat="41.606091000" lon="2.540273100">
        <ele>110.20</ele>
        <time>2012-05-27T16:23:00Z</time>
      </trkpt>
      <trkpt lat="41.606339000" lon="2.540410100">
        <ele>110.70</ele>
        <time>2012-05-27T16:23:09Z</time>
      </trkpt>
      <trkpt lat="41.606598000" lon="2.540538100">
        <ele>112.10</ele>
        <time>2012-05-27T16:23:16Z</time>
      </trkpt>
      <trkpt lat="41.606876000" lon="2.540678100">
        <ele>113.10</ele>
        <time>2012-05-27T16:23:25Z</time>
      </trkpt>
      <trkpt lat="41.607090000" lon="2.540748100">
        <ele>113.60</ele>
        <time>2012-05-27T16:23:33Z</time>
      </trkpt>
      <trkpt lat="41.607353000" lon="2.540812100">
        <ele>114.10</ele>
        <time>2012-05-27T16:23:40Z</time>
      </trkpt>
      <trkpt lat="41.607609000" lon="2.540819100">
        <ele>115.50</ele>
        <time>2012-05-27T16:23:49Z</time>
      </trkpt>
      <trkpt lat="41.607841000" lon="2.540797100">
        <ele>116.00</ele>
        <time>2012-05-27T16:23:56Z</time>
      </trkpt>
      <trkpt lat="41.607990000" lon="2.540775100">
        <ele>116.50</ele>
        <time>2012-05-27T16:24:01Z</time>
      </trkpt>
      <trkpt lat="41.608219000" lon="2.540760100">
        <ele>116.90</ele>
        <time>2012-05-27T16:24:08Z</time>
      </trkpt>
      <trkpt lat="41.608429000" lon="2.540718100">
        <ele>117.90</ele>
        <time>2012-05-27T16:24:15Z</time>
      </trkpt>
      <trkpt lat="41.608677000" lon="2.540660100">
        <ele>118.90</ele>
        <time>2012-05-27T16:24:22Z</time>
      </trkpt>
      <trkpt lat="41.608917000" lon="2.540607100">
        <ele>119.80</ele>
        <time>2012-05-27T16:24:29Z</time>
      </trkpt>
      <trkpt lat="41.609177000" lon="2.540570100">
        <ele>120.30</ele>
        <time>2012-05-27T16:24:38Z</time>
      </trkpt>
      <trkpt lat="41.609447000" lon="2.540541100">
        <ele>121.70</ele>
        <time>2012-05-27T16:24:45Z</time>
      </trkpt>
      <trkpt lat="41.609737000" lon="2.540495100">
        <ele>122.70</ele>
        <time>2012-05-27T16:24:55Z</time>
      </trkpt>
      <trkpt lat="41.609959000" lon="2.540422100">
        <ele>123.70</ele>
        <time>2012-05-27T16:25:02Z</time>
      </trkpt>
      <trkpt lat="41.610149000" lon="2.540322100">
        <ele>124.60</ele>
        <time>2012-05-27T16:25:07Z</time>
      </trkpt>
      <trkpt lat="41.610371000" lon="2.540203100">
        <ele>125.60</ele>
        <time>2012-05-27T16:25:14Z</time>
      </trkpt>
      <trkpt lat="41.610592000" lon="2.540064100">
        <ele>127.00</ele>
        <time>2012-05-27T16:25:21Z</time>
      </trkpt>
      <trkpt lat="41.610806000" lon="2.539959100">
        <ele>127.50</ele>
        <time>2012-05-27T16:25:28Z</time>
      </trkpt>
      <trkpt lat="41.610954000" lon="2.539905100">
        <ele>128.00</ele>
        <time>2012-05-27T16:25:34Z</time>
      </trkpt>
      <trkpt lat="41.611027000" lon="2.539837100">
        <ele>128.50</ele>
        <time>2012-05-27T16:25:37Z</time>
      </trkpt>
      <trkpt lat="41.611111000" lon="2.539796100">
        <ele>128.90</ele>
        <time>2012-05-27T16:25:42Z</time>
      </trkpt>
      <trkpt lat="41.611210000" lon="2.539766100">
        <ele>129.40</ele>
        <time>2012-05-27T16:25:49Z</time>
      </trkpt>
      <trkpt lat="41.611229000" lon="2.539753100">
        <ele>129.40</ele>
        <time>2012-05-27T16:25:49Z</time>
      </trkpt>
      <trkpt lat="41.611443000" lon="2.539571100">
        <ele>130.40</ele>
        <time>2012-05-27T16:25:58Z</time>
      </trkpt>
      <trkpt lat="41.611679000" lon="2.539307100">
        <ele>131.40</ele>
        <time>2012-05-27T16:26:07Z</time>
      </trkpt>
      <trkpt lat="41.611870000" lon="2.539075100">
        <ele>132.80</ele>
        <time>2012-05-27T16:26:14Z</time>
      </trkpt>
      <trkpt lat="41.612026000" lon="2.538862100">
        <ele>133.30</ele>
        <time>2012-05-27T16:26:22Z</time>
      </trkpt>
      <trkpt lat="41.612183000" lon="2.538564100">
        <ele>134.70</ele>
        <time>2012-05-27T16:26:29Z</time>
      </trkpt>
      <trkpt lat="41.612381000" lon="2.538288100">
        <ele>135.70</ele>
        <time>2012-05-27T16:26:38Z</time>
      </trkpt>
      <trkpt lat="41.612545000" lon="2.538075100">
        <ele>136.60</ele>
        <time>2012-05-27T16:26:45Z</time>
      </trkpt>
      <trkpt lat="41.612736000" lon="2.537838100">
        <ele>137.60</ele>
        <time>2012-05-27T16:26:52Z</time>
      </trkpt>
      <trkpt lat="41.612961000" lon="2.537596100">
        <ele>139.10</ele>
        <time>2012-05-27T16:27:01Z</time>
      </trkpt>
      <trkpt lat="41.613194000" lon="2.537350100">
        <ele>139.50</ele>
        <time>2012-05-27T16:27:11Z</time>
      </trkpt>
      <trkpt lat="41.613403000" lon="2.537085100">
        <ele>141.00</ele>
        <time>2012-05-27T16:27:18Z</time>
      </trkpt>
      <trkpt lat="41.613548000" lon="2.536848100">
        <ele>141.40</ele>
        <time>2012-05-27T16:27:25Z</time>
      </trkpt>
      <trkpt lat="41.613632000" lon="2.536500100">
        <ele>142.90</ele>
        <time>2012-05-27T16:27:34Z</time>
      </trkpt>
      <trkpt lat="41.613735000" lon="2.536178100">
        <ele>143.90</ele>
        <time>2012-05-27T16:27:42Z</time>
      </trkpt>
      <trkpt lat="41.613865000" lon="2.535867100">
        <ele>145.30</ele>
        <time>2012-05-27T16:27:51Z</time>
      </trkpt>
      <trkpt lat="41.614025000" lon="2.535431100">
        <ele>146.70</ele>
        <time>2012-05-27T16:28:02Z</time>
      </trkpt>
      <trkpt lat="41.614140000" lon="2.535035100">
        <ele>147.70</ele>
        <time>2012-05-27T16:28:12Z</time>
      </trkpt>
      <trkpt lat="41.614246000" lon="2.534730100">
        <ele>149.10</ele>
        <time>2012-05-27T16:28:19Z</time>
      </trkpt>
      <trkpt lat="41.614330000" lon="2.534475100">
        <ele>150.10</ele>
        <time>2012-05-27T16:28:26Z</time>
      </trkpt>
      <trkpt lat="41.614433000" lon="2.534133100">
        <ele>151.50</ele>
        <time>2012-05-27T16:28:35Z</time>
      </trkpt>
      <trkpt lat="41.614571000" lon="2.533679100">
        <ele>153.00</ele>
        <time>2012-05-27T16:28:47Z</time>
      </trkpt>
      <trkpt lat="41.614666000" lon="2.533339100">
        <ele>154.40</ele>
        <time>2012-05-27T16:28:54Z</time>
      </trkpt>
      <trkpt lat="41.614750000" lon="2.533099100">
        <ele>154.90</ele>
        <time>2012-05-27T16:29:01Z</time>
      </trkpt>
      <trkpt lat="41.614861000" lon="2.532770100">
        <ele>155.90</ele>
        <time>2012-05-27T16:29:08Z</time>
      </trkpt>
      <trkpt lat="41.614975000" lon="2.532354100">
        <ele>157.30</ele>
        <time>2012-05-27T16:29:18Z</time>
      </trkpt>
      <trkpt lat="41.615047000" lon="2.531975100">
        <ele>158.30</ele>
        <time>2012-05-27T16:29:27Z</time>
      </trkpt>
      <trkpt lat="41.615078000" lon="2.531517100">
        <ele>159.20</ele>
        <time>2012-05-27T16:29:37Z</time>
      </trkpt>
      <trkpt lat="41.615116000" lon="2.531033100">
        <ele>161.20</ele>
        <time>2012-05-27T16:29:48Z</time>
      </trkpt>
      <trkpt lat="41.615150000" lon="2.530617100">
        <ele>162.10</ele>
        <time>2012-05-27T16:29:58Z</time>
      </trkpt>
      <trkpt lat="41.615173000" lon="2.530228100">
        <ele>163.10</ele>
        <time>2012-05-27T16:30:07Z</time>
      </trkpt>
      <trkpt lat="41.615177000" lon="2.529851100">
        <ele>164.50</ele>
        <time>2012-05-27T16:30:16Z</time>
      </trkpt>
      <trkpt lat="41.615177000" lon="2.529496100">
        <ele>165.50</ele>
        <time>2012-05-27T16:30:23Z</time>
      </trkpt>
      <trkpt lat="41.615196000" lon="2.529017100">
        <ele>167.40</ele>
        <time>2012-05-27T16:30:35Z</time>
      </trkpt>
      <trkpt lat="41.615253000" lon="2.528660100">
        <ele>168.40</ele>
        <time>2012-05-27T16:30:42Z</time>
      </trkpt>
      <trkpt lat="41.615337000" lon="2.528254100">
        <ele>169.30</ele>
        <time>2012-05-27T16:30:52Z</time>
      </trkpt>
      <trkpt lat="41.615414000" lon="2.527858100">
        <ele>170.80</ele>
        <time>2012-05-27T16:31:01Z</time>
      </trkpt>
      <trkpt lat="41.615482000" lon="2.527489100">
        <ele>171.20</ele>
        <time>2012-05-27T16:31:10Z</time>
      </trkpt>
      <trkpt lat="41.615555000" lon="2.527112100">
        <ele>172.70</ele>
        <time>2012-05-27T16:31:20Z</time>
      </trkpt>
      <trkpt lat="41.615582000" lon="2.526733100">
        <ele>174.60</ele>
        <time>2012-05-27T16:31:29Z</time>
      </trkpt>
      <trkpt lat="41.615551000" lon="2.526409100">
        <ele>175.60</ele>
        <time>2012-05-27T16:31:36Z</time>
      </trkpt>
      <trkpt lat="41.615524000" lon="2.526093100">
        <ele>176.50</ele>
        <time>2012-05-27T16:31:45Z</time>
      </trkpt>
      <trkpt lat="41.615513000" lon="2.525781100">
        <ele>177.50</ele>
        <time>2012-05-27T16:31:53Z</time>
      </trkpt>
      <trkpt lat="41.615505000" lon="2.525517100">
        <ele>178.50</ele>
        <time>2012-05-27T16:32:00Z</time>
      </trkpt>
      <trkpt lat="41.615517000" lon="2.525189100">
        <ele>178.90</ele>
        <time>2012-05-27T16:32:07Z</time>
      </trkpt>
      <trkpt lat="41.615536000" lon="2.524867100">
        <ele>180.40</ele>
        <time>2012-05-27T16:32:16Z</time>
      </trkpt>
      <trkpt lat="41.615562000" lon="2.524544100">
        <ele>181.40</ele>
        <time>2012-05-27T16:32:23Z</time>
      </trkpt>
      <trkpt lat="41.615597000" lon="2.524186100">
        <ele>182.80</ele>
        <time>2012-05-27T16:32:33Z</time>
      </trkpt>
      <trkpt lat="41.615623000" lon="2.523842100">
        <ele>184.70</ele>
        <time>2012-05-27T16:32:42Z</time>
      </trkpt>
      <trkpt lat="41.615635000" lon="2.523616100">
        <ele>185.70</ele>
        <time>2012-05-27T16:32:49Z</time>
      </trkpt>
      <trkpt lat="41.615673000" lon="2.523237100">
        <ele>187.10</ele>
        <time>2012-05-27T16:32:58Z</time>
      </trkpt>
      <trkpt lat="41.615723000" lon="2.522922100">
        <ele>188.10</ele>
        <time>2012-05-27T16:33:05Z</time>
      </trkpt>
      <trkpt lat="41.615757000" lon="2.522558100">
        <ele>189.00</ele>
        <time>2012-05-27T16:33:15Z</time>
      </trkpt>
      <trkpt lat="41.615799000" lon="2.522257100">
        <ele>190.50</ele>
        <time>2012-05-27T16:33:22Z</time>
      </trkpt>
      <trkpt lat="41.615845000" lon="2.521946100">
        <ele>191.90</ele>
        <time>2012-05-27T16:33:29Z</time>
      </trkpt>
      <trkpt lat="41.615887000" lon="2.521628100">
        <ele>192.40</ele>
        <time>2012-05-27T16:33:38Z</time>
      </trkpt>
      <trkpt lat="41.615936000" lon="2.521336100">
        <ele>193.80</ele>
        <time>2012-05-27T16:33:45Z</time>
      </trkpt>
      <trkpt lat="41.615974000" lon="2.521078100">
        <ele>194.30</ele>
        <time>2012-05-27T16:33:50Z</time>
      </trkpt>
      <trkpt lat="41.616035000" lon="2.520795100">
        <ele>194.80</ele>
        <time>2012-05-27T16:33:57Z</time>
      </trkpt>
      <trkpt lat="41.616119000" lon="2.520495100">
        <ele>195.30</ele>
        <time>2012-05-27T16:34:04Z</time>
      </trkpt>
      <trkpt lat="41.616219000" lon="2.520206100">
        <ele>196.20</ele>
        <time>2012-05-27T16:34:13Z</time>
      </trkpt>
      <trkpt lat="41.616360000" lon="2.520000100">
        <ele>196.70</ele>
        <time>2012-05-27T16:34:20Z</time>
      </trkpt>
      <trkpt lat="41.616417000" lon="2.519840100">
        <ele>196.70</ele>
        <time>2012-05-27T16:34:25Z</time>
      </trkpt>
      <trkpt lat="41.616478000" lon="2.519623100">
        <ele>196.70</ele>
        <time>2012-05-27T16:34:32Z</time>
      </trkpt>
      <trkpt lat="41.616550000" lon="2.519299100">
        <ele>197.20</ele>
        <time>2012-05-27T16:34:39Z</time>
      </trkpt>
      <trkpt lat="41.616596000" lon="2.519080100">
        <ele>197.70</ele>
        <time>2012-05-27T16:34:46Z</time>
      </trkpt>
      <trkpt lat="41.616634000" lon="2.518896100">
        <ele>198.60</ele>
        <time>2012-05-27T16:34:51Z</time>
      </trkpt>
      <trkpt lat="41.616657000" lon="2.518607100">
        <ele>199.60</ele>
        <time>2012-05-27T16:34:58Z</time>
      </trkpt>
      <trkpt lat="41.616692000" lon="2.518333100">
        <ele>200.60</ele>
        <time>2012-05-27T16:35:05Z</time>
      </trkpt>
      <trkpt lat="41.616703000" lon="2.518052100">
        <ele>201.10</ele>
        <time>2012-05-27T16:35:12Z</time>
      </trkpt>
      <trkpt lat="41.616699000" lon="2.517787100">
        <ele>202.00</ele>
        <time>2012-05-27T16:35:19Z</time>
      </trkpt>
      <trkpt lat="41.616718000" lon="2.517507100">
        <ele>203.00</ele>
        <time>2012-05-27T16:35:26Z</time>
      </trkpt>
      <trkpt lat="41.616741000" lon="2.517227100">
        <ele>203.90</ele>
        <time>2012-05-27T16:35:33Z</time>
      </trkpt>
      <trkpt lat="41.616760000" lon="2.516985100">
        <ele>204.40</ele>
        <time>2012-05-27T16:35:38Z</time>
      </trkpt>
      <trkpt lat="41.616783000" lon="2.516675100">
        <ele>205.90</ele>
        <time>2012-05-27T16:35:45Z</time>
      </trkpt>
      <trkpt lat="41.616810000" lon="2.516383100">
        <ele>206.80</ele>
        <time>2012-05-27T16:35:52Z</time>
      </trkpt>
      <trkpt lat="41.616844000" lon="2.515987100">
        <ele>207.80</ele>
        <time>2012-05-27T16:36:01Z</time>
      </trkpt>
      <trkpt lat="41.616863000" lon="2.515573100">
        <ele>209.20</ele>
        <time>2012-05-27T16:36:11Z</time>
      </trkpt>
      <trkpt lat="41.616879000" lon="2.515155100">
        <ele>210.70</ele>
        <time>2012-05-27T16:36:22Z</time>
      </trkpt>
      <trkpt lat="41.616875000" lon="2.514797100">
        <ele>211.60</ele>
        <time>2012-05-27T16:36:30Z</time>
      </trkpt>
      <trkpt lat="41.616886000" lon="2.514467100">
        <ele>213.10</ele>
        <time>2012-05-27T16:36:39Z</time>
      </trkpt>
      <trkpt lat="41.616886000" lon="2.514108100">
        <ele>214.50</ele>
        <time>2012-05-27T16:36:48Z</time>
      </trkpt>
      <trkpt lat="41.616886000" lon="2.513739100">
        <ele>215.50</ele>
        <time>2012-05-27T16:36:56Z</time>
      </trkpt>
      <trkpt lat="41.616898000" lon="2.513361100">
        <ele>216.40</ele>
        <time>2012-05-27T16:37:05Z</time>
      </trkpt>
      <trkpt lat="41.616886000" lon="2.512946100">
        <ele>217.40</ele>
        <time>2012-05-27T16:37:16Z</time>
      </trkpt>
      <trkpt lat="41.616821000" lon="2.512541100">
        <ele>218.80</ele>
        <time>2012-05-27T16:37:26Z</time>
      </trkpt>
      <trkpt lat="41.616711000" lon="2.512258100">
        <ele>220.30</ele>
        <time>2012-05-27T16:37:33Z</time>
      </trkpt>
      <trkpt lat="41.616589000" lon="2.512042100">
        <ele>221.20</ele>
        <time>2012-05-27T16:37:42Z</time>
      </trkpt>
      <trkpt lat="41.616432000" lon="2.511770100">
        <ele>222.70</ele>
        <time>2012-05-27T16:37:50Z</time>
      </trkpt>
      <trkpt lat="41.616371000" lon="2.511520100">
        <ele>223.60</ele>
        <time>2012-05-27T16:37:57Z</time>
      </trkpt>
      <trkpt lat="41.616371000" lon="2.511479100">
        <ele>223.60</ele>
        <time>2012-05-27T16:37:59Z</time>
      </trkpt>
      <trkpt lat="41.616402000" lon="2.511176100">
        <ele>224.60</ele>
        <time>2012-05-27T16:38:06Z</time>
      </trkpt>
      <trkpt lat="41.616467000" lon="2.510872100">
        <ele>225.10</ele>
        <time>2012-05-27T16:38:15Z</time>
      </trkpt>
      <trkpt lat="41.616497000" lon="2.510755100">
        <ele>226.50</ele>
        <time>2012-05-27T16:38:20Z</time>
      </trkpt>
      <trkpt lat="41.616627000" lon="2.510573100">
        <ele>227.50</ele>
        <time>2012-05-27T16:38:29Z</time>
      </trkpt>
      <trkpt lat="41.616722000" lon="2.510419100">
        <ele>228.90</ele>
        <time>2012-05-27T16:38:36Z</time>
      </trkpt>
      <trkpt lat="41.616764000" lon="2.510284100">
        <ele>232.30</ele>
        <time>2012-05-27T16:38:41Z</time>
      </trkpt>
      <trkpt lat="41.616783000" lon="2.510161100">
        <ele>235.70</ele>
        <time>2012-05-27T16:38:46Z</time>
      </trkpt>
      <trkpt lat="41.616779000" lon="2.509952100">
        <ele>235.70</ele>
        <time>2012-05-27T16:38:55Z</time>
      </trkpt>
      <trkpt lat="41.616829000" lon="2.509742100">
        <ele>236.60</ele>
        <time>2012-05-27T16:39:05Z</time>
      </trkpt>
      <trkpt lat="41.616917000" lon="2.509554100">
        <ele>237.10</ele>
        <time>2012-05-27T16:39:12Z</time>
      </trkpt>
      <trkpt lat="41.616924000" lon="2.509528100">
        <ele>237.10</ele>
        <time>2012-05-27T16:39:14Z</time>
      </trkpt>
      <trkpt lat="41.616871000" lon="2.509500100">
        <ele>237.10</ele>
        <time>2012-05-27T16:39:19Z</time>
      </trkpt>
      <trkpt lat="41.616859000" lon="2.509513100">
        <ele>237.60</ele>
        <time>2012-05-27T16:39:21Z</time>
      </trkpt>
      <trkpt lat="41.616787000" lon="2.509618100">
        <ele>238.10</ele>
        <time>2012-05-27T16:39:26Z</time>
      </trkpt>
      <trkpt lat="41.616665000" lon="2.509827100">
        <ele>239.00</ele>
        <time>2012-05-27T16:39:37Z</time>
      </trkpt>
      <trkpt lat="41.616619000" lon="2.509849100">
        <ele>239.50</ele>
        <time>2012-05-27T16:39:40Z</time>
      </trkpt>
      <trkpt lat="41.616547000" lon="2.509818100">
        <ele>240.00</ele>
        <time>2012-05-27T16:39:44Z</time>
      </trkpt>
      <trkpt lat="41.616425000" lon="2.509748100">
        <ele>241.40</ele>
        <time>2012-05-27T16:39:52Z</time>
      </trkpt>
      <trkpt lat="41.616409000" lon="2.509732100">
        <ele>241.40</ele>
        <time>2012-05-27T16:39:52Z</time>
      </trkpt>
      <trkpt lat="41.616364000" lon="2.509545100">
        <ele>243.40</ele>
        <time>2012-05-27T16:40:01Z</time>
      </trkpt>
      <trkpt lat="41.616348000" lon="2.509363100">
        <ele>245.80</ele>
        <time>2012-05-27T16:40:10Z</time>
      </trkpt>
      <trkpt lat="41.616344000" lon="2.509305100">
        <ele>248.20</ele>
        <time>2012-05-27T16:40:13Z</time>
      </trkpt>
      <trkpt lat="41.616337000" lon="2.509224100">
        <ele>251.00</ele>
        <time>2012-05-27T16:40:17Z</time>
      </trkpt>
      <trkpt lat="41.616295000" lon="2.509024100">
        <ele>251.50</ele>
        <time>2012-05-27T16:40:27Z</time>
      </trkpt>
      <trkpt lat="41.616268000" lon="2.508842100">
        <ele>252.50</ele>
        <time>2012-05-27T16:40:36Z</time>
      </trkpt>
      <trkpt lat="41.616253000" lon="2.508760100">
        <ele>253.40</ele>
        <time>2012-05-27T16:40:41Z</time>
      </trkpt>
      <trkpt lat="41.616219000" lon="2.508588100">
        <ele>255.40</ele>
        <time>2012-05-27T16:40:50Z</time>
      </trkpt>
      <trkpt lat="41.616177000" lon="2.508393100">
        <ele>257.30</ele>
        <time>2012-05-27T16:41:00Z</time>
      </trkpt>
      <trkpt lat="41.616119000" lon="2.508217100">
        <ele>258.70</ele>
        <time>2012-05-27T16:41:09Z</time>
      </trkpt>
      <trkpt lat="41.616081000" lon="2.508080100">
        <ele>260.20</ele>
        <time>2012-05-27T16:41:16Z</time>
      </trkpt>
      <trkpt lat="41.616028000" lon="2.507888100">
        <ele>262.10</ele>
        <time>2012-05-27T16:41:25Z</time>
      </trkpt>
      <trkpt lat="41.615974000" lon="2.507724100">
        <ele>263.10</ele>
        <time>2012-05-27T16:41:32Z</time>
      </trkpt>
      <trkpt lat="41.615929000" lon="2.507581100">
        <ele>264.50</ele>
        <time>2012-05-27T16:41:40Z</time>
      </trkpt>
      <trkpt lat="41.615898000" lon="2.507501100">
        <ele>267.90</ele>
        <time>2012-05-27T16:41:44Z</time>
      </trkpt>
      <trkpt lat="41.615883000" lon="2.507444100">
        <ele>269.80</ele>
        <time>2012-05-27T16:41:47Z</time>
      </trkpt>
      <trkpt lat="41.615845000" lon="2.507274100">
        <ele>269.80</ele>
        <time>2012-05-27T16:41:56Z</time>
      </trkpt>
      <trkpt lat="41.615795000" lon="2.507125100">
        <ele>269.80</ele>
        <time>2012-05-27T16:42:05Z</time>
      </trkpt>
      <trkpt lat="41.615757000" lon="2.506968100">
        <ele>271.20</ele>
        <time>2012-05-27T16:42:13Z</time>
      </trkpt>
      <trkpt lat="41.615753000" lon="2.506820100">
        <ele>272.70</ele>
        <time>2012-05-27T16:42:22Z</time>
      </trkpt>
      <trkpt lat="41.615757000" lon="2.506744100">
        <ele>273.10</ele>
        <time>2012-05-27T16:42:26Z</time>
      </trkpt>
      <trkpt lat="41.615784000" lon="2.506577100">
        <ele>275.60</ele>
        <time>2012-05-27T16:42:34Z</time>
      </trkpt>
      <trkpt lat="41.615788000" lon="2.506558100">
        <ele>275.60</ele>
        <time>2012-05-27T16:42:34Z</time>
      </trkpt>
      <trkpt lat="41.615799000" lon="2.506523100">
        <ele>276.50</ele>
        <time>2012-05-27T16:42:36Z</time>
      </trkpt>
      <trkpt lat="41.615818000" lon="2.506422100">
        <ele>278.90</ele>
        <time>2012-05-27T16:42:43Z</time>
      </trkpt>
      <trkpt lat="41.615837000" lon="2.506340100">
        <ele>282.80</ele>
        <time>2012-05-27T16:42:48Z</time>
      </trkpt>
      <trkpt lat="41.615879000" lon="2.506185100">
        <ele>283.70</ele>
        <time>2012-05-27T16:42:57Z</time>
      </trkpt>
      <trkpt lat="41.615921000" lon="2.506040100">
        <ele>283.70</ele>
        <time>2012-05-27T16:43:04Z</time>
      </trkpt>
      <trkpt lat="41.615963000" lon="2.505876100">
        <ele>285.20</ele>
        <time>2012-05-27T16:43:14Z</time>
      </trkpt>
      <trkpt lat="41.616009000" lon="2.505754100">
        <ele>286.10</ele>
        <time>2012-05-27T16:43:23Z</time>
      </trkpt>
      <trkpt lat="41.616058000" lon="2.505626100">
        <ele>288.00</ele>
        <time>2012-05-27T16:43:32Z</time>
      </trkpt>
      <trkpt lat="41.616112000" lon="2.505476100">
        <ele>290.00</ele>
        <time>2012-05-27T16:43:41Z</time>
      </trkpt>
      <trkpt lat="41.616154000" lon="2.505304100">
        <ele>291.90</ele>
        <time>2012-05-27T16:43:51Z</time>
      </trkpt>
      <trkpt lat="41.616180000" lon="2.505152100">
        <ele>293.80</ele>
        <time>2012-05-27T16:44:00Z</time>
      </trkpt>
      <trkpt lat="41.616177000" lon="2.505105100">
        <ele>295.70</ele>
        <time>2012-05-27T16:44:03Z</time>
      </trkpt>
      <trkpt lat="41.616169000" lon="2.505027100">
        <ele>298.60</ele>
        <time>2012-05-27T16:44:07Z</time>
      </trkpt>
      <trkpt lat="41.616127000" lon="2.504880100">
        <ele>299.60</ele>
        <time>2012-05-27T16:44:15Z</time>
      </trkpt>
      <trkpt lat="41.616035000" lon="2.504841100">
        <ele>299.60</ele>
        <time>2012-05-27T16:44:24Z</time>
      </trkpt>
      <trkpt lat="41.615917000" lon="2.504838100">
        <ele>299.60</ele>
        <time>2012-05-27T16:44:31Z</time>
      </trkpt>
      <trkpt lat="41.615807000" lon="2.504824100">
        <ele>300.10</ele>
        <time>2012-05-27T16:44:38Z</time>
      </trkpt>
      <trkpt lat="41.615711000" lon="2.504848100">
        <ele>300.50</ele>
        <time>2012-05-27T16:44:45Z</time>
      </trkpt>
      <trkpt lat="41.615570000" lon="2.504851100">
        <ele>302.00</ele>
        <time>2012-05-27T16:44:55Z</time>
      </trkpt>
      <trkpt lat="41.615463000" lon="2.504797100">
        <ele>303.40</ele>
        <time>2012-05-27T16:45:04Z</time>
      </trkpt>
      <trkpt lat="41.615414000" lon="2.504636100">
        <ele>304.40</ele>
        <time>2012-05-27T16:45:11Z</time>
      </trkpt>
      <trkpt lat="41.615402000" lon="2.504479100">
        <ele>306.30</ele>
        <time>2012-05-27T16:45:20Z</time>
      </trkpt>
      <trkpt lat="41.615398000" lon="2.504303100">
        <ele>308.70</ele>
        <time>2012-05-27T16:45:30Z</time>
      </trkpt>
      <trkpt lat="41.615406000" lon="2.504208100">
        <ele>312.10</ele>
        <time>2012-05-27T16:45:34Z</time>
      </trkpt>
      <trkpt lat="41.615414000" lon="2.504107100">
        <ele>315.00</ele>
        <time>2012-05-27T16:45:41Z</time>
      </trkpt>
      <trkpt lat="41.615425000" lon="2.503958100">
        <ele>315.00</ele>
        <time>2012-05-27T16:45:49Z</time>
      </trkpt>
      <trkpt lat="41.615433000" lon="2.503872100">
        <ele>315.50</ele>
        <time>2012-05-27T16:45:55Z</time>
      </trkpt>
      <trkpt lat="41.615425000" lon="2.503732100">
        <ele>316.90</ele>
        <time>2012-05-27T16:46:02Z</time>
      </trkpt>
      <trkpt lat="41.615406000" lon="2.503515100">
        <ele>319.30</ele>
        <time>2012-05-27T16:46:14Z</time>
      </trkpt>
      <trkpt lat="41.615395000" lon="2.503342100">
        <ele>320.30</ele>
        <time>2012-05-27T16:46:23Z</time>
      </trkpt>
      <trkpt lat="41.615383000" lon="2.503227100">
        <ele>320.70</ele>
        <time>2012-05-27T16:46:26Z</time>
      </trkpt>
      <trkpt lat="41.615349000" lon="2.503099100">
        <ele>320.70</ele>
        <time>2012-05-27T16:46:31Z</time>
      </trkpt>
      <trkpt lat="41.615250000" lon="2.502890100">
        <ele>320.70</ele>
        <time>2012-05-27T16:46:42Z</time>
      </trkpt>
      <trkpt lat="41.615185000" lon="2.502695100">
        <ele>321.20</ele>
        <time>2012-05-27T16:46:49Z</time>
      </trkpt>
      <trkpt lat="41.615154000" lon="2.502505100">
        <ele>321.20</ele>
        <time>2012-05-27T16:46:57Z</time>
      </trkpt>
      <trkpt lat="41.615105000" lon="2.502242100">
        <ele>321.20</ele>
        <time>2012-05-27T16:47:08Z</time>
      </trkpt>
      <trkpt lat="41.615051000" lon="2.502068100">
        <ele>322.70</ele>
        <time>2012-05-27T16:47:15Z</time>
      </trkpt>
      <trkpt lat="41.615025000" lon="2.502007100">
        <ele>323.10</ele>
        <time>2012-05-27T16:47:18Z</time>
      </trkpt>
      <trkpt lat="41.614994000" lon="2.501852100">
        <ele>323.60</ele>
        <time>2012-05-27T16:47:25Z</time>
      </trkpt>
      <trkpt lat="41.614964000" lon="2.501613100">
        <ele>324.60</ele>
        <time>2012-05-27T16:47:34Z</time>
      </trkpt>
      <trkpt lat="41.614971000" lon="2.501516100">
        <ele>324.60</ele>
        <time>2012-05-27T16:47:37Z</time>
      </trkpt>
      <trkpt lat="41.614880000" lon="2.501419100">
        <ele>325.10</ele>
        <time>2012-05-27T16:47:43Z</time>
      </trkpt>
      <trkpt lat="41.614765000" lon="2.501424100">
        <ele>325.50</ele>
        <time>2012-05-27T16:47:48Z</time>
      </trkpt>
      <trkpt lat="41.614723000" lon="2.501397100">
        <ele>325.50</ele>
        <time>2012-05-27T16:47:51Z</time>
      </trkpt>
      <trkpt lat="41.614616000" lon="2.501318100">
        <ele>326.00</ele>
        <time>2012-05-27T16:47:58Z</time>
      </trkpt>
      <trkpt lat="41.614521000" lon="2.501241100">
        <ele>326.50</ele>
        <time>2012-05-27T16:48:05Z</time>
      </trkpt>
      <trkpt lat="41.614418000" lon="2.501144100">
        <ele>327.50</ele>
        <time>2012-05-27T16:48:14Z</time>
      </trkpt>
      <trkpt lat="41.614323000" lon="2.500967100">
        <ele>329.40</ele>
        <time>2012-05-27T16:48:23Z</time>
      </trkpt>
      <trkpt lat="41.614269000" lon="2.500766100">
        <ele>331.30</ele>
        <time>2012-05-27T16:48:33Z</time>
      </trkpt>
      <trkpt lat="41.614201000" lon="2.500601100">
        <ele>332.80</ele>
        <time>2012-05-27T16:48:42Z</time>
      </trkpt>
      <trkpt lat="41.614132000" lon="2.500481100">
        <ele>336.10</ele>
        <time>2012-05-27T16:48:49Z</time>
      </trkpt>
      <trkpt lat="41.614090000" lon="2.500422100">
        <ele>339.50</ele>
        <time>2012-05-27T16:48:54Z</time>
      </trkpt>
      <trkpt lat="41.614029000" lon="2.500308100">
        <ele>341.40</ele>
        <time>2012-05-27T16:49:01Z</time>
      </trkpt>
      <trkpt lat="41.613960000" lon="2.500176100">
        <ele>341.90</ele>
        <time>2012-05-27T16:49:10Z</time>
      </trkpt>
      <trkpt lat="41.613884000" lon="2.500007100">
        <ele>343.80</ele>
        <time>2012-05-27T16:49:20Z</time>
      </trkpt>
      <trkpt lat="41.613953000" lon="2.500002100">
        <ele>345.20</ele>
        <time>2012-05-27T16:49:27Z</time>
      </trkpt>
      <trkpt lat="41.613976000" lon="2.500041100">
        <ele>345.70</ele>
        <time>2012-05-27T16:49:29Z</time>
      </trkpt>
      <trkpt lat="41.614025000" lon="2.500105100">
        <ele>349.60</ele>
        <time>2012-05-27T16:49:36Z</time>
      </trkpt>
      <trkpt lat="41.614033000" lon="2.500120100">
        <ele>350.50</ele>
        <time>2012-05-27T16:49:36Z</time>
      </trkpt>
      <trkpt lat="41.614120000" lon="2.500196100">
        <ele>352.00</ele>
        <time>2012-05-27T16:49:46Z</time>
      </trkpt>
      <trkpt lat="41.614174000" lon="2.500213100">
        <ele>352.00</ele>
        <time>2012-05-27T16:49:50Z</time>
      </trkpt>
      <trkpt lat="41.614246000" lon="2.500232100">
        <ele>352.00</ele>
        <time>2012-05-27T16:49:57Z</time>
      </trkpt>
      <trkpt lat="41.614346000" lon="2.500282100">
        <ele>352.90</ele>
        <time>2012-05-27T16:50:06Z</time>
      </trkpt>
      <trkpt lat="41.614452000" lon="2.500360100">
        <ele>354.90</ele>
        <time>2012-05-27T16:50:14Z</time>
      </trkpt>
      <trkpt lat="41.614548000" lon="2.500457100">
        <ele>356.80</ele>
        <time>2012-05-27T16:50:23Z</time>
      </trkpt>
      <trkpt lat="41.614635000" lon="2.500531100">
        <ele>358.20</ele>
        <time>2012-05-27T16:50:32Z</time>
      </trkpt>
      <trkpt lat="41.614658000" lon="2.500550100">
        <ele>358.20</ele>
        <time>2012-05-27T16:50:33Z</time>
      </trkpt>
      <trkpt lat="41.614731000" lon="2.500554100">
        <ele>359.70</ele>
        <time>2012-05-27T16:50:40Z</time>
      </trkpt>
      <trkpt lat="41.614845000" lon="2.500492100">
        <ele>361.10</ele>
        <time>2012-05-27T16:50:49Z</time>
      </trkpt>
      <trkpt lat="41.614952000" lon="2.500460100">
        <ele>361.60</ele>
        <time>2012-05-27T16:50:56Z</time>
      </trkpt>
      <trkpt lat="41.615089000" lon="2.500554100">
        <ele>362.10</ele>
        <time>2012-05-27T16:51:03Z</time>
      </trkpt>
      <trkpt lat="41.615231000" lon="2.500564100">
        <ele>362.50</ele>
        <time>2012-05-27T16:51:12Z</time>
      </trkpt>
      <trkpt lat="41.615280000" lon="2.500518100">
        <ele>362.50</ele>
        <time>2012-05-27T16:51:17Z</time>
      </trkpt>
      <trkpt lat="41.615410000" lon="2.500420100">
        <ele>363.50</ele>
        <time>2012-05-27T16:51:26Z</time>
      </trkpt>
      <trkpt lat="41.615520000" lon="2.500408100">
        <ele>364.50</ele>
        <time>2012-05-27T16:51:33Z</time>
      </trkpt>
      <trkpt lat="41.615643000" lon="2.500434100">
        <ele>365.40</ele>
        <time>2012-05-27T16:51:41Z</time>
      </trkpt>
      <trkpt lat="41.615719000" lon="2.500431100">
        <ele>365.90</ele>
        <time>2012-05-27T16:51:45Z</time>
      </trkpt>
      <trkpt lat="41.615776000" lon="2.500330100">
        <ele>367.80</ele>
        <time>2012-05-27T16:51:52Z</time>
      </trkpt>
      <trkpt lat="41.615726000" lon="2.500243100">
        <ele>368.80</ele>
        <time>2012-05-27T16:51:59Z</time>
      </trkpt>
      <trkpt lat="41.615650000" lon="2.500233100">
        <ele>372.60</ele>
        <time>2012-05-27T16:52:06Z</time>
      </trkpt>
      <trkpt lat="41.615585000" lon="2.500246100">
        <ele>376.00</ele>
        <time>2012-05-27T16:52:11Z</time>
      </trkpt>
      <trkpt lat="41.615471000" lon="2.500245100">
        <ele>376.50</ele>
        <time>2012-05-27T16:52:20Z</time>
      </trkpt>
      <trkpt lat="41.615379000" lon="2.500255100">
        <ele>376.50</ele>
        <time>2012-05-27T16:52:28Z</time>
      </trkpt>
      <trkpt lat="41.615280000" lon="2.500219100">
        <ele>377.90</ele>
        <time>2012-05-27T16:52:35Z</time>
      </trkpt>
      <trkpt lat="41.615204000" lon="2.500081100">
        <ele>378.90</ele>
        <time>2012-05-27T16:52:44Z</time>
      </trkpt>
      <trkpt lat="41.615131000" lon="2.499969100">
        <ele>379.90</ele>
        <time>2012-05-27T16:52:53Z</time>
      </trkpt>
      <trkpt lat="41.615101000" lon="2.499956100">
        <ele>380.80</ele>
        <time>2012-05-27T16:52:54Z</time>
      </trkpt>
      <trkpt lat="41.615025000" lon="2.499962100">
        <ele>381.30</ele>
        <time>2012-05-27T16:53:00Z</time>
      </trkpt>
      <trkpt lat="41.614880000" lon="2.499990100">
        <ele>383.20</ele>
        <time>2012-05-27T16:53:10Z</time>
      </trkpt>
      <trkpt lat="41.614815000" lon="2.499943100">
        <ele>384.70</ele>
        <time>2012-05-27T16:53:17Z</time>
      </trkpt>
      <trkpt lat="41.614731000" lon="2.499785100">
        <ele>389.00</ele>
        <time>2012-05-27T16:53:26Z</time>
      </trkpt>
      <trkpt lat="41.614704000" lon="2.499719100">
        <ele>392.40</ele>
        <time>2012-05-27T16:53:31Z</time>
      </trkpt>
      <trkpt lat="41.614643000" lon="2.499505100">
        <ele>393.80</ele>
        <time>2012-05-27T16:53:43Z</time>
      </trkpt>
      <trkpt lat="41.614620000" lon="2.499351100">
        <ele>395.20</ele>
        <time>2012-05-27T16:53:52Z</time>
      </trkpt>
      <trkpt lat="41.614620000" lon="2.499300100">
        <ele>395.70</ele>
        <time>2012-05-27T16:53:55Z</time>
      </trkpt>
      <trkpt lat="41.614635000" lon="2.499187100">
        <ele>396.70</ele>
        <time>2012-05-27T16:54:01Z</time>
      </trkpt>
      <trkpt lat="41.614658000" lon="2.499102100">
        <ele>397.60</ele>
        <time>2012-05-27T16:54:06Z</time>
      </trkpt>
      <trkpt lat="41.614681000" lon="2.498884100">
        <ele>399.10</ele>
        <time>2012-05-27T16:54:18Z</time>
      </trkpt>
      <trkpt lat="41.614700000" lon="2.498727100">
        <ele>400.00</ele>
        <time>2012-05-27T16:54:25Z</time>
      </trkpt>
      <trkpt lat="41.614712000" lon="2.498539100">
        <ele>401.50</ele>
        <time>2012-05-27T16:54:35Z</time>
      </trkpt>
      <trkpt lat="41.614742000" lon="2.498364100">
        <ele>403.40</ele>
        <time>2012-05-27T16:54:44Z</time>
      </trkpt>
      <trkpt lat="41.614758000" lon="2.498143100">
        <ele>404.90</ele>
        <time>2012-05-27T16:54:55Z</time>
      </trkpt>
      <trkpt lat="41.614731000" lon="2.497952100">
        <ele>406.80</ele>
        <time>2012-05-27T16:55:05Z</time>
      </trkpt>
      <trkpt lat="41.614670000" lon="2.497740100">
        <ele>407.30</ele>
        <time>2012-05-27T16:55:12Z</time>
      </trkpt>
      <trkpt lat="41.614624000" lon="2.497619100">
        <ele>407.30</ele>
        <time>2012-05-27T16:55:14Z</time>
      </trkpt>
      <trkpt lat="41.614449000" lon="2.497449100">
        <ele>407.30</ele>
        <time>2012-05-27T16:55:17Z</time>
      </trkpt>
      <trkpt lat="41.614304000" lon="2.497545100">
        <ele>405.80</ele>
        <time>2012-05-27T16:55:21Z</time>
      </trkpt>
      <trkpt lat="41.614174000" lon="2.497683100">
        <ele>405.80</ele>
        <time>2012-05-27T16:55:26Z</time>
      </trkpt>
      <trkpt lat="41.613991000" lon="2.497780100">
        <ele>406.80</ele>
        <time>2012-05-27T16:55:35Z</time>
      </trkpt>
      <trkpt lat="41.613861000" lon="2.497801100">
        <ele>408.20</ele>
        <time>2012-05-27T16:55:42Z</time>
      </trkpt>
      <trkpt lat="41.613781000" lon="2.497730100">
        <ele>412.10</ele>
        <time>2012-05-27T16:55:47Z</time>
      </trkpt>
      <trkpt lat="41.613686000" lon="2.497534100">
        <ele>413.00</ele>
        <time>2012-05-27T16:55:57Z</time>
      </trkpt>
      <trkpt lat="41.613583000" lon="2.497389100">
        <ele>413.00</ele>
        <time>2012-05-27T16:56:04Z</time>
      </trkpt>
      <trkpt lat="41.613426000" lon="2.497355100">
        <ele>413.00</ele>
        <time>2012-05-27T16:56:13Z</time>
      </trkpt>
      <trkpt lat="41.613258000" lon="2.497419100">
        <ele>414.50</ele>
        <time>2012-05-27T16:56:22Z</time>
      </trkpt>
      <trkpt lat="41.613155000" lon="2.497403100">
        <ele>415.40</ele>
        <time>2012-05-27T16:56:29Z</time>
      </trkpt>
      <trkpt lat="41.613052000" lon="2.497277100">
        <ele>416.40</ele>
        <time>2012-05-27T16:56:36Z</time>
      </trkpt>
      <trkpt lat="41.612988000" lon="2.497088100">
        <ele>417.40</ele>
        <time>2012-05-27T16:56:46Z</time>
      </trkpt>
      <trkpt lat="41.612938000" lon="2.496955100">
        <ele>418.30</ele>
        <time>2012-05-27T16:56:53Z</time>
      </trkpt>
      <trkpt lat="41.612881000" lon="2.496825100">
        <ele>419.80</ele>
        <time>2012-05-27T16:57:00Z</time>
      </trkpt>
      <trkpt lat="41.612820000" lon="2.496592100">
        <ele>421.70</ele>
        <time>2012-05-27T16:57:09Z</time>
      </trkpt>
      <trkpt lat="41.612755000" lon="2.496433100">
        <ele>422.60</ele>
        <time>2012-05-27T16:57:17Z</time>
      </trkpt>
      <trkpt lat="41.612679000" lon="2.496236100">
        <ele>424.60</ele>
        <time>2012-05-27T16:57:28Z</time>
      </trkpt>
      <trkpt lat="41.612637000" lon="2.496013100">
        <ele>426.00</ele>
        <time>2012-05-27T16:57:37Z</time>
      </trkpt>
      <trkpt lat="41.612633000" lon="2.495998100">
        <ele>426.00</ele>
        <time>2012-05-27T16:57:38Z</time>
      </trkpt>
      <trkpt lat="41.612629000" lon="2.495925100">
        <ele>426.50</ele>
        <time>2012-05-27T16:57:42Z</time>
      </trkpt>
      <trkpt lat="41.612694000" lon="2.495826100">
        <ele>427.90</ele>
        <time>2012-05-27T16:57:49Z</time>
      </trkpt>
      <trkpt lat="41.612831000" lon="2.495834100">
        <ele>428.90</ele>
        <time>2012-05-27T16:57:58Z</time>
      </trkpt>
      <trkpt lat="41.612953000" lon="2.495819100">
        <ele>429.90</ele>
        <time>2012-05-27T16:58:05Z</time>
      </trkpt>
      <trkpt lat="41.613079000" lon="2.495851100">
        <ele>430.80</ele>
        <time>2012-05-27T16:58:12Z</time>
      </trkpt>
      <trkpt lat="41.613239000" lon="2.495907100">
        <ele>431.80</ele>
        <time>2012-05-27T16:58:22Z</time>
      </trkpt>
      <trkpt lat="41.613422000" lon="2.495908100">
        <ele>433.20</ele>
        <time>2012-05-27T16:58:31Z</time>
      </trkpt>
      <trkpt lat="41.613590000" lon="2.495853100">
        <ele>434.20</ele>
        <time>2012-05-27T16:58:39Z</time>
      </trkpt>
      <trkpt lat="41.613762000" lon="2.495790100">
        <ele>435.10</ele>
        <time>2012-05-27T16:58:48Z</time>
      </trkpt>
      <trkpt lat="41.613903000" lon="2.495740100">
        <ele>435.60</ele>
        <time>2012-05-27T16:58:57Z</time>
      </trkpt>
      <trkpt lat="41.614120000" lon="2.495686100">
        <ele>436.60</ele>
        <time>2012-05-27T16:59:07Z</time>
      </trkpt>
      <trkpt lat="41.614296000" lon="2.495639100">
        <ele>437.50</ele>
        <time>2012-05-27T16:59:18Z</time>
      </trkpt>
      <trkpt lat="41.614479000" lon="2.495618100">
        <ele>439.50</ele>
        <time>2012-05-27T16:59:28Z</time>
      </trkpt>
      <trkpt lat="41.614620000" lon="2.495582100">
        <ele>440.90</ele>
        <time>2012-05-27T16:59:37Z</time>
      </trkpt>
      <trkpt lat="41.614765000" lon="2.495502100">
        <ele>442.30</ele>
        <time>2012-05-27T16:59:47Z</time>
      </trkpt>
      <trkpt lat="41.614883000" lon="2.495449100">
        <ele>443.80</ele>
        <time>2012-05-27T16:59:56Z</time>
      </trkpt>
      <trkpt lat="41.614990000" lon="2.495397100">
        <ele>445.70</ele>
        <time>2012-05-27T17:00:05Z</time>
      </trkpt>
      <trkpt lat="41.615150000" lon="2.495457100">
        <ele>447.10</ele>
        <time>2012-05-27T17:00:15Z</time>
      </trkpt>
      <trkpt lat="41.615219000" lon="2.495560100">
        <ele>449.10</ele>
        <time>2012-05-27T17:00:22Z</time>
      </trkpt>
      <trkpt lat="41.615299000" lon="2.495679100">
        <ele>450.50</ele>
        <time>2012-05-27T17:00:31Z</time>
      </trkpt>
      <trkpt lat="41.615398000" lon="2.495826100">
        <ele>452.40</ele>
        <time>2012-05-27T17:00:41Z</time>
      </trkpt>
      <trkpt lat="41.615448000" lon="2.495939100">
        <ele>453.90</ele>
        <time>2012-05-27T17:00:48Z</time>
      </trkpt>
      <trkpt lat="41.615498000" lon="2.496090100">
        <ele>455.30</ele>
        <time>2012-05-27T17:00:57Z</time>
      </trkpt>
      <trkpt lat="41.615536000" lon="2.496235100">
        <ele>456.80</ele>
        <time>2012-05-27T17:01:04Z</time>
      </trkpt>
      <trkpt lat="41.615608000" lon="2.496422100">
        <ele>457.70</ele>
        <time>2012-05-27T17:01:14Z</time>
      </trkpt>
      <trkpt lat="41.615688000" lon="2.496562100">
        <ele>459.60</ele>
        <time>2012-05-27T17:01:23Z</time>
      </trkpt>
      <trkpt lat="41.615711000" lon="2.496608100">
        <ele>459.60</ele>
        <time>2012-05-27T17:01:27Z</time>
      </trkpt>
      <trkpt lat="41.615810000" lon="2.496737100">
        <ele>461.60</ele>
        <time>2012-05-27T17:01:35Z</time>
      </trkpt>
      <trkpt lat="41.615917000" lon="2.496793100">
        <ele>462.50</ele>
        <time>2012-05-27T17:01:44Z</time>
      </trkpt>
      <trkpt lat="41.616016000" lon="2.496782100">
        <ele>463.50</ele>
        <time>2012-05-27T17:01:51Z</time>
      </trkpt>
      <trkpt lat="41.616062000" lon="2.496747100">
        <ele>464.00</ele>
        <time>2012-05-27T17:01:56Z</time>
      </trkpt>
      <trkpt lat="41.616177000" lon="2.496648100">
        <ele>465.90</ele>
        <time>2012-05-27T17:02:05Z</time>
      </trkpt>
      <trkpt lat="41.616268000" lon="2.496501100">
        <ele>467.80</ele>
        <time>2012-05-27T17:02:14Z</time>
      </trkpt>
      <trkpt lat="41.616276000" lon="2.496483100">
        <ele>467.80</ele>
        <time>2012-05-27T17:02:15Z</time>
      </trkpt>
      <trkpt lat="41.616299000" lon="2.496384100">
        <ele>468.80</ele>
        <time>2012-05-27T17:02:21Z</time>
      </trkpt>
      <trkpt lat="41.616367000" lon="2.496176100">
        <ele>469.70</ele>
        <time>2012-05-27T17:02:31Z</time>
      </trkpt>
      <trkpt lat="41.616390000" lon="2.496041100">
        <ele>471.20</ele>
        <time>2012-05-27T17:02:38Z</time>
      </trkpt>
      <trkpt lat="41.616394000" lon="2.495966100">
        <ele>471.70</ele>
        <time>2012-05-27T17:02:43Z</time>
      </trkpt>
      <trkpt lat="41.616398000" lon="2.495759100">
        <ele>473.60</ele>
        <time>2012-05-27T17:02:54Z</time>
      </trkpt>
      <trkpt lat="41.616413000" lon="2.495560100">
        <ele>476.00</ele>
        <time>2012-05-27T17:03:04Z</time>
      </trkpt>
      <trkpt lat="41.616512000" lon="2.495457100">
        <ele>477.00</ele>
        <time>2012-05-27T17:03:13Z</time>
      </trkpt>
      <trkpt lat="41.616646000" lon="2.495445100">
        <ele>477.90</ele>
        <time>2012-05-27T17:03:22Z</time>
      </trkpt>
      <trkpt lat="41.616795000" lon="2.495500100">
        <ele>478.90</ele>
        <time>2012-05-27T17:03:30Z</time>
      </trkpt>
      <trkpt lat="41.616951000" lon="2.495556100">
        <ele>479.40</ele>
        <time>2012-05-27T17:03:39Z</time>
      </trkpt>
      <trkpt lat="41.617092000" lon="2.495617100">
        <ele>479.40</ele>
        <time>2012-05-27T17:03:48Z</time>
      </trkpt>
      <trkpt lat="41.617226000" lon="2.495660100">
        <ele>479.80</ele>
        <time>2012-05-27T17:03:56Z</time>
      </trkpt>
      <trkpt lat="41.617283000" lon="2.495672100">
        <ele>480.30</ele>
        <time>2012-05-27T17:04:00Z</time>
      </trkpt>
      <trkpt lat="41.617363000" lon="2.495665100">
        <ele>480.80</ele>
        <time>2012-05-27T17:04:05Z</time>
      </trkpt>
      <trkpt lat="41.617500000" lon="2.495650100">
        <ele>481.30</ele>
        <time>2012-05-27T17:04:14Z</time>
      </trkpt>
      <trkpt lat="41.617615000" lon="2.495651100">
        <ele>481.80</ele>
        <time>2012-05-27T17:04:24Z</time>
      </trkpt>
      <trkpt lat="41.617710000" lon="2.495664100">
        <ele>482.20</ele>
        <time>2012-05-27T17:04:31Z</time>
      </trkpt>
      <trkpt lat="41.617828000" lon="2.495707100">
        <ele>483.70</ele>
        <time>2012-05-27T17:04:40Z</time>
      </trkpt>
      <trkpt lat="41.617931000" lon="2.495730100">
        <ele>484.60</ele>
        <time>2012-05-27T17:04:47Z</time>
      </trkpt>
      <trkpt lat="41.617985000" lon="2.495742100">
        <ele>484.60</ele>
        <time>2012-05-27T17:04:52Z</time>
      </trkpt>
      <trkpt lat="41.618130000" lon="2.495767100">
        <ele>486.60</ele>
        <time>2012-05-27T17:05:01Z</time>
      </trkpt>
      <trkpt lat="41.618263000" lon="2.495752100">
        <ele>487.50</ele>
        <time>2012-05-27T17:05:08Z</time>
      </trkpt>
      <trkpt lat="41.618362000" lon="2.495721100">
        <ele>488.00</ele>
        <time>2012-05-27T17:05:15Z</time>
      </trkpt>
      <trkpt lat="41.618507000" lon="2.495623100">
        <ele>489.50</ele>
        <time>2012-05-27T17:05:24Z</time>
      </trkpt>
      <trkpt lat="41.618549000" lon="2.495576100">
        <ele>489.90</ele>
        <time>2012-05-27T17:05:27Z</time>
      </trkpt>
      <trkpt lat="41.618668000" lon="2.495464100">
        <ele>491.90</ele>
        <time>2012-05-27T17:05:36Z</time>
      </trkpt>
      <trkpt lat="41.618698000" lon="2.495438100">
        <ele>491.90</ele>
        <time>2012-05-27T17:05:37Z</time>
      </trkpt>
      <trkpt lat="41.618782000" lon="2.495305100">
        <ele>492.80</ele>
        <time>2012-05-27T17:05:46Z</time>
      </trkpt>
      <trkpt lat="41.618919000" lon="2.495149100">
        <ele>493.80</ele>
        <time>2012-05-27T17:05:55Z</time>
      </trkpt>
      <trkpt lat="41.619045000" lon="2.495067100">
        <ele>494.30</ele>
        <time>2012-05-27T17:06:02Z</time>
      </trkpt>
      <trkpt lat="41.619167000" lon="2.495064100">
        <ele>494.70</ele>
        <time>2012-05-27T17:06:09Z</time>
      </trkpt>
      <trkpt lat="41.619328000" lon="2.495119100">
        <ele>495.20</ele>
        <time>2012-05-27T17:06:16Z</time>
      </trkpt>
      <trkpt lat="41.619457000" lon="2.495191100">
        <ele>495.70</ele>
        <time>2012-05-27T17:06:23Z</time>
      </trkpt>
      <trkpt lat="41.619606000" lon="2.495275100">
        <ele>496.20</ele>
        <time>2012-05-27T17:06:31Z</time>
      </trkpt>
      <trkpt lat="41.619762000" lon="2.495343100">
        <ele>496.70</ele>
        <time>2012-05-27T17:06:40Z</time>
      </trkpt>
      <trkpt lat="41.619823000" lon="2.495320100">
        <ele>497.60</ele>
        <time>2012-05-27T17:06:45Z</time>
      </trkpt>
      <trkpt lat="41.619953000" lon="2.495193100">
        <ele>498.60</ele>
        <time>2012-05-27T17:06:54Z</time>
      </trkpt>
      <trkpt lat="41.620026000" lon="2.495125100">
        <ele>499.10</ele>
        <time>2012-05-27T17:07:01Z</time>
      </trkpt>
      <trkpt lat="41.620136000" lon="2.495026100">
        <ele>500.50</ele>
        <time>2012-05-27T17:07:08Z</time>
      </trkpt>
      <trkpt lat="41.620216000" lon="2.494923100">
        <ele>501.50</ele>
        <time>2012-05-27T17:07:15Z</time>
      </trkpt>
      <trkpt lat="41.620312000" lon="2.494807100">
        <ele>502.90</ele>
        <time>2012-05-27T17:07:24Z</time>
      </trkpt>
      <trkpt lat="41.620342000" lon="2.494795100">
        <ele>503.40</ele>
        <time>2012-05-27T17:07:27Z</time>
      </trkpt>
      <trkpt lat="41.620434000" lon="2.494814100">
        <ele>503.90</ele>
        <time>2012-05-27T17:07:31Z</time>
      </trkpt>
      <trkpt lat="41.620636000" lon="2.494987100">
        <ele>506.30</ele>
        <time>2012-05-27T17:07:43Z</time>
      </trkpt>
      <trkpt lat="41.620800000" lon="2.495122100">
        <ele>507.20</ele>
        <time>2012-05-27T17:07:52Z</time>
      </trkpt>
      <trkpt lat="41.620960000" lon="2.495235100">
        <ele>509.20</ele>
        <time>2012-05-27T17:08:00Z</time>
      </trkpt>
      <trkpt lat="41.621006000" lon="2.495248100">
        <ele>509.60</ele>
        <time>2012-05-27T17:08:04Z</time>
      </trkpt>
      <trkpt lat="41.621132000" lon="2.495178100">
        <ele>510.60</ele>
        <time>2012-05-27T17:08:12Z</time>
      </trkpt>
      <trkpt lat="41.621197000" lon="2.494995100">
        <ele>511.60</ele>
        <time>2012-05-27T17:08:21Z</time>
      </trkpt>
      <trkpt lat="41.621223000" lon="2.494903100">
        <ele>512.50</ele>
        <time>2012-05-27T17:08:25Z</time>
      </trkpt>
      <trkpt lat="41.621353000" lon="2.494766100">
        <ele>513.00</ele>
        <time>2012-05-27T17:08:35Z</time>
      </trkpt>
      <trkpt lat="41.621403000" lon="2.494608100">
        <ele>513.50</ele>
        <time>2012-05-27T17:08:42Z</time>
      </trkpt>
      <trkpt lat="41.621387000" lon="2.494437100">
        <ele>513.50</ele>
        <time>2012-05-27T17:08:47Z</time>
      </trkpt>
      <trkpt lat="41.621372000" lon="2.494173100">
        <ele>514.00</ele>
        <time>2012-05-27T17:08:56Z</time>
      </trkpt>
      <trkpt lat="41.621437000" lon="2.493979100">
        <ele>514.00</ele>
        <time>2012-05-27T17:09:03Z</time>
      </trkpt>
      <trkpt lat="41.621590000" lon="2.493841100">
        <ele>514.00</ele>
        <time>2012-05-27T17:09:10Z</time>
      </trkpt>
      <trkpt lat="41.621716000" lon="2.493698100">
        <ele>514.00</ele>
        <time>2012-05-27T17:09:15Z</time>
      </trkpt>
      <trkpt lat="41.621964000" lon="2.493603100">
        <ele>514.00</ele>
        <time>2012-05-27T17:09:22Z</time>
      </trkpt>
      <trkpt lat="41.622028000" lon="2.493663100">
        <ele>514.00</ele>
        <time>2012-05-27T17:09:24Z</time>
      </trkpt>
      <trkpt lat="41.622215000" lon="2.493922100">
        <ele>513.00</ele>
        <time>2012-05-27T17:09:31Z</time>
      </trkpt>
      <trkpt lat="41.622402000" lon="2.493949100">
        <ele>513.00</ele>
        <time>2012-05-27T17:09:36Z</time>
      </trkpt>
      <trkpt lat="41.622578000" lon="2.493943100">
        <ele>513.00</ele>
        <time>2012-05-27T17:09:43Z</time>
      </trkpt>
      <trkpt lat="41.622814000" lon="2.494117100">
        <ele>512.00</ele>
        <time>2012-05-27T17:09:50Z</time>
      </trkpt>
      <trkpt lat="41.622883000" lon="2.494188100">
        <ele>512.00</ele>
        <time>2012-05-27T17:09:52Z</time>
      </trkpt>
      <trkpt lat="41.623043000" lon="2.494437100">
        <ele>512.00</ele>
        <time>2012-05-27T17:09:59Z</time>
      </trkpt>
      <trkpt lat="41.623127000" lon="2.494659100">
        <ele>512.00</ele>
        <time>2012-05-27T17:10:06Z</time>
      </trkpt>
      <trkpt lat="41.623169000" lon="2.495008100">
        <ele>512.00</ele>
        <time>2012-05-27T17:10:14Z</time>
      </trkpt>
      <trkpt lat="41.623146000" lon="2.495273100">
        <ele>512.00</ele>
        <time>2012-05-27T17:10:21Z</time>
      </trkpt>
      <trkpt lat="41.623047000" lon="2.495562100">
        <ele>512.00</ele>
        <time>2012-05-27T17:10:30Z</time>
      </trkpt>
      <trkpt lat="41.623043000" lon="2.495628100">
        <ele>512.00</ele>
        <time>2012-05-27T17:10:32Z</time>
      </trkpt>
      <trkpt lat="41.623104000" lon="2.495732100">
        <ele>512.00</ele>
        <time>2012-05-27T17:10:37Z</time>
      </trkpt>
      <trkpt lat="41.623264000" lon="2.495909100">
        <ele>513.00</ele>
        <time>2012-05-27T17:10:44Z</time>
      </trkpt>
      <trkpt lat="41.623348000" lon="2.496134100">
        <ele>514.40</ele>
        <time>2012-05-27T17:10:53Z</time>
      </trkpt>
      <trkpt lat="41.623505000" lon="2.496348100">
        <ele>514.90</ele>
        <time>2012-05-27T17:11:01Z</time>
      </trkpt>
      <trkpt lat="41.623669000" lon="2.496411100">
        <ele>515.40</ele>
        <time>2012-05-27T17:11:07Z</time>
      </trkpt>
      <trkpt lat="41.623882000" lon="2.496392100">
        <ele>515.40</ele>
        <time>2012-05-27T17:11:14Z</time>
      </trkpt>
      <trkpt lat="41.624020000" lon="2.496291100">
        <ele>515.40</ele>
        <time>2012-05-27T17:11:19Z</time>
      </trkpt>
      <trkpt lat="41.624161000" lon="2.496092100">
        <ele>515.40</ele>
        <time>2012-05-27T17:11:22Z</time>
      </trkpt>
      <trkpt lat="41.624241000" lon="2.495848100">
        <ele>514.00</ele>
        <time>2012-05-27T17:11:26Z</time>
      </trkpt>
      <trkpt lat="41.624249000" lon="2.495781100">
        <ele>514.00</ele>
        <time>2012-05-27T17:11:28Z</time>
      </trkpt>
      <trkpt lat="41.624268000" lon="2.495530100">
        <ele>513.00</ele>
        <time>2012-05-27T17:11:31Z</time>
      </trkpt>
      <trkpt lat="41.624222000" lon="2.495023100">
        <ele>511.60</ele>
        <time>2012-05-27T17:11:40Z</time>
      </trkpt>
      <trkpt lat="41.624237000" lon="2.494744100">
        <ele>511.10</ele>
        <time>2012-05-27T17:11:43Z</time>
      </trkpt>
      <trkpt lat="41.624290000" lon="2.494563100">
        <ele>510.60</ele>
        <time>2012-05-27T17:11:47Z</time>
      </trkpt>
      <trkpt lat="41.624290000" lon="2.494337100">
        <ele>509.60</ele>
        <time>2012-05-27T17:11:50Z</time>
      </trkpt>
      <trkpt lat="41.624184000" lon="2.493892100">
        <ele>509.20</ele>
        <time>2012-05-27T17:11:59Z</time>
      </trkpt>
      <trkpt lat="41.624126000" lon="2.493540100">
        <ele>508.70</ele>
        <time>2012-05-27T17:12:06Z</time>
      </trkpt>
      <trkpt lat="41.624104000" lon="2.493219100">
        <ele>508.70</ele>
        <time>2012-05-27T17:12:15Z</time>
      </trkpt>
      <trkpt lat="41.624069000" lon="2.492885100">
        <ele>508.70</ele>
        <time>2012-05-27T17:12:23Z</time>
      </trkpt>
      <trkpt lat="41.624077000" lon="2.492794100">
        <ele>508.70</ele>
        <time>2012-05-27T17:12:25Z</time>
      </trkpt>
      <trkpt lat="41.624237000" lon="2.492369100">
        <ele>508.20</ele>
        <time>2012-05-27T17:12:34Z</time>
      </trkpt>
      <trkpt lat="41.624306000" lon="2.492046100">
        <ele>508.20</ele>
        <time>2012-05-27T17:12:42Z</time>
      </trkpt>
      <trkpt lat="41.624336000" lon="2.491771100">
        <ele>508.20</ele>
        <time>2012-05-27T17:12:51Z</time>
      </trkpt>
      <trkpt lat="41.624336000" lon="2.491445100">
        <ele>508.20</ele>
        <time>2012-05-27T17:12:58Z</time>
      </trkpt>
      <trkpt lat="41.624371000" lon="2.491156100">
        <ele>509.60</ele>
        <time>2012-05-27T17:13:07Z</time>
      </trkpt>
      <trkpt lat="41.624443000" lon="2.490839100">
        <ele>511.10</ele>
        <time>2012-05-27T17:13:17Z</time>
      </trkpt>
      <trkpt lat="41.624538000" lon="2.490632100">
        <ele>511.60</ele>
        <time>2012-05-27T17:13:24Z</time>
      </trkpt>
      <trkpt lat="41.624676000" lon="2.490368100">
        <ele>512.00</ele>
        <time>2012-05-27T17:13:33Z</time>
      </trkpt>
      <trkpt lat="41.624851000" lon="2.490127100">
        <ele>512.00</ele>
        <time>2012-05-27T17:13:40Z</time>
      </trkpt>
      <trkpt lat="41.624966000" lon="2.489923100">
        <ele>512.00</ele>
        <time>2012-05-27T17:13:47Z</time>
      </trkpt>
      <trkpt lat="41.625023000" lon="2.489727100">
        <ele>512.00</ele>
        <time>2012-05-27T17:13:54Z</time>
      </trkpt>
      <trkpt lat="41.625099000" lon="2.489402100">
        <ele>512.00</ele>
        <time>2012-05-27T17:14:04Z</time>
      </trkpt>
      <trkpt lat="41.625130000" lon="2.489177100">
        <ele>512.00</ele>
        <time>2012-05-27T17:14:11Z</time>
      </trkpt>
      <trkpt lat="41.625183000" lon="2.488915100">
        <ele>512.00</ele>
        <time>2012-05-27T17:14:20Z</time>
      </trkpt>
      <trkpt lat="41.625233000" lon="2.488699100">
        <ele>513.00</ele>
        <time>2012-05-27T17:14:27Z</time>
      </trkpt>
      <trkpt lat="41.625225000" lon="2.488502100">
        <ele>513.00</ele>
        <time>2012-05-27T17:14:34Z</time>
      </trkpt>
      <trkpt lat="41.625225000" lon="2.488309100">
        <ele>513.50</ele>
        <time>2012-05-27T17:14:39Z</time>
      </trkpt>
      <trkpt lat="41.625198000" lon="2.488231100">
        <ele>514.00</ele>
        <time>2012-05-27T17:14:43Z</time>
      </trkpt>
      <trkpt lat="41.625084000" lon="2.488286100">
        <ele>514.40</ele>
        <time>2012-05-27T17:14:51Z</time>
      </trkpt>
      <trkpt lat="41.624989000" lon="2.488364100">
        <ele>515.40</ele>
        <time>2012-05-27T17:14:58Z</time>
      </trkpt>
      <trkpt lat="41.624920000" lon="2.488394100">
        <ele>515.40</ele>
        <time>2012-05-27T17:15:00Z</time>
      </trkpt>
      <trkpt lat="41.624771000" lon="2.488371100">
        <ele>515.40</ele>
        <time>2012-05-27T17:15:07Z</time>
      </trkpt>
      <trkpt lat="41.624634000" lon="2.488308100">
        <ele>515.90</ele>
        <time>2012-05-27T17:15:16Z</time>
      </trkpt>
      <trkpt lat="41.624619000" lon="2.488307100">
        <ele>515.90</ele>
        <time>2012-05-27T17:15:16Z</time>
      </trkpt>
      <trkpt lat="41.624485000" lon="2.488287100">
        <ele>516.80</ele>
        <time>2012-05-27T17:15:23Z</time>
      </trkpt>
      <trkpt lat="41.624390000" lon="2.488296100">
        <ele>516.80</ele>
        <time>2012-05-27T17:15:28Z</time>
      </trkpt>
      <trkpt lat="41.624260000" lon="2.488261100">
        <ele>518.30</ele>
        <time>2012-05-27T17:15:35Z</time>
      </trkpt>
      <trkpt lat="41.624241000" lon="2.488261100">
        <ele>518.30</ele>
        <time>2012-05-27T17:15:35Z</time>
      </trkpt>
      <trkpt lat="41.624203000" lon="2.488261100">
        <ele>518.80</ele>
        <time>2012-05-27T17:15:37Z</time>
      </trkpt>
      <trkpt lat="41.624027000" lon="2.488258100">
        <ele>519.70</ele>
        <time>2012-05-27T17:15:45Z</time>
      </trkpt>
      <trkpt lat="41.623867000" lon="2.488294100">
        <ele>521.20</ele>
        <time>2012-05-27T17:15:54Z</time>
      </trkpt>
      <trkpt lat="41.623768000" lon="2.488301100">
        <ele>522.10</ele>
        <time>2012-05-27T17:15:59Z</time>
      </trkpt>
      <trkpt lat="41.623631000" lon="2.488369100">
        <ele>526.50</ele>
        <time>2012-05-27T17:16:06Z</time>
      </trkpt>
      <trkpt lat="41.623516000" lon="2.488431100">
        <ele>529.30</ele>
        <time>2012-05-27T17:16:12Z</time>
      </trkpt>
      <trkpt lat="41.623375000" lon="2.488525100">
        <ele>528.90</ele>
        <time>2012-05-27T17:16:20Z</time>
      </trkpt>
      <trkpt lat="41.623219000" lon="2.488579100">
        <ele>529.30</ele>
        <time>2012-05-27T17:16:27Z</time>
      </trkpt>
      <trkpt lat="41.623093000" lon="2.488534100">
        <ele>529.30</ele>
        <time>2012-05-27T17:16:32Z</time>
      </trkpt>
      <trkpt lat="41.622974000" lon="2.488490100">
        <ele>526.50</ele>
        <time>2012-05-27T17:16:38Z</time>
      </trkpt>
      <trkpt lat="41.622944000" lon="2.488501100">
        <ele>525.50</ele>
        <time>2012-05-27T17:16:38Z</time>
      </trkpt>
      <trkpt lat="41.622814000" lon="2.488394100">
        <ele>521.20</ele>
        <time>2012-05-27T17:16:43Z</time>
      </trkpt>
      <trkpt lat="41.622673000" lon="2.488216100">
        <ele>517.80</ele>
        <time>2012-05-27T17:16:46Z</time>
      </trkpt>
      <trkpt lat="41.622566000" lon="2.488113100">
        <ele>515.40</ele>
        <time>2012-05-27T17:16:50Z</time>
      </trkpt>
      <trkpt lat="41.622475000" lon="2.488056100">
        <ele>514.90</ele>
        <time>2012-05-27T17:16:52Z</time>
      </trkpt>
      <trkpt lat="41.622372000" lon="2.487917100">
        <ele>513.50</ele>
        <time>2012-05-27T17:16:55Z</time>
      </trkpt>
      <trkpt lat="41.622383000" lon="2.487876100">
        <ele>514.00</ele>
        <time>2012-05-27T17:16:57Z</time>
      </trkpt>
      <trkpt lat="41.622509000" lon="2.487777100">
        <ele>514.00</ele>
        <time>2012-05-27T17:17:04Z</time>
      </trkpt>
      <trkpt lat="41.622604000" lon="2.487660100">
        <ele>514.00</ele>
        <time>2012-05-27T17:17:11Z</time>
      </trkpt>
      <trkpt lat="41.622692000" lon="2.487507100">
        <ele>515.40</ele>
        <time>2012-05-27T17:17:21Z</time>
      </trkpt>
      <trkpt lat="41.622765000" lon="2.487325100">
        <ele>516.80</ele>
        <time>2012-05-27T17:17:30Z</time>
      </trkpt>
      <trkpt lat="41.622829000" lon="2.487143100">
        <ele>517.80</ele>
        <time>2012-05-27T17:17:37Z</time>
      </trkpt>
      <trkpt lat="41.622894000" lon="2.486963100">
        <ele>520.20</ele>
        <time>2012-05-27T17:17:46Z</time>
      </trkpt>
      <trkpt lat="41.622982000" lon="2.486825100">
        <ele>523.10</ele>
        <time>2012-05-27T17:17:51Z</time>
      </trkpt>
      <trkpt lat="41.623154000" lon="2.486746100">
        <ele>523.10</ele>
        <time>2012-05-27T17:17:54Z</time>
      </trkpt>
      <trkpt lat="41.623390000" lon="2.486602100">
        <ele>517.80</ele>
        <time>2012-05-27T17:17:58Z</time>
      </trkpt>
      <trkpt lat="41.623619000" lon="2.486383100">
        <ele>513.50</ele>
        <time>2012-05-27T17:18:03Z</time>
      </trkpt>
      <trkpt lat="41.623875000" lon="2.486248100">
        <ele>511.10</ele>
        <time>2012-05-27T17:18:06Z</time>
      </trkpt>
      <trkpt lat="41.624111000" lon="2.486161100">
        <ele>510.60</ele>
        <time>2012-05-27T17:18:10Z</time>
      </trkpt>
      <trkpt lat="41.624252000" lon="2.485984100">
        <ele>508.70</ele>
        <time>2012-05-27T17:18:13Z</time>
      </trkpt>
      <trkpt lat="41.624184000" lon="2.485792100">
        <ele>507.20</ele>
        <time>2012-05-27T17:18:17Z</time>
      </trkpt>
      <trkpt lat="41.624043000" lon="2.485574100">
        <ele>505.30</ele>
        <time>2012-05-27T17:18:19Z</time>
      </trkpt>
      <trkpt lat="41.623875000" lon="2.485218100">
        <ele>502.00</ele>
        <time>2012-05-27T17:18:24Z</time>
      </trkpt>
      <trkpt lat="41.623878000" lon="2.485030100">
        <ele>497.60</ele>
        <time>2012-05-27T17:18:27Z</time>
      </trkpt>
      <trkpt lat="41.623913000" lon="2.485004100">
        <ele>497.10</ele>
        <time>2012-05-27T17:18:29Z</time>
      </trkpt>
      <trkpt lat="41.624062000" lon="2.484819100">
        <ele>496.20</ele>
        <time>2012-05-27T17:18:34Z</time>
      </trkpt>
      <trkpt lat="41.624088000" lon="2.484640100">
        <ele>496.20</ele>
        <time>2012-05-27T17:18:36Z</time>
      </trkpt>
      <trkpt lat="41.623993000" lon="2.484427100">
        <ele>496.20</ele>
        <time>2012-05-27T17:18:41Z</time>
      </trkpt>
      <trkpt lat="41.623775000" lon="2.484376100">
        <ele>496.20</ele>
        <time>2012-05-27T17:18:45Z</time>
      </trkpt>
      <trkpt lat="41.623619000" lon="2.484354100">
        <ele>496.20</ele>
        <time>2012-05-27T17:18:48Z</time>
      </trkpt>
      <trkpt lat="41.623375000" lon="2.484350100">
        <ele>496.20</ele>
        <time>2012-05-27T17:18:52Z</time>
      </trkpt>
      <trkpt lat="41.623291000" lon="2.484329100">
        <ele>496.20</ele>
        <time>2012-05-27T17:18:55Z</time>
      </trkpt>
      <trkpt lat="41.623169000" lon="2.484185100">
        <ele>495.70</ele>
        <time>2012-05-27T17:18:59Z</time>
      </trkpt>
      <trkpt lat="41.623173000" lon="2.484074100">
        <ele>495.70</ele>
        <time>2012-05-27T17:19:00Z</time>
      </trkpt>
      <trkpt lat="41.623230000" lon="2.483906100">
        <ele>495.20</ele>
        <time>2012-05-27T17:19:04Z</time>
      </trkpt>
      <trkpt lat="41.623299000" lon="2.483650100">
        <ele>495.20</ele>
        <time>2012-05-27T17:19:11Z</time>
      </trkpt>
      <trkpt lat="41.623280000" lon="2.483474100">
        <ele>496.20</ele>
        <time>2012-05-27T17:19:16Z</time>
      </trkpt>
      <trkpt lat="41.623100000" lon="2.483422100">
        <ele>497.10</ele>
        <time>2012-05-27T17:19:23Z</time>
      </trkpt>
      <trkpt lat="41.623074000" lon="2.483431100">
        <ele>497.10</ele>
        <time>2012-05-27T17:19:25Z</time>
      </trkpt>
      <trkpt lat="41.622879000" lon="2.483446100">
        <ele>498.60</ele>
        <time>2012-05-27T17:19:32Z</time>
      </trkpt>
      <trkpt lat="41.622726000" lon="2.483428100">
        <ele>499.10</ele>
        <time>2012-05-27T17:19:39Z</time>
      </trkpt>
      <trkpt lat="41.622562000" lon="2.483371100">
        <ele>499.50</ele>
        <time>2012-05-27T17:19:46Z</time>
      </trkpt>
      <trkpt lat="41.622398000" lon="2.483236100">
        <ele>499.50</ele>
        <time>2012-05-27T17:19:53Z</time>
      </trkpt>
      <trkpt lat="41.622295000" lon="2.483012100">
        <ele>499.50</ele>
        <time>2012-05-27T17:19:58Z</time>
      </trkpt>
      <trkpt lat="41.622150000" lon="2.482629100">
        <ele>497.10</ele>
        <time>2012-05-27T17:20:05Z</time>
      </trkpt>
      <trkpt lat="41.622086000" lon="2.482392100">
        <ele>497.10</ele>
        <time>2012-05-27T17:20:12Z</time>
      </trkpt>
      <trkpt lat="41.622093000" lon="2.482094100">
        <ele>497.10</ele>
        <time>2012-05-27T17:20:21Z</time>
      </trkpt>
      <trkpt lat="41.622074000" lon="2.482038100">
        <ele>497.10</ele>
        <time>2012-05-27T17:20:22Z</time>
      </trkpt>
      <trkpt lat="41.621910000" lon="2.481853100">
        <ele>497.10</ele>
        <time>2012-05-27T17:20:31Z</time>
      </trkpt>
      <trkpt lat="41.621746000" lon="2.481576100">
        <ele>497.10</ele>
        <time>2012-05-27T17:20:38Z</time>
      </trkpt>
      <trkpt lat="41.621719000" lon="2.481407100">
        <ele>496.20</ele>
        <time>2012-05-27T17:20:42Z</time>
      </trkpt>
      <trkpt lat="41.621735000" lon="2.481369100">
        <ele>496.20</ele>
        <time>2012-05-27T17:20:43Z</time>
      </trkpt>
      <trkpt lat="41.621887000" lon="2.481211100">
        <ele>494.30</ele>
        <time>2012-05-27T17:20:50Z</time>
      </trkpt>
      <trkpt lat="41.621925000" lon="2.481142100">
        <ele>493.30</ele>
        <time>2012-05-27T17:20:52Z</time>
      </trkpt>
      <trkpt lat="41.621887000" lon="2.480933100">
        <ele>489.50</ele>
        <time>2012-05-27T17:20:57Z</time>
      </trkpt>
      <trkpt lat="41.621914000" lon="2.480812100">
        <ele>488.50</ele>
        <time>2012-05-27T17:20:59Z</time>
      </trkpt>
      <trkpt lat="41.621899000" lon="2.480676100">
        <ele>489.00</ele>
        <time>2012-05-27T17:21:06Z</time>
      </trkpt>
      <trkpt lat="41.621853000" lon="2.480689100">
        <ele>490.40</ele>
        <time>2012-05-27T17:21:08Z</time>
      </trkpt>
      <trkpt lat="41.621685000" lon="2.480653100">
        <ele>491.40</ele>
        <time>2012-05-27T17:21:15Z</time>
      </trkpt>
      <trkpt lat="41.621574000" lon="2.480619100">
        <ele>491.90</ele>
        <time>2012-05-27T17:21:18Z</time>
      </trkpt>
      <trkpt lat="41.621376000" lon="2.480603100">
        <ele>493.30</ele>
        <time>2012-05-27T17:21:27Z</time>
      </trkpt>
      <trkpt lat="41.621258000" lon="2.480539100">
        <ele>495.20</ele>
        <time>2012-05-27T17:21:32Z</time>
      </trkpt>
      <trkpt lat="41.621201000" lon="2.480498100">
        <ele>498.10</ele>
        <time>2012-05-27T17:21:36Z</time>
      </trkpt>
      <trkpt lat="41.621075000" lon="2.480468100">
        <ele>500.50</ele>
        <time>2012-05-27T17:21:41Z</time>
      </trkpt>
      <trkpt lat="41.620876000" lon="2.480409100">
        <ele>500.50</ele>
        <time>2012-05-27T17:21:49Z</time>
      </trkpt>
      <trkpt lat="41.620747000" lon="2.480266100">
        <ele>500.50</ele>
        <time>2012-05-27T17:21:55Z</time>
      </trkpt>
      <trkpt lat="41.620636000" lon="2.480016100">
        <ele>500.50</ele>
        <time>2012-05-27T17:22:02Z</time>
      </trkpt>
      <trkpt lat="41.620514000" lon="2.479839100">
        <ele>500.50</ele>
        <time>2012-05-27T17:22:09Z</time>
      </trkpt>
      <trkpt lat="41.620308000" lon="2.479687100">
        <ele>499.10</ele>
        <time>2012-05-27T17:22:14Z</time>
      </trkpt>
      <trkpt lat="41.620232000" lon="2.479480100">
        <ele>497.10</ele>
        <time>2012-05-27T17:22:19Z</time>
      </trkpt>
      <trkpt lat="41.620335000" lon="2.479347100">
        <ele>493.30</ele>
        <time>2012-05-27T17:22:24Z</time>
      </trkpt>
      <trkpt lat="41.620373000" lon="2.479141100">
        <ele>489.90</ele>
        <time>2012-05-27T17:22:28Z</time>
      </trkpt>
      <trkpt lat="41.620289000" lon="2.478909100">
        <ele>489.90</ele>
        <time>2012-05-27T17:22:33Z</time>
      </trkpt>
      <trkpt lat="41.620255000" lon="2.478842100">
        <ele>489.90</ele>
        <time>2012-05-27T17:22:35Z</time>
      </trkpt>
      <trkpt lat="41.620148000" lon="2.478602100">
        <ele>491.90</ele>
        <time>2012-05-27T17:22:42Z</time>
      </trkpt>
      <trkpt lat="41.620193000" lon="2.478423100">
        <ele>491.90</ele>
        <time>2012-05-27T17:22:47Z</time>
      </trkpt>
      <trkpt lat="41.620251000" lon="2.478116100">
        <ele>491.90</ele>
        <time>2012-05-27T17:22:52Z</time>
      </trkpt>
      <trkpt lat="41.620285000" lon="2.477876100">
        <ele>491.90</ele>
        <time>2012-05-27T17:22:59Z</time>
      </trkpt>
      <trkpt lat="41.620377000" lon="2.477589100">
        <ele>491.90</ele>
        <time>2012-05-27T17:23:06Z</time>
      </trkpt>
      <trkpt lat="41.620354000" lon="2.477353100">
        <ele>492.80</ele>
        <time>2012-05-27T17:23:13Z</time>
      </trkpt>
      <trkpt lat="41.620213000" lon="2.477186100">
        <ele>493.80</ele>
        <time>2012-05-27T17:23:20Z</time>
      </trkpt>
      <trkpt lat="41.620026000" lon="2.477006100">
        <ele>494.30</ele>
        <time>2012-05-27T17:23:27Z</time>
      </trkpt>
      <trkpt lat="41.619980000" lon="2.476785100">
        <ele>494.30</ele>
        <time>2012-05-27T17:23:32Z</time>
      </trkpt>
      <trkpt lat="41.620041000" lon="2.476564100">
        <ele>494.30</ele>
        <time>2012-05-27T17:23:39Z</time>
      </trkpt>
      <trkpt lat="41.620060000" lon="2.476464100">
        <ele>494.70</ele>
        <time>2012-05-27T17:23:43Z</time>
      </trkpt>
      <trkpt lat="41.619980000" lon="2.476198100">
        <ele>495.20</ele>
        <time>2012-05-27T17:23:50Z</time>
      </trkpt>
      <trkpt lat="41.619850000" lon="2.476065100">
        <ele>496.70</ele>
        <time>2012-05-27T17:23:58Z</time>
      </trkpt>
      <trkpt lat="41.619724000" lon="2.476008100">
        <ele>497.60</ele>
        <time>2012-05-27T17:24:04Z</time>
      </trkpt>
      <trkpt lat="41.619595000" lon="2.475894100">
        <ele>499.50</ele>
        <time>2012-05-27T17:24:12Z</time>
      </trkpt>
      <trkpt lat="41.619549000" lon="2.475806100">
        <ele>500.00</ele>
        <time>2012-05-27T17:24:16Z</time>
      </trkpt>
      <trkpt lat="41.619621000" lon="2.475760100">
        <ele>501.00</ele>
        <time>2012-05-27T17:24:21Z</time>
      </trkpt>
      <trkpt lat="41.619770000" lon="2.475788100">
        <ele>502.90</ele>
        <time>2012-05-27T17:24:28Z</time>
      </trkpt>
      <trkpt lat="41.619888000" lon="2.475706100">
        <ele>503.90</ele>
        <time>2012-05-27T17:24:33Z</time>
      </trkpt>
      <trkpt lat="41.619953000" lon="2.475443100">
        <ele>505.80</ele>
        <time>2012-05-27T17:24:42Z</time>
      </trkpt>
      <trkpt lat="41.619942000" lon="2.475215100">
        <ele>505.30</ele>
        <time>2012-05-27T17:24:49Z</time>
      </trkpt>
      <trkpt lat="41.619965000" lon="2.474970100">
        <ele>505.30</ele>
        <time>2012-05-27T17:24:54Z</time>
      </trkpt>
      <trkpt lat="41.620056000" lon="2.474797100">
        <ele>505.30</ele>
        <time>2012-05-27T17:24:59Z</time>
      </trkpt>
      <trkpt lat="41.620079000" lon="2.474529100">
        <ele>504.40</ele>
        <time>2012-05-27T17:25:05Z</time>
      </trkpt>
      <trkpt lat="41.620205000" lon="2.474312100">
        <ele>504.40</ele>
        <time>2012-05-27T17:25:10Z</time>
      </trkpt>
      <trkpt lat="41.620335000" lon="2.474151100">
        <ele>504.40</ele>
        <time>2012-05-27T17:25:17Z</time>
      </trkpt>
      <trkpt lat="41.620312000" lon="2.474003100">
        <ele>504.40</ele>
        <time>2012-05-27T17:25:22Z</time>
      </trkpt>
      <trkpt lat="41.620041000" lon="2.473936100">
        <ele>503.40</ele>
        <time>2012-05-27T17:25:31Z</time>
      </trkpt>
      <trkpt lat="41.619938000" lon="2.473909100">
        <ele>502.90</ele>
        <time>2012-05-27T17:25:34Z</time>
      </trkpt>
      <trkpt lat="41.619877000" lon="2.473861100">
        <ele>502.90</ele>
        <time>2012-05-27T17:25:36Z</time>
      </trkpt>
      <trkpt lat="41.619762000" lon="2.473558100">
        <ele>502.00</ele>
        <time>2012-05-27T17:25:41Z</time>
      </trkpt>
      <trkpt lat="41.619633000" lon="2.473431100">
        <ele>501.50</ele>
        <time>2012-05-27T17:25:46Z</time>
      </trkpt>
      <trkpt lat="41.619484000" lon="2.473306100">
        <ele>501.50</ele>
        <time>2012-05-27T17:25:53Z</time>
      </trkpt>
      <trkpt lat="41.619377000" lon="2.473159100">
        <ele>501.50</ele>
        <time>2012-05-27T17:26:00Z</time>
      </trkpt>
      <trkpt lat="41.619312000" lon="2.472977100">
        <ele>502.40</ele>
        <time>2012-05-27T17:26:06Z</time>
      </trkpt>
      <trkpt lat="41.619297000" lon="2.472744100">
        <ele>502.40</ele>
        <time>2012-05-27T17:26:09Z</time>
      </trkpt>
      <trkpt lat="41.619232000" lon="2.472438100">
        <ele>502.40</ele>
        <time>2012-05-27T17:26:16Z</time>
      </trkpt>
      <trkpt lat="41.619156000" lon="2.472179100">
        <ele>502.40</ele>
        <time>2012-05-27T17:26:23Z</time>
      </trkpt>
      <trkpt lat="41.619064000" lon="2.471934100">
        <ele>502.40</ele>
        <time>2012-05-27T17:26:30Z</time>
      </trkpt>
      <trkpt lat="41.619152000" lon="2.471748100">
        <ele>502.40</ele>
        <time>2012-05-27T17:26:35Z</time>
      </trkpt>
      <trkpt lat="41.619251000" lon="2.471625100">
        <ele>501.00</ele>
        <time>2012-05-27T17:26:39Z</time>
      </trkpt>
      <trkpt lat="41.619278000" lon="2.471589100">
        <ele>501.00</ele>
        <time>2012-05-27T17:26:40Z</time>
      </trkpt>
      <trkpt lat="41.619335000" lon="2.471444100">
        <ele>501.00</ele>
        <time>2012-05-27T17:26:42Z</time>
      </trkpt>
      <trkpt lat="41.619362000" lon="2.471212100">
        <ele>500.50</ele>
        <time>2012-05-27T17:26:47Z</time>
      </trkpt>
      <trkpt lat="41.619408000" lon="2.470892100">
        <ele>499.10</ele>
        <time>2012-05-27T17:26:51Z</time>
      </trkpt>
      <trkpt lat="41.619431000" lon="2.470688100">
        <ele>498.60</ele>
        <time>2012-05-27T17:26:56Z</time>
      </trkpt>
      <trkpt lat="41.619316000" lon="2.470600100">
        <ele>498.60</ele>
        <time>2012-05-27T17:27:01Z</time>
      </trkpt>
      <trkpt lat="41.619297000" lon="2.470591100">
        <ele>498.60</ele>
        <time>2012-05-27T17:27:03Z</time>
      </trkpt>
      <trkpt lat="41.619179000" lon="2.470444100">
        <ele>498.60</ele>
        <time>2012-05-27T17:27:10Z</time>
      </trkpt>
      <trkpt lat="41.619152000" lon="2.470105100">
        <ele>500.00</ele>
        <time>2012-05-27T17:27:19Z</time>
      </trkpt>
      <trkpt lat="41.619167000" lon="2.469926100">
        <ele>500.00</ele>
        <time>2012-05-27T17:27:24Z</time>
      </trkpt>
      <trkpt lat="41.619144000" lon="2.469446100">
        <ele>500.00</ele>
        <time>2012-05-27T17:27:31Z</time>
      </trkpt>
      <trkpt lat="41.619205000" lon="2.469100100">
        <ele>499.10</ele>
        <time>2012-05-27T17:27:36Z</time>
      </trkpt>
      <trkpt lat="41.619274000" lon="2.468928100">
        <ele>498.60</ele>
        <time>2012-05-27T17:27:40Z</time>
      </trkpt>
      <trkpt lat="41.619217000" lon="2.468881100">
        <ele>497.60</ele>
        <time>2012-05-27T17:27:45Z</time>
      </trkpt>
      <trkpt lat="41.619160000" lon="2.468942100">
        <ele>496.20</ele>
        <time>2012-05-27T17:27:50Z</time>
      </trkpt>
      <trkpt lat="41.619144000" lon="2.468985100">
        <ele>495.70</ele>
        <time>2012-05-27T17:27:54Z</time>
      </trkpt>
      <trkpt lat="41.619038000" lon="2.469166100">
        <ele>494.70</ele>
        <time>2012-05-27T17:27:59Z</time>
      </trkpt>
      <trkpt lat="41.618938000" lon="2.469404100">
        <ele>493.80</ele>
        <time>2012-05-27T17:28:06Z</time>
      </trkpt>
      <trkpt lat="41.618919000" lon="2.469432100">
        <ele>493.30</ele>
        <time>2012-05-27T17:28:06Z</time>
      </trkpt>
      <trkpt lat="41.618835000" lon="2.469490100">
        <ele>490.40</ele>
        <time>2012-05-27T17:28:11Z</time>
      </trkpt>
      <trkpt lat="41.618752000" lon="2.469455100">
        <ele>486.60</ele>
        <time>2012-05-27T17:28:14Z</time>
      </trkpt>
      <trkpt lat="41.618729000" lon="2.469263100">
        <ele>485.10</ele>
        <time>2012-05-27T17:28:21Z</time>
      </trkpt>
      <trkpt lat="41.618763000" lon="2.469007100">
        <ele>486.10</ele>
        <time>2012-05-27T17:28:28Z</time>
      </trkpt>
      <trkpt lat="41.618713000" lon="2.468780100">
        <ele>486.10</ele>
        <time>2012-05-27T17:28:35Z</time>
      </trkpt>
      <trkpt lat="41.618572000" lon="2.468621100">
        <ele>482.70</ele>
        <time>2012-05-27T17:28:39Z</time>
      </trkpt>
      <trkpt lat="41.618511000" lon="2.468523100">
        <ele>480.30</ele>
        <time>2012-05-27T17:28:41Z</time>
      </trkpt>
      <trkpt lat="41.618462000" lon="2.468409100">
        <ele>477.90</ele>
        <time>2012-05-27T17:28:42Z</time>
      </trkpt>
      <trkpt lat="41.618473000" lon="2.468074100">
        <ele>475.00</ele>
        <time>2012-05-27T17:28:47Z</time>
      </trkpt>
      <trkpt lat="41.618523000" lon="2.467737100">
        <ele>475.50</ele>
        <time>2012-05-27T17:28:53Z</time>
      </trkpt>
      <trkpt lat="41.618481000" lon="2.467470100">
        <ele>476.50</ele>
        <time>2012-05-27T17:29:00Z</time>
      </trkpt>
      <trkpt lat="41.618488000" lon="2.467200100">
        <ele>477.40</ele>
        <time>2012-05-27T17:29:07Z</time>
      </trkpt>
      <trkpt lat="41.618568000" lon="2.466944100">
        <ele>481.30</ele>
        <time>2012-05-27T17:29:14Z</time>
      </trkpt>
      <trkpt lat="41.618633000" lon="2.466826100">
        <ele>484.20</ele>
        <time>2012-05-27T17:29:19Z</time>
      </trkpt>
      <trkpt lat="41.618698000" lon="2.466524100">
        <ele>484.20</ele>
        <time>2012-05-27T17:29:26Z</time>
      </trkpt>
      <trkpt lat="41.618637000" lon="2.466273100">
        <ele>484.20</ele>
        <time>2012-05-27T17:29:33Z</time>
      </trkpt>
      <trkpt lat="41.618584000" lon="2.466031100">
        <ele>484.20</ele>
        <time>2012-05-27T17:29:40Z</time>
      </trkpt>
      <trkpt lat="41.618603000" lon="2.465815100">
        <ele>485.60</ele>
        <time>2012-05-27T17:29:47Z</time>
      </trkpt>
      <trkpt lat="41.618706000" lon="2.465693100">
        <ele>486.60</ele>
        <time>2012-05-27T17:29:54Z</time>
      </trkpt>
      <trkpt lat="41.618835000" lon="2.465496100">
        <ele>488.50</ele>
        <time>2012-05-27T17:30:01Z</time>
      </trkpt>
      <trkpt lat="41.618847000" lon="2.465267100">
        <ele>489.90</ele>
        <time>2012-05-27T17:30:09Z</time>
      </trkpt>
      <trkpt lat="41.618839000" lon="2.465037100">
        <ele>493.80</ele>
        <time>2012-05-27T17:30:16Z</time>
      </trkpt>
      <trkpt lat="41.618832000" lon="2.464909100">
        <ele>497.10</ele>
        <time>2012-05-27T17:30:20Z</time>
      </trkpt>
      <trkpt lat="41.618744000" lon="2.464680100">
        <ele>498.10</ele>
        <time>2012-05-27T17:30:25Z</time>
      </trkpt>
      <trkpt lat="41.618690000" lon="2.464467100">
        <ele>498.10</ele>
        <time>2012-05-27T17:30:30Z</time>
      </trkpt>
      <trkpt lat="41.618675000" lon="2.464352100">
        <ele>496.70</ele>
        <time>2012-05-27T17:30:32Z</time>
      </trkpt>
      <trkpt lat="41.618656000" lon="2.464047100">
        <ele>496.20</ele>
        <time>2012-05-27T17:30:37Z</time>
      </trkpt>
      <trkpt lat="41.618610000" lon="2.463754100">
        <ele>495.70</ele>
        <time>2012-05-27T17:30:44Z</time>
      </trkpt>
      <trkpt lat="41.618584000" lon="2.463704100">
        <ele>495.70</ele>
        <time>2012-05-27T17:30:44Z</time>
      </trkpt>
      <trkpt lat="41.618538000" lon="2.463331100">
        <ele>494.70</ele>
        <time>2012-05-27T17:30:49Z</time>
      </trkpt>
      <trkpt lat="41.618591000" lon="2.463159100">
        <ele>493.30</ele>
        <time>2012-05-27T17:30:51Z</time>
      </trkpt>
      <trkpt lat="41.618652000" lon="2.463008100">
        <ele>491.90</ele>
        <time>2012-05-27T17:30:53Z</time>
      </trkpt>
      <trkpt lat="41.618637000" lon="2.462687100">
        <ele>489.90</ele>
        <time>2012-05-27T17:30:58Z</time>
      </trkpt>
      <trkpt lat="41.618622000" lon="2.462639100">
        <ele>489.90</ele>
        <time>2012-05-27T17:31:00Z</time>
      </trkpt>
      <trkpt lat="41.618553000" lon="2.462358100">
        <ele>489.90</ele>
        <time>2012-05-27T17:31:07Z</time>
      </trkpt>
      <trkpt lat="41.618484000" lon="2.462225100">
        <ele>491.40</ele>
        <time>2012-05-27T17:31:12Z</time>
      </trkpt>
      <trkpt lat="41.618343000" lon="2.462062100">
        <ele>491.90</ele>
        <time>2012-05-27T17:31:19Z</time>
      </trkpt>
      <trkpt lat="41.618221000" lon="2.461884100">
        <ele>492.30</ele>
        <time>2012-05-27T17:31:26Z</time>
      </trkpt>
      <trkpt lat="41.618156000" lon="2.461662100">
        <ele>493.30</ele>
        <time>2012-05-27T17:31:33Z</time>
      </trkpt>
      <trkpt lat="41.618114000" lon="2.461320100">
        <ele>494.70</ele>
        <time>2012-05-27T17:31:43Z</time>
      </trkpt>
      <trkpt lat="41.618137000" lon="2.461031100">
        <ele>495.70</ele>
        <time>2012-05-27T17:31:52Z</time>
      </trkpt>
      <trkpt lat="41.618172000" lon="2.460797100">
        <ele>496.70</ele>
        <time>2012-05-27T17:31:59Z</time>
      </trkpt>
      <trkpt lat="41.618210000" lon="2.460546100">
        <ele>498.10</ele>
        <time>2012-05-27T17:32:06Z</time>
      </trkpt>
      <trkpt lat="41.618240000" lon="2.460283100">
        <ele>499.50</ele>
        <time>2012-05-27T17:32:15Z</time>
      </trkpt>
      <trkpt lat="41.618336000" lon="2.460007100">
        <ele>501.50</ele>
        <time>2012-05-27T17:32:24Z</time>
      </trkpt>
      <trkpt lat="41.618446000" lon="2.459786100">
        <ele>502.90</ele>
        <time>2012-05-27T17:32:32Z</time>
      </trkpt>
      <trkpt lat="41.618603000" lon="2.459355100">
        <ele>504.80</ele>
        <time>2012-05-27T17:32:43Z</time>
      </trkpt>
      <trkpt lat="41.618652000" lon="2.459087100">
        <ele>505.30</ele>
        <time>2012-05-27T17:32:50Z</time>
      </trkpt>
      <trkpt lat="41.618675000" lon="2.458812100">
        <ele>506.80</ele>
        <time>2012-05-27T17:32:58Z</time>
      </trkpt>
      <trkpt lat="41.618595000" lon="2.458514100">
        <ele>508.70</ele>
        <time>2012-05-27T17:33:07Z</time>
      </trkpt>
      <trkpt lat="41.618549000" lon="2.458388100">
        <ele>512.00</ele>
        <time>2012-05-27T17:33:12Z</time>
      </trkpt>
      <trkpt lat="41.618481000" lon="2.458113100">
        <ele>513.50</ele>
        <time>2012-05-27T17:33:19Z</time>
      </trkpt>
      <trkpt lat="41.618473000" lon="2.458040100">
        <ele>513.50</ele>
        <time>2012-05-27T17:33:21Z</time>
      </trkpt>
      <trkpt lat="41.618500000" lon="2.457768100">
        <ele>513.50</ele>
        <time>2012-05-27T17:33:30Z</time>
      </trkpt>
      <trkpt lat="41.618580000" lon="2.457548100">
        <ele>514.90</ele>
        <time>2012-05-27T17:33:37Z</time>
      </trkpt>
      <trkpt lat="41.618698000" lon="2.457320100">
        <ele>516.40</ele>
        <time>2012-05-27T17:33:45Z</time>
      </trkpt>
      <trkpt lat="41.618790000" lon="2.457060100">
        <ele>518.30</ele>
        <time>2012-05-27T17:33:52Z</time>
      </trkpt>
      <trkpt lat="41.618748000" lon="2.456873100">
        <ele>519.20</ele>
        <time>2012-05-27T17:33:59Z</time>
      </trkpt>
      <trkpt lat="41.618565000" lon="2.456736100">
        <ele>520.20</ele>
        <time>2012-05-27T17:34:06Z</time>
      </trkpt>
      <trkpt lat="41.618355000" lon="2.456587100">
        <ele>520.70</ele>
        <time>2012-05-27T17:34:13Z</time>
      </trkpt>
      <trkpt lat="41.618164000" lon="2.456415100">
        <ele>521.70</ele>
        <time>2012-05-27T17:34:22Z</time>
      </trkpt>
      <trkpt lat="41.618107000" lon="2.456383100">
        <ele>521.70</ele>
        <time>2012-05-27T17:34:27Z</time>
      </trkpt>
      <trkpt lat="41.618008000" lon="2.456127100">
        <ele>522.10</ele>
        <time>2012-05-27T17:34:36Z</time>
      </trkpt>
      <trkpt lat="41.617920000" lon="2.455896100">
        <ele>522.60</ele>
        <time>2012-05-27T17:34:43Z</time>
      </trkpt>
      <trkpt lat="41.617867000" lon="2.455601100">
        <ele>523.60</ele>
        <time>2012-05-27T17:34:50Z</time>
      </trkpt>
      <trkpt lat="41.617805000" lon="2.455216100">
        <ele>523.60</ele>
        <time>2012-05-27T17:34:59Z</time>
      </trkpt>
      <trkpt lat="41.617710000" lon="2.454965100">
        <ele>524.10</ele>
        <time>2012-05-27T17:35:04Z</time>
      </trkpt>
      <trkpt lat="41.617622000" lon="2.454774100">
        <ele>524.10</ele>
        <time>2012-05-27T17:35:09Z</time>
      </trkpt>
      <trkpt lat="41.617435000" lon="2.454418100">
        <ele>524.10</ele>
        <time>2012-05-27T17:35:16Z</time>
      </trkpt>
      <trkpt lat="41.617409000" lon="2.454342100">
        <ele>524.10</ele>
        <time>2012-05-27T17:35:16Z</time>
      </trkpt>
      <trkpt lat="41.617165000" lon="2.454040100">
        <ele>522.60</ele>
        <time>2012-05-27T17:35:23Z</time>
      </trkpt>
      <trkpt lat="41.617119000" lon="2.454015100">
        <ele>523.10</ele>
        <time>2012-05-27T17:35:23Z</time>
      </trkpt>
      <trkpt lat="41.616985000" lon="2.453965100">
        <ele>522.60</ele>
        <time>2012-05-27T17:35:26Z</time>
      </trkpt>
      <trkpt lat="41.616768000" lon="2.453812100">
        <ele>522.60</ele>
        <time>2012-05-27T17:35:33Z</time>
      </trkpt>
      <trkpt lat="41.616661000" lon="2.453580100">
        <ele>522.60</ele>
        <time>2012-05-27T17:35:39Z</time>
      </trkpt>
      <trkpt lat="41.616493000" lon="2.453329100">
        <ele>525.00</ele>
        <time>2012-05-27T17:35:47Z</time>
      </trkpt>
      <trkpt lat="41.616352000" lon="2.453251100">
        <ele>528.90</ele>
        <time>2012-05-27T17:35:51Z</time>
      </trkpt>
      <trkpt lat="41.616138000" lon="2.453123100">
        <ele>529.30</ele>
        <time>2012-05-27T17:35:58Z</time>
      </trkpt>
      <trkpt lat="41.616001000" lon="2.453015100">
        <ele>529.30</ele>
        <time>2012-05-27T17:36:03Z</time>
      </trkpt>
      <trkpt lat="41.615803000" lon="2.452830100">
        <ele>528.40</ele>
        <time>2012-05-27T17:36:10Z</time>
      </trkpt>
      <trkpt lat="41.615700000" lon="2.452629100">
        <ele>528.40</ele>
        <time>2012-05-27T17:36:15Z</time>
      </trkpt>
      <trkpt lat="41.615643000" lon="2.452332100">
        <ele>527.90</ele>
        <time>2012-05-27T17:36:22Z</time>
      </trkpt>
      <trkpt lat="41.615669000" lon="2.452111100">
        <ele>527.90</ele>
        <time>2012-05-27T17:36:26Z</time>
      </trkpt>
      <trkpt lat="41.615849000" lon="2.451944100">
        <ele>526.90</ele>
        <time>2012-05-27T17:36:31Z</time>
      </trkpt>
      <trkpt lat="41.615894000" lon="2.451920100">
        <ele>526.90</ele>
        <time>2012-05-27T17:36:33Z</time>
      </trkpt>
      <trkpt lat="41.616112000" lon="2.451759100">
        <ele>523.10</ele>
        <time>2012-05-27T17:36:38Z</time>
      </trkpt>
      <trkpt lat="41.616180000" lon="2.451638100">
        <ele>519.70</ele>
        <time>2012-05-27T17:36:41Z</time>
      </trkpt>
      <trkpt lat="41.616276000" lon="2.451357100">
        <ele>514.40</ele>
        <time>2012-05-27T17:36:45Z</time>
      </trkpt>
      <trkpt lat="41.616310000" lon="2.451187100">
        <ele>512.50</ele>
        <time>2012-05-27T17:36:48Z</time>
      </trkpt>
      <trkpt lat="41.616386000" lon="2.450843100">
        <ele>510.60</ele>
        <time>2012-05-27T17:36:52Z</time>
      </trkpt>
      <trkpt lat="41.616558000" lon="2.450628100">
        <ele>510.10</ele>
        <time>2012-05-27T17:36:57Z</time>
      </trkpt>
      <trkpt lat="41.616611000" lon="2.450405100">
        <ele>510.10</ele>
        <time>2012-05-27T17:37:00Z</time>
      </trkpt>
      <trkpt lat="41.616596000" lon="2.450345100">
        <ele>510.10</ele>
        <time>2012-05-27T17:37:02Z</time>
      </trkpt>
      <trkpt lat="41.616566000" lon="2.450036100">
        <ele>506.80</ele>
        <time>2012-05-27T17:37:06Z</time>
      </trkpt>
      <trkpt lat="41.616611000" lon="2.449962100">
        <ele>503.40</ele>
        <time>2012-05-27T17:37:09Z</time>
      </trkpt>
      <trkpt lat="41.616680000" lon="2.449929100">
        <ele>500.00</ele>
        <time>2012-05-27T17:37:11Z</time>
      </trkpt>
      <trkpt lat="41.616749000" lon="2.449850100">
        <ele>497.60</ele>
        <time>2012-05-27T17:37:13Z</time>
      </trkpt>
      <trkpt lat="41.616863000" lon="2.449679100">
        <ele>497.10</ele>
        <time>2012-05-27T17:37:16Z</time>
      </trkpt>
      <trkpt lat="41.616955000" lon="2.449463100">
        <ele>496.70</ele>
        <time>2012-05-27T17:37:18Z</time>
      </trkpt>
      <trkpt lat="41.617023000" lon="2.449221100">
        <ele>496.70</ele>
        <time>2012-05-27T17:37:21Z</time>
      </trkpt>
      <trkpt lat="41.617172000" lon="2.448894100">
        <ele>496.70</ele>
        <time>2012-05-27T17:37:27Z</time>
      </trkpt>
      <trkpt lat="41.617245000" lon="2.448405100">
        <ele>494.30</ele>
        <time>2012-05-27T17:37:32Z</time>
      </trkpt>
      <trkpt lat="41.617298000" lon="2.448099100">
        <ele>489.00</ele>
        <time>2012-05-27T17:37:37Z</time>
      </trkpt>
      <trkpt lat="41.617325000" lon="2.448012100">
        <ele>487.50</ele>
        <time>2012-05-27T17:37:37Z</time>
      </trkpt>
      <trkpt lat="41.617397000" lon="2.447695100">
        <ele>482.70</ele>
        <time>2012-05-27T17:37:42Z</time>
      </trkpt>
      <trkpt lat="41.617413000" lon="2.447463100">
        <ele>479.40</ele>
        <time>2012-05-27T17:37:44Z</time>
      </trkpt>
      <trkpt lat="41.617416000" lon="2.447216100">
        <ele>477.90</ele>
        <time>2012-05-27T17:37:48Z</time>
      </trkpt>
      <trkpt lat="41.617424000" lon="2.447139100">
        <ele>478.90</ele>
        <time>2012-05-27T17:37:49Z</time>
      </trkpt>
      <trkpt lat="41.617565000" lon="2.446791100">
        <ele>478.40</ele>
        <time>2012-05-27T17:37:54Z</time>
      </trkpt>
      <trkpt lat="41.617615000" lon="2.446673100">
        <ele>478.40</ele>
        <time>2012-05-27T17:37:56Z</time>
      </trkpt>
      <trkpt lat="41.617657000" lon="2.446542100">
        <ele>479.40</ele>
        <time>2012-05-27T17:37:58Z</time>
      </trkpt>
      <trkpt lat="41.617844000" lon="2.446287100">
        <ele>479.40</ele>
        <time>2012-05-27T17:38:03Z</time>
      </trkpt>
      <trkpt lat="41.617950000" lon="2.446108100">
        <ele>479.40</ele>
        <time>2012-05-27T17:38:07Z</time>
      </trkpt>
      <trkpt lat="41.618038000" lon="2.446009100">
        <ele>477.40</ele>
        <time>2012-05-27T17:38:08Z</time>
      </trkpt>
      <trkpt lat="41.618137000" lon="2.445889100">
        <ele>477.40</ele>
        <time>2012-05-27T17:38:10Z</time>
      </trkpt>
      <trkpt lat="41.618290000" lon="2.445572100">
        <ele>472.60</ele>
        <time>2012-05-27T17:38:14Z</time>
      </trkpt>
      <trkpt lat="41.618351000" lon="2.445297100">
        <ele>468.80</ele>
        <time>2012-05-27T17:38:17Z</time>
      </trkpt>
      <trkpt lat="41.618404000" lon="2.445045100">
        <ele>465.90</ele>
        <time>2012-05-27T17:38:21Z</time>
      </trkpt>
      <trkpt lat="41.618423000" lon="2.444715100">
        <ele>464.90</ele>
        <time>2012-05-27T17:38:24Z</time>
      </trkpt>
      <trkpt lat="41.618530000" lon="2.444354100">
        <ele>463.50</ele>
        <time>2012-05-27T17:38:31Z</time>
      </trkpt>
      <trkpt lat="41.618622000" lon="2.444401100">
        <ele>461.60</ele>
        <time>2012-05-27T17:38:35Z</time>
      </trkpt>
      <trkpt lat="41.618668000" lon="2.444502100">
        <ele>460.60</ele>
        <time>2012-05-27T17:38:36Z</time>
      </trkpt>
      <trkpt lat="41.618759000" lon="2.444834100">
        <ele>458.20</ele>
        <time>2012-05-27T17:38:42Z</time>
      </trkpt>
      <trkpt lat="41.618824000" lon="2.445135100">
        <ele>455.80</ele>
        <time>2012-05-27T17:38:45Z</time>
      </trkpt>
      <trkpt lat="41.618793000" lon="2.445486100">
        <ele>454.40</ele>
        <time>2012-05-27T17:38:50Z</time>
      </trkpt>
      <trkpt lat="41.618816000" lon="2.445651100">
        <ele>453.90</ele>
        <time>2012-05-27T17:38:54Z</time>
      </trkpt>
      <trkpt lat="41.618851000" lon="2.445688100">
        <ele>453.90</ele>
        <time>2012-05-27T17:38:54Z</time>
      </trkpt>
      <trkpt lat="41.619076000" lon="2.445822100">
        <ele>453.90</ele>
        <time>2012-05-27T17:39:01Z</time>
      </trkpt>
      <trkpt lat="41.619301000" lon="2.445890100">
        <ele>453.90</ele>
        <time>2012-05-27T17:39:11Z</time>
      </trkpt>
      <trkpt lat="41.619473000" lon="2.445938100">
        <ele>454.80</ele>
        <time>2012-05-27T17:39:18Z</time>
      </trkpt>
      <trkpt lat="41.619564000" lon="2.445960100">
        <ele>455.30</ele>
        <time>2012-05-27T17:39:22Z</time>
      </trkpt>
      <trkpt lat="41.619675000" lon="2.445825100">
        <ele>456.80</ele>
        <time>2012-05-27T17:39:30Z</time>
      </trkpt>
      <trkpt lat="41.619728000" lon="2.445789100">
        <ele>458.20</ele>
        <time>2012-05-27T17:39:34Z</time>
      </trkpt>
      <trkpt lat="41.619740000" lon="2.445906100">
        <ele>459.20</ele>
        <time>2012-05-27T17:39:39Z</time>
      </trkpt>
      <trkpt lat="41.619736000" lon="2.446120100">
        <ele>460.10</ele>
        <time>2012-05-27T17:39:48Z</time>
      </trkpt>
      <trkpt lat="41.619839000" lon="2.446229100">
        <ele>461.10</ele>
        <time>2012-05-27T17:39:55Z</time>
      </trkpt>
      <trkpt lat="41.619877000" lon="2.446241100">
        <ele>461.10</ele>
        <time>2012-05-27T17:39:56Z</time>
      </trkpt>
      <trkpt lat="41.619911000" lon="2.446244100">
        <ele>461.60</ele>
        <time>2012-05-27T17:39:58Z</time>
      </trkpt>
      <trkpt lat="41.619987000" lon="2.446118100">
        <ele>463.00</ele>
        <time>2012-05-27T17:40:05Z</time>
      </trkpt>
      <trkpt lat="41.620007000" lon="2.446019100">
        <ele>463.00</ele>
        <time>2012-05-27T17:40:10Z</time>
      </trkpt>
      <trkpt lat="41.620003000" lon="2.445937100">
        <ele>464.00</ele>
        <time>2012-05-27T17:40:17Z</time>
      </trkpt>
      <trkpt lat="41.620003000" lon="2.445937100">
        <ele>464.00</ele>
        <time>2012-05-27T17:40:45Z</time>
      </trkpt>
      <trkpt lat="41.620007000" lon="2.445933100">
        <ele>464.90</ele>
        <time>2012-05-27T17:41:43Z</time>
      </trkpt>
      <trkpt lat="41.619965000" lon="2.445758100">
        <ele>464.90</ele>
        <time>2012-05-27T17:42:24Z</time>
      </trkpt>
      <trkpt lat="41.619972000" lon="2.445524100">
        <ele>465.40</ele>
        <time>2012-05-27T17:42:31Z</time>
      </trkpt>
      <trkpt lat="41.620136000" lon="2.445306100">
        <ele>465.40</ele>
        <time>2012-05-27T17:42:38Z</time>
      </trkpt>
      <trkpt lat="41.620201000" lon="2.445129100">
        <ele>465.40</ele>
        <time>2012-05-27T17:42:42Z</time>
      </trkpt>
      <trkpt lat="41.620274000" lon="2.445101100">
        <ele>465.40</ele>
        <time>2012-05-27T17:42:47Z</time>
      </trkpt>
      <trkpt lat="41.620308000" lon="2.445120100">
        <ele>465.40</ele>
        <time>2012-05-27T17:42:49Z</time>
      </trkpt>
      <trkpt lat="41.620445000" lon="2.445201100">
        <ele>466.40</ele>
        <time>2012-05-27T17:42:59Z</time>
      </trkpt>
      <trkpt lat="41.620518000" lon="2.445183100">
        <ele>467.80</ele>
        <time>2012-05-27T17:43:05Z</time>
      </trkpt>
      <trkpt lat="41.620625000" lon="2.445125100">
        <ele>469.30</ele>
        <time>2012-05-27T17:43:13Z</time>
      </trkpt>
      <trkpt lat="41.620731000" lon="2.445072100">
        <ele>470.20</ele>
        <time>2012-05-27T17:43:20Z</time>
      </trkpt>
      <trkpt lat="41.620838000" lon="2.445007100">
        <ele>471.20</ele>
        <time>2012-05-27T17:43:27Z</time>
      </trkpt>
      <trkpt lat="41.620968000" lon="2.444918100">
        <ele>471.20</ele>
        <time>2012-05-27T17:43:32Z</time>
      </trkpt>
      <trkpt lat="41.621075000" lon="2.444875100">
        <ele>469.70</ele>
        <time>2012-05-27T17:43:36Z</time>
      </trkpt>
      <trkpt lat="41.621204000" lon="2.444800100">
        <ele>469.30</ele>
        <time>2012-05-27T17:43:39Z</time>
      </trkpt>
      <trkpt lat="41.621468000" lon="2.444783100">
        <ele>464.00</ele>
        <time>2012-05-27T17:43:45Z</time>
      </trkpt>
      <trkpt lat="41.621544000" lon="2.444798100">
        <ele>462.00</ele>
        <time>2012-05-27T17:43:46Z</time>
      </trkpt>
      <trkpt lat="41.621616000" lon="2.444853100">
        <ele>460.60</ele>
        <time>2012-05-27T17:43:48Z</time>
      </trkpt>
      <trkpt lat="41.621651000" lon="2.444885100">
        <ele>459.60</ele>
        <time>2012-05-27T17:43:50Z</time>
      </trkpt>
      <trkpt lat="41.621799000" lon="2.445143100">
        <ele>458.70</ele>
        <time>2012-05-27T17:43:55Z</time>
      </trkpt>
      <trkpt lat="41.621845000" lon="2.445226100">
        <ele>458.70</ele>
        <time>2012-05-27T17:43:57Z</time>
      </trkpt>
      <trkpt lat="41.621956000" lon="2.445610100">
        <ele>458.20</ele>
        <time>2012-05-27T17:44:04Z</time>
      </trkpt>
      <trkpt lat="41.622097000" lon="2.445797100">
        <ele>455.30</ele>
        <time>2012-05-27T17:44:09Z</time>
      </trkpt>
      <trkpt lat="41.622124000" lon="2.445743100">
        <ele>452.40</ele>
        <time>2012-05-27T17:44:12Z</time>
      </trkpt>
      <trkpt lat="41.622147000" lon="2.445695100">
        <ele>450.50</ele>
        <time>2012-05-27T17:44:14Z</time>
      </trkpt>
      <trkpt lat="41.622257000" lon="2.445677100">
        <ele>449.50</ele>
        <time>2012-05-27T17:44:19Z</time>
      </trkpt>
      <trkpt lat="41.622299000" lon="2.445729100">
        <ele>449.50</ele>
        <time>2012-05-27T17:44:21Z</time>
      </trkpt>
      <trkpt lat="41.622509000" lon="2.446033100">
        <ele>449.50</ele>
        <time>2012-05-27T17:44:30Z</time>
      </trkpt>
      <trkpt lat="41.622761000" lon="2.446272100">
        <ele>449.50</ele>
        <time>2012-05-27T17:44:37Z</time>
      </trkpt>
      <trkpt lat="41.622978000" lon="2.446263100">
        <ele>449.10</ele>
        <time>2012-05-27T17:44:44Z</time>
      </trkpt>
      <trkpt lat="41.623081000" lon="2.446163100">
        <ele>448.60</ele>
        <time>2012-05-27T17:44:49Z</time>
      </trkpt>
      <trkpt lat="41.623116000" lon="2.445932100">
        <ele>448.60</ele>
        <time>2012-05-27T17:44:54Z</time>
      </trkpt>
      <trkpt lat="41.623150000" lon="2.445633100">
        <ele>448.60</ele>
        <time>2012-05-27T17:45:01Z</time>
      </trkpt>
      <trkpt lat="41.623169000" lon="2.445498100">
        <ele>448.10</ele>
        <time>2012-05-27T17:45:03Z</time>
      </trkpt>
      <trkpt lat="41.623234000" lon="2.445518100">
        <ele>447.60</ele>
        <time>2012-05-27T17:45:08Z</time>
      </trkpt>
      <trkpt lat="41.623253000" lon="2.445686100">
        <ele>447.10</ele>
        <time>2012-05-27T17:45:12Z</time>
      </trkpt>
      <trkpt lat="41.623344000" lon="2.445918100">
        <ele>445.70</ele>
        <time>2012-05-27T17:45:15Z</time>
      </trkpt>
      <trkpt lat="41.623432000" lon="2.446207100">
        <ele>442.80</ele>
        <time>2012-05-27T17:45:22Z</time>
      </trkpt>
      <trkpt lat="41.623455000" lon="2.446242100">
        <ele>441.40</ele>
        <time>2012-05-27T17:45:22Z</time>
      </trkpt>
      <trkpt lat="41.623539000" lon="2.446363100">
        <ele>438.00</ele>
        <time>2012-05-27T17:45:26Z</time>
      </trkpt>
      <trkpt lat="41.623749000" lon="2.446496100">
        <ele>433.70</ele>
        <time>2012-05-27T17:45:31Z</time>
      </trkpt>
      <trkpt lat="41.623898000" lon="2.446650100">
        <ele>433.70</ele>
        <time>2012-05-27T17:45:34Z</time>
      </trkpt>
      <trkpt lat="41.623932000" lon="2.446752100">
        <ele>433.70</ele>
        <time>2012-05-27T17:45:36Z</time>
      </trkpt>
      <trkpt lat="41.624142000" lon="2.447038100">
        <ele>433.70</ele>
        <time>2012-05-27T17:45:43Z</time>
      </trkpt>
      <trkpt lat="41.624397000" lon="2.447144100">
        <ele>433.20</ele>
        <time>2012-05-27T17:45:48Z</time>
      </trkpt>
      <trkpt lat="41.624439000" lon="2.447072100">
        <ele>432.70</ele>
        <time>2012-05-27T17:45:50Z</time>
      </trkpt>
      <trkpt lat="41.624527000" lon="2.446921100">
        <ele>430.80</ele>
        <time>2012-05-27T17:45:57Z</time>
      </trkpt>
      <trkpt lat="41.624611000" lon="2.446749100">
        <ele>430.30</ele>
        <time>2012-05-27T17:46:04Z</time>
      </trkpt>
      <trkpt lat="41.624699000" lon="2.446600100">
        <ele>429.90</ele>
        <time>2012-05-27T17:46:07Z</time>
      </trkpt>
      <trkpt lat="41.624702000" lon="2.446486100">
        <ele>428.40</ele>
        <time>2012-05-27T17:46:13Z</time>
      </trkpt>
      <trkpt lat="41.624695000" lon="2.446467100">
        <ele>428.90</ele>
        <time>2012-05-27T17:46:13Z</time>
      </trkpt>
      <trkpt lat="41.624588000" lon="2.446339100">
        <ele>427.40</ele>
        <time>2012-05-27T17:46:20Z</time>
      </trkpt>
      <trkpt lat="41.624569000" lon="2.446279100">
        <ele>427.00</ele>
        <time>2012-05-27T17:46:21Z</time>
      </trkpt>
      <trkpt lat="41.624573000" lon="2.445962100">
        <ele>425.50</ele>
        <time>2012-05-27T17:46:28Z</time>
      </trkpt>
      <trkpt lat="41.624577000" lon="2.445671100">
        <ele>421.70</ele>
        <time>2012-05-27T17:46:35Z</time>
      </trkpt>
      <trkpt lat="41.624565000" lon="2.445478100">
        <ele>420.20</ele>
        <time>2012-05-27T17:46:41Z</time>
      </trkpt>
      <trkpt lat="41.624577000" lon="2.445342100">
        <ele>420.20</ele>
        <time>2012-05-27T17:46:46Z</time>
      </trkpt>
      <trkpt lat="41.624603000" lon="2.445143100">
        <ele>420.20</ele>
        <time>2012-05-27T17:46:51Z</time>
      </trkpt>
      <trkpt lat="41.624607000" lon="2.445015100">
        <ele>419.80</ele>
        <time>2012-05-27T17:46:58Z</time>
      </trkpt>
      <trkpt lat="41.624706000" lon="2.444758100">
        <ele>419.30</ele>
        <time>2012-05-27T17:47:05Z</time>
      </trkpt>
      <trkpt lat="41.624790000" lon="2.444593100">
        <ele>417.80</ele>
        <time>2012-05-27T17:47:10Z</time>
      </trkpt>
      <trkpt lat="41.624836000" lon="2.444388100">
        <ele>414.50</ele>
        <time>2012-05-27T17:47:14Z</time>
      </trkpt>
      <trkpt lat="41.624886000" lon="2.444160100">
        <ele>412.10</ele>
        <time>2012-05-27T17:47:19Z</time>
      </trkpt>
      <trkpt lat="41.625027000" lon="2.443910100">
        <ele>411.60</ele>
        <time>2012-05-27T17:47:26Z</time>
      </trkpt>
      <trkpt lat="41.625271000" lon="2.443691100">
        <ele>411.60</ele>
        <time>2012-05-27T17:47:33Z</time>
      </trkpt>
      <trkpt lat="41.625492000" lon="2.443617100">
        <ele>411.60</ele>
        <time>2012-05-27T17:47:38Z</time>
      </trkpt>
      <trkpt lat="41.625687000" lon="2.443483100">
        <ele>411.10</ele>
        <time>2012-05-27T17:47:43Z</time>
      </trkpt>
      <trkpt lat="41.625805000" lon="2.443262100">
        <ele>410.10</ele>
        <time>2012-05-27T17:47:48Z</time>
      </trkpt>
      <trkpt lat="41.625973000" lon="2.443026100">
        <ele>405.80</ele>
        <time>2012-05-27T17:47:54Z</time>
      </trkpt>
      <trkpt lat="41.626091000" lon="2.442951100">
        <ele>402.00</ele>
        <time>2012-05-27T17:47:57Z</time>
      </trkpt>
      <trkpt lat="41.626129000" lon="2.442956100">
        <ele>401.00</ele>
        <time>2012-05-27T17:47:57Z</time>
      </trkpt>
      <trkpt lat="41.626263000" lon="2.442935100">
        <ele>398.10</ele>
        <time>2012-05-27T17:48:01Z</time>
      </trkpt>
      <trkpt lat="41.626316000" lon="2.442837100">
        <ele>399.10</ele>
        <time>2012-05-27T17:48:06Z</time>
      </trkpt>
      <trkpt lat="41.626324000" lon="2.442817100">
        <ele>399.10</ele>
        <time>2012-05-27T17:48:06Z</time>
      </trkpt>
      <trkpt lat="41.626289000" lon="2.442601100">
        <ele>399.10</ele>
        <time>2012-05-27T17:48:13Z</time>
      </trkpt>
      <trkpt lat="41.626324000" lon="2.442479100">
        <ele>399.10</ele>
        <time>2012-05-27T17:48:16Z</time>
      </trkpt>
      <trkpt lat="41.626312000" lon="2.442359100">
        <ele>399.10</ele>
        <time>2012-05-27T17:48:20Z</time>
      </trkpt>
      <trkpt lat="41.626366000" lon="2.442205100">
        <ele>398.60</ele>
        <time>2012-05-27T17:48:27Z</time>
      </trkpt>
      <trkpt lat="41.626427000" lon="2.442134100">
        <ele>397.60</ele>
        <time>2012-05-27T17:48:30Z</time>
      </trkpt>
      <trkpt lat="41.626392000" lon="2.442073100">
        <ele>397.20</ele>
        <time>2012-05-27T17:48:34Z</time>
      </trkpt>
      <trkpt lat="41.626335000" lon="2.441966100">
        <ele>395.70</ele>
        <time>2012-05-27T17:48:39Z</time>
      </trkpt>
      <trkpt lat="41.626312000" lon="2.441853100">
        <ele>391.90</ele>
        <time>2012-05-27T17:48:44Z</time>
      </trkpt>
      <trkpt lat="41.626312000" lon="2.441853100">
        <ele>391.90</ele>
        <time>2012-05-27T17:48:46Z</time>
      </trkpt>
      <trkpt lat="41.626316000" lon="2.441837100">
        <ele>390.40</ele>
        <time>2012-05-27T17:48:53Z</time>
      </trkpt>
      <trkpt lat="41.626320000" lon="2.441810100">
        <ele>391.40</ele>
        <time>2012-05-27T17:49:02Z</time>
      </trkpt>
      <trkpt lat="41.626339000" lon="2.441764100">
        <ele>391.40</ele>
        <time>2012-05-27T17:49:10Z</time>
      </trkpt>
      <trkpt lat="41.626339000" lon="2.441762100">
        <ele>391.40</ele>
        <time>2012-05-27T17:49:19Z</time>
      </trkpt>
      <trkpt lat="41.626339000" lon="2.441762100">
        <ele>391.40</ele>
        <time>2012-05-27T17:49:26Z</time>
      </trkpt>
      <trkpt lat="41.626369000" lon="2.441630100">
        <ele>392.40</ele>
        <time>2012-05-27T17:49:33Z</time>
      </trkpt>
      <trkpt lat="41.626385000" lon="2.441503100">
        <ele>392.80</ele>
        <time>2012-05-27T17:49:38Z</time>
      </trkpt>
      <trkpt lat="41.626392000" lon="2.441315100">
        <ele>393.30</ele>
        <time>2012-05-27T17:49:47Z</time>
      </trkpt>
      <trkpt lat="41.626419000" lon="2.441148100">
        <ele>394.30</ele>
        <time>2012-05-27T17:49:54Z</time>
      </trkpt>
      <trkpt lat="41.626453000" lon="2.441061100">
        <ele>395.20</ele>
        <time>2012-05-27T17:50:03Z</time>
      </trkpt>
      <trkpt lat="41.626411000" lon="2.441188100">
        <ele>395.70</ele>
        <time>2012-05-27T17:50:17Z</time>
      </trkpt>
      <trkpt lat="41.626396000" lon="2.441392100">
        <ele>395.70</ele>
        <time>2012-05-27T17:50:22Z</time>
      </trkpt>
      <trkpt lat="41.626457000" lon="2.441407100">
        <ele>394.80</ele>
        <time>2012-05-27T17:50:27Z</time>
      </trkpt>
      <trkpt lat="41.626469000" lon="2.441377100">
        <ele>394.30</ele>
        <time>2012-05-27T17:50:27Z</time>
      </trkpt>
      <trkpt lat="41.626595000" lon="2.441107100">
        <ele>393.80</ele>
        <time>2012-05-27T17:50:34Z</time>
      </trkpt>
      <trkpt lat="41.626640000" lon="2.441021100">
        <ele>393.30</ele>
        <time>2012-05-27T17:50:36Z</time>
      </trkpt>
      <trkpt lat="41.626896000" lon="2.440771100">
        <ele>392.40</ele>
        <time>2012-05-27T17:50:44Z</time>
      </trkpt>
      <trkpt lat="41.626965000" lon="2.440567100">
        <ele>391.90</ele>
        <time>2012-05-27T17:50:50Z</time>
      </trkpt>
      <trkpt lat="41.626945000" lon="2.440263100">
        <ele>391.40</ele>
        <time>2012-05-27T17:50:58Z</time>
      </trkpt>
      <trkpt lat="41.626942000" lon="2.440202100">
        <ele>391.40</ele>
        <time>2012-05-27T17:50:58Z</time>
      </trkpt>
      <trkpt lat="41.626972000" lon="2.439910100">
        <ele>388.50</ele>
        <time>2012-05-27T17:51:04Z</time>
      </trkpt>
      <trkpt lat="41.627010000" lon="2.439792100">
        <ele>384.20</ele>
        <time>2012-05-27T17:51:07Z</time>
      </trkpt>
      <trkpt lat="41.627060000" lon="2.439735100">
        <ele>382.30</ele>
        <time>2012-05-27T17:51:09Z</time>
      </trkpt>
      <trkpt lat="41.627129000" lon="2.439659100">
        <ele>381.30</ele>
        <time>2012-05-27T17:51:12Z</time>
      </trkpt>
      <trkpt lat="41.627247000" lon="2.439488100">
        <ele>380.30</ele>
        <time>2012-05-27T17:51:14Z</time>
      </trkpt>
      <trkpt lat="41.627308000" lon="2.439257100">
        <ele>379.40</ele>
        <time>2012-05-27T17:51:19Z</time>
      </trkpt>
      <trkpt lat="41.627380000" lon="2.439006100">
        <ele>375.00</ele>
        <time>2012-05-27T17:51:23Z</time>
      </trkpt>
      <trkpt lat="41.627338000" lon="2.438858100">
        <ele>370.70</ele>
        <time>2012-05-27T17:51:28Z</time>
      </trkpt>
      <trkpt lat="41.627274000" lon="2.438816100">
        <ele>369.30</ele>
        <time>2012-05-27T17:51:30Z</time>
      </trkpt>
      <trkpt lat="41.627003000" lon="2.438928100">
        <ele>367.80</ele>
        <time>2012-05-27T17:51:35Z</time>
      </trkpt>
      <trkpt lat="41.626919000" lon="2.438978100">
        <ele>367.80</ele>
        <time>2012-05-27T17:51:37Z</time>
      </trkpt>
      <trkpt lat="41.626831000" lon="2.438865100">
        <ele>367.80</ele>
        <time>2012-05-27T17:51:42Z</time>
      </trkpt>
      <trkpt lat="41.626804000" lon="2.438715100">
        <ele>367.40</ele>
        <time>2012-05-27T17:51:45Z</time>
      </trkpt>
      <trkpt lat="41.626595000" lon="2.438514100">
        <ele>365.00</ele>
        <time>2012-05-27T17:51:51Z</time>
      </trkpt>
      <trkpt lat="41.626507000" lon="2.438432100">
        <ele>362.10</ele>
        <time>2012-05-27T17:51:54Z</time>
      </trkpt>
      <trkpt lat="41.626545000" lon="2.438337100">
        <ele>359.70</ele>
        <time>2012-05-27T17:51:58Z</time>
      </trkpt>
      <trkpt lat="41.626621000" lon="2.438295100">
        <ele>359.70</ele>
        <time>2012-05-27T17:52:01Z</time>
      </trkpt>
      <trkpt lat="41.626785000" lon="2.438139100">
        <ele>363.00</ele>
        <time>2012-05-27T17:52:06Z</time>
      </trkpt>
      <trkpt lat="41.626915000" lon="2.437970100">
        <ele>362.50</ele>
        <time>2012-05-27T17:52:11Z</time>
      </trkpt>
      <trkpt lat="41.627014000" lon="2.437910100">
        <ele>359.70</ele>
        <time>2012-05-27T17:52:15Z</time>
      </trkpt>
      <trkpt lat="41.627110000" lon="2.437855100">
        <ele>355.30</ele>
        <time>2012-05-27T17:52:18Z</time>
      </trkpt>
      <trkpt lat="41.627186000" lon="2.437817100">
        <ele>351.50</ele>
        <time>2012-05-27T17:52:22Z</time>
      </trkpt>
      <trkpt lat="41.627220000" lon="2.437780100">
        <ele>350.50</ele>
        <time>2012-05-27T17:52:24Z</time>
      </trkpt>
      <trkpt lat="41.627258000" lon="2.437731100">
        <ele>348.60</ele>
        <time>2012-05-27T17:52:29Z</time>
      </trkpt>
      <trkpt lat="41.627144000" lon="2.437673100">
        <ele>350.10</ele>
        <time>2012-05-27T17:52:38Z</time>
      </trkpt>
      <trkpt lat="41.627148000" lon="2.437504100">
        <ele>350.10</ele>
        <time>2012-05-27T17:52:43Z</time>
      </trkpt>
      <trkpt lat="41.627228000" lon="2.437282100">
        <ele>351.00</ele>
        <time>2012-05-27T17:52:50Z</time>
      </trkpt>
      <trkpt lat="41.627331000" lon="2.437149100">
        <ele>351.50</ele>
        <time>2012-05-27T17:52:55Z</time>
      </trkpt>
      <trkpt lat="41.627396000" lon="2.436954100">
        <ele>352.50</ele>
        <time>2012-05-27T17:53:00Z</time>
      </trkpt>
      <trkpt lat="41.627491000" lon="2.436893100">
        <ele>352.50</ele>
        <time>2012-05-27T17:53:02Z</time>
      </trkpt>
      <trkpt lat="41.627590000" lon="2.436741100">
        <ele>352.50</ele>
        <time>2012-05-27T17:53:07Z</time>
      </trkpt>
      <trkpt lat="41.627728000" lon="2.436486100">
        <ele>352.50</ele>
        <time>2012-05-27T17:53:12Z</time>
      </trkpt>
      <trkpt lat="41.627750000" lon="2.436436100">
        <ele>352.50</ele>
        <time>2012-05-27T17:53:14Z</time>
      </trkpt>
      <trkpt lat="41.627956000" lon="2.436181100">
        <ele>352.50</ele>
        <time>2012-05-27T17:53:21Z</time>
      </trkpt>
      <trkpt lat="41.627987000" lon="2.436087100">
        <ele>352.50</ele>
        <time>2012-05-27T17:53:23Z</time>
      </trkpt>
      <trkpt lat="41.628006000" lon="2.435860100">
        <ele>352.50</ele>
        <time>2012-05-27T17:53:26Z</time>
      </trkpt>
      <trkpt lat="41.628040000" lon="2.435571100">
        <ele>352.50</ele>
        <time>2012-05-27T17:53:33Z</time>
      </trkpt>
      <trkpt lat="41.628033000" lon="2.435386100">
        <ele>351.00</ele>
        <time>2012-05-27T17:53:37Z</time>
      </trkpt>
      <trkpt lat="41.628143000" lon="2.435249100">
        <ele>351.00</ele>
        <time>2012-05-27T17:53:42Z</time>
      </trkpt>
      <trkpt lat="41.628319000" lon="2.435207100">
        <ele>351.00</ele>
        <time>2012-05-27T17:53:47Z</time>
      </trkpt>
      <trkpt lat="41.628460000" lon="2.434985100">
        <ele>350.10</ele>
        <time>2012-05-27T17:53:53Z</time>
      </trkpt>
      <trkpt lat="41.628441000" lon="2.434657100">
        <ele>349.10</ele>
        <time>2012-05-27T17:53:58Z</time>
      </trkpt>
      <trkpt lat="41.628433000" lon="2.434430100">
        <ele>346.70</ele>
        <time>2012-05-27T17:54:01Z</time>
      </trkpt>
      <trkpt lat="41.628601000" lon="2.434352100">
        <ele>343.80</ele>
        <time>2012-05-27T17:54:05Z</time>
      </trkpt>
      <trkpt lat="41.628677000" lon="2.434322100">
        <ele>343.80</ele>
        <time>2012-05-27T17:54:08Z</time>
      </trkpt>
      <trkpt lat="41.628803000" lon="2.434238100">
        <ele>343.30</ele>
        <time>2012-05-27T17:54:12Z</time>
      </trkpt>
      <trkpt lat="41.628902000" lon="2.434042100">
        <ele>343.30</ele>
        <time>2012-05-27T17:54:15Z</time>
      </trkpt>
      <trkpt lat="41.629002000" lon="2.433693100">
        <ele>344.30</ele>
        <time>2012-05-27T17:54:22Z</time>
      </trkpt>
      <trkpt lat="41.629032000" lon="2.433476100">
        <ele>344.30</ele>
        <time>2012-05-27T17:54:26Z</time>
      </trkpt>
      <trkpt lat="41.629044000" lon="2.433370100">
        <ele>344.30</ele>
        <time>2012-05-27T17:54:27Z</time>
      </trkpt>
      <trkpt lat="41.629036000" lon="2.433265100">
        <ele>344.30</ele>
        <time>2012-05-27T17:54:29Z</time>
      </trkpt>
      <trkpt lat="41.628883000" lon="2.433023100">
        <ele>344.30</ele>
        <time>2012-05-27T17:54:36Z</time>
      </trkpt>
      <trkpt lat="41.628799000" lon="2.432966100">
        <ele>344.30</ele>
        <time>2012-05-27T17:54:38Z</time>
      </trkpt>
      <trkpt lat="41.628696000" lon="2.432902100">
        <ele>343.80</ele>
        <time>2012-05-27T17:54:40Z</time>
      </trkpt>
      <trkpt lat="41.628643000" lon="2.432715100">
        <ele>340.00</ele>
        <time>2012-05-27T17:54:43Z</time>
      </trkpt>
      <trkpt lat="41.628746000" lon="2.432620100">
        <ele>337.60</ele>
        <time>2012-05-27T17:54:47Z</time>
      </trkpt>
      <trkpt lat="41.628944000" lon="2.432526100">
        <ele>336.10</ele>
        <time>2012-05-27T17:54:50Z</time>
      </trkpt>
      <trkpt lat="41.629047000" lon="2.432328100">
        <ele>336.10</ele>
        <time>2012-05-27T17:54:55Z</time>
      </trkpt>
      <trkpt lat="41.628990000" lon="2.432238100">
        <ele>336.10</ele>
        <time>2012-05-27T17:54:59Z</time>
      </trkpt>
      <trkpt lat="41.628784000" lon="2.432135100">
        <ele>337.60</ele>
        <time>2012-05-27T17:55:06Z</time>
      </trkpt>
      <trkpt lat="41.628563000" lon="2.432019100">
        <ele>338.50</ele>
        <time>2012-05-27T17:55:13Z</time>
      </trkpt>
      <trkpt lat="41.628464000" lon="2.431963100">
        <ele>340.00</ele>
        <time>2012-05-27T17:55:18Z</time>
      </trkpt>
      <trkpt lat="41.628330000" lon="2.431691100">
        <ele>340.00</ele>
        <time>2012-05-27T17:55:23Z</time>
      </trkpt>
      <trkpt lat="41.628376000" lon="2.431482100">
        <ele>340.00</ele>
        <time>2012-05-27T17:55:25Z</time>
      </trkpt>
      <trkpt lat="41.628410000" lon="2.431441100">
        <ele>340.00</ele>
        <time>2012-05-27T17:55:27Z</time>
      </trkpt>
      <trkpt lat="41.628628000" lon="2.431097100">
        <ele>339.50</ele>
        <time>2012-05-27T17:55:35Z</time>
      </trkpt>
      <trkpt lat="41.628731000" lon="2.430804100">
        <ele>339.50</ele>
        <time>2012-05-27T17:55:42Z</time>
      </trkpt>
      <trkpt lat="41.628849000" lon="2.430644100">
        <ele>339.50</ele>
        <time>2012-05-27T17:55:48Z</time>
      </trkpt>
      <trkpt lat="41.628849000" lon="2.430418100">
        <ele>340.40</ele>
        <time>2012-05-27T17:55:53Z</time>
      </trkpt>
      <trkpt lat="41.628784000" lon="2.430155100">
        <ele>341.40</ele>
        <time>2012-05-27T17:56:00Z</time>
      </trkpt>
      <trkpt lat="41.628651000" lon="2.429908100">
        <ele>342.40</ele>
        <time>2012-05-27T17:56:05Z</time>
      </trkpt>
      <trkpt lat="41.628735000" lon="2.429662100">
        <ele>342.90</ele>
        <time>2012-05-27T17:56:12Z</time>
      </trkpt>
      <trkpt lat="41.628819000" lon="2.429498100">
        <ele>342.90</ele>
        <time>2012-05-27T17:56:17Z</time>
      </trkpt>
      <trkpt lat="41.628853000" lon="2.429323100">
        <ele>343.30</ele>
        <time>2012-05-27T17:56:24Z</time>
      </trkpt>
      <trkpt lat="41.628895000" lon="2.429025100">
        <ele>343.80</ele>
        <time>2012-05-27T17:56:31Z</time>
      </trkpt>
      <trkpt lat="41.628963000" lon="2.428761100">
        <ele>344.80</ele>
        <time>2012-05-27T17:56:38Z</time>
      </trkpt>
      <trkpt lat="41.628986000" lon="2.428565100">
        <ele>345.20</ele>
        <time>2012-05-27T17:56:43Z</time>
      </trkpt>
      <trkpt lat="41.629063000" lon="2.428346100">
        <ele>345.70</ele>
        <time>2012-05-27T17:56:50Z</time>
      </trkpt>
      <trkpt lat="41.629185000" lon="2.428130100">
        <ele>346.20</ele>
        <time>2012-05-27T17:56:57Z</time>
      </trkpt>
      <trkpt lat="41.629299000" lon="2.428059100">
        <ele>346.70</ele>
        <time>2012-05-27T17:57:01Z</time>
      </trkpt>
      <trkpt lat="41.629417000" lon="2.427924100">
        <ele>347.20</ele>
        <time>2012-05-27T17:57:06Z</time>
      </trkpt>
      <trkpt lat="41.629570000" lon="2.427694100">
        <ele>348.10</ele>
        <time>2012-05-27T17:57:13Z</time>
      </trkpt>
      <trkpt lat="41.629604000" lon="2.427481100">
        <ele>348.60</ele>
        <time>2012-05-27T17:57:18Z</time>
      </trkpt>
      <trkpt lat="41.629616000" lon="2.427257100">
        <ele>349.10</ele>
        <time>2012-05-27T17:57:23Z</time>
      </trkpt>
      <trkpt lat="41.629673000" lon="2.426951100">
        <ele>349.60</ele>
        <time>2012-05-27T17:57:30Z</time>
      </trkpt>
      <trkpt lat="41.629818000" lon="2.426719100">
        <ele>350.10</ele>
        <time>2012-05-27T17:57:39Z</time>
      </trkpt>
      <trkpt lat="41.629974000" lon="2.426392100">
        <ele>351.00</ele>
        <time>2012-05-27T17:57:48Z</time>
      </trkpt>
      <trkpt lat="41.629917000" lon="2.426261100">
        <ele>351.50</ele>
        <time>2012-05-27T17:57:53Z</time>
      </trkpt>
      <trkpt lat="41.629749000" lon="2.426234100">
        <ele>351.50</ele>
        <time>2012-05-27T17:57:58Z</time>
      </trkpt>
      <trkpt lat="41.629612000" lon="2.426120100">
        <ele>351.50</ele>
        <time>2012-05-27T17:58:02Z</time>
      </trkpt>
      <trkpt lat="41.629631000" lon="2.425994100">
        <ele>351.50</ele>
        <time>2012-05-27T17:58:05Z</time>
      </trkpt>
      <trkpt lat="41.629753000" lon="2.425857100">
        <ele>351.50</ele>
        <time>2012-05-27T17:58:10Z</time>
      </trkpt>
      <trkpt lat="41.629890000" lon="2.425569100">
        <ele>351.00</ele>
        <time>2012-05-27T17:58:17Z</time>
      </trkpt>
      <trkpt lat="41.629982000" lon="2.425314100">
        <ele>351.00</ele>
        <time>2012-05-27T17:58:24Z</time>
      </trkpt>
      <trkpt lat="41.629971000" lon="2.425036100">
        <ele>351.50</ele>
        <time>2012-05-27T17:58:31Z</time>
      </trkpt>
      <trkpt lat="41.629860000" lon="2.424727100">
        <ele>352.00</ele>
        <time>2012-05-27T17:58:38Z</time>
      </trkpt>
      <trkpt lat="41.629711000" lon="2.424540100">
        <ele>352.50</ele>
        <time>2012-05-27T17:58:45Z</time>
      </trkpt>
      <trkpt lat="41.629665000" lon="2.424385100">
        <ele>352.90</ele>
        <time>2012-05-27T17:58:50Z</time>
      </trkpt>
      <trkpt lat="41.629673000" lon="2.424355100">
        <ele>352.90</ele>
        <time>2012-05-27T17:58:52Z</time>
      </trkpt>
      <trkpt lat="41.629807000" lon="2.424216100">
        <ele>353.40</ele>
        <time>2012-05-27T17:58:59Z</time>
      </trkpt>
      <trkpt lat="41.629982000" lon="2.424004100">
        <ele>353.90</ele>
        <time>2012-05-27T17:59:06Z</time>
      </trkpt>
      <trkpt lat="41.629971000" lon="2.423846100">
        <ele>354.40</ele>
        <time>2012-05-27T17:59:11Z</time>
      </trkpt>
      <trkpt lat="41.629787000" lon="2.423694100">
        <ele>355.30</ele>
        <time>2012-05-27T17:59:18Z</time>
      </trkpt>
      <trkpt lat="41.629570000" lon="2.423495100">
        <ele>356.30</ele>
        <time>2012-05-27T17:59:25Z</time>
      </trkpt>
      <trkpt lat="41.629406000" lon="2.423254100">
        <ele>356.80</ele>
        <time>2012-05-27T17:59:34Z</time>
      </trkpt>
      <trkpt lat="41.629242000" lon="2.423062100">
        <ele>358.20</ele>
        <time>2012-05-27T17:59:41Z</time>
      </trkpt>
      <trkpt lat="41.629047000" lon="2.422880100">
        <ele>359.20</ele>
        <time>2012-05-27T17:59:48Z</time>
      </trkpt>
      <trkpt lat="41.628963000" lon="2.422716100">
        <ele>360.60</ele>
        <time>2012-05-27T17:59:53Z</time>
      </trkpt>
      <trkpt lat="41.628960000" lon="2.422447100">
        <ele>362.10</ele>
        <time>2012-05-27T18:00:00Z</time>
      </trkpt>
      <trkpt lat="41.628929000" lon="2.422261100">
        <ele>363.00</ele>
        <time>2012-05-27T18:00:07Z</time>
      </trkpt>
      <trkpt lat="41.628883000" lon="2.421958100">
        <ele>363.50</ele>
        <time>2012-05-27T18:00:14Z</time>
      </trkpt>
      <trkpt lat="41.628902000" lon="2.421772100">
        <ele>363.50</ele>
        <time>2012-05-27T18:00:19Z</time>
      </trkpt>
      <trkpt lat="41.629028000" lon="2.421604100">
        <ele>364.50</ele>
        <time>2012-05-27T18:00:26Z</time>
      </trkpt>
      <trkpt lat="41.629009000" lon="2.421498100">
        <ele>365.00</ele>
        <time>2012-05-27T18:00:30Z</time>
      </trkpt>
      <trkpt lat="41.628838000" lon="2.421389100">
        <ele>365.90</ele>
        <time>2012-05-27T18:00:38Z</time>
      </trkpt>
      <trkpt lat="41.628754000" lon="2.421346100">
        <ele>366.40</ele>
        <time>2012-05-27T18:00:42Z</time>
      </trkpt>
      <trkpt lat="41.628681000" lon="2.421394100">
        <ele>367.80</ele>
        <time>2012-05-27T18:00:47Z</time>
      </trkpt>
      <trkpt lat="41.628586000" lon="2.421487100">
        <ele>370.70</ele>
        <time>2012-05-27T18:00:56Z</time>
      </trkpt>
      <trkpt lat="41.628571000" lon="2.421653100">
        <ele>374.10</ele>
        <time>2012-05-27T18:01:01Z</time>
      </trkpt>
      <trkpt lat="41.628620000" lon="2.421856100">
        <ele>374.10</ele>
        <time>2012-05-27T18:01:08Z</time>
      </trkpt>
      <trkpt lat="41.628677000" lon="2.422055100">
        <ele>373.60</ele>
        <time>2012-05-27T18:01:15Z</time>
      </trkpt>
      <trkpt lat="41.628681000" lon="2.422266100">
        <ele>373.60</ele>
        <time>2012-05-27T18:01:22Z</time>
      </trkpt>
      <trkpt lat="41.628654000" lon="2.422459100">
        <ele>373.60</ele>
        <time>2012-05-27T18:01:27Z</time>
      </trkpt>
      <trkpt lat="41.628609000" lon="2.422726100">
        <ele>374.60</ele>
        <time>2012-05-27T18:01:36Z</time>
      </trkpt>
      <trkpt lat="41.628632000" lon="2.422901100">
        <ele>375.00</ele>
        <time>2012-05-27T18:01:41Z</time>
      </trkpt>
      <trkpt lat="41.628620000" lon="2.422906100">
        <ele>375.00</ele>
        <time>2012-05-27T18:01:50Z</time>
      </trkpt>
      <trkpt lat="41.628609000" lon="2.422912100">
        <ele>376.00</ele>
        <time>2012-05-27T18:01:55Z</time>
      </trkpt>
      <trkpt lat="41.628586000" lon="2.422902100">
        <ele>376.00</ele>
        <time>2012-05-27T18:02:00Z</time>
      </trkpt>
      <trkpt lat="41.628582000" lon="2.422894100">
        <ele>376.00</ele>
        <time>2012-05-27T18:02:02Z</time>
      </trkpt>
      <trkpt lat="41.628559000" lon="2.422817100">
        <ele>376.00</ele>
        <time>2012-05-27T18:02:05Z</time>
      </trkpt>
      <trkpt lat="41.628548000" lon="2.422589100">
        <ele>376.50</ele>
        <time>2012-05-27T18:02:14Z</time>
      </trkpt>
      <trkpt lat="41.628536000" lon="2.422321100">
        <ele>378.40</ele>
        <time>2012-05-27T18:02:23Z</time>
      </trkpt>
      <trkpt lat="41.628513000" lon="2.422240100">
        <ele>377.90</ele>
        <time>2012-05-27T18:02:25Z</time>
      </trkpt>
      <trkpt lat="41.628361000" lon="2.422071100">
        <ele>379.40</ele>
        <time>2012-05-27T18:02:33Z</time>
      </trkpt>
      <trkpt lat="41.628269000" lon="2.421913100">
        <ele>380.30</ele>
        <time>2012-05-27T18:02:40Z</time>
      </trkpt>
      <trkpt lat="41.628193000" lon="2.421729100">
        <ele>381.30</ele>
        <time>2012-05-27T18:02:46Z</time>
      </trkpt>
      <trkpt lat="41.628143000" lon="2.421481100">
        <ele>382.30</ele>
        <time>2012-05-27T18:02:53Z</time>
      </trkpt>
      <trkpt lat="41.628078000" lon="2.421197100">
        <ele>383.70</ele>
        <time>2012-05-27T18:03:01Z</time>
      </trkpt>
      <trkpt lat="41.627956000" lon="2.421005100">
        <ele>384.70</ele>
        <time>2012-05-27T18:03:08Z</time>
      </trkpt>
      <trkpt lat="41.627850000" lon="2.420873100">
        <ele>386.60</ele>
        <time>2012-05-27T18:03:15Z</time>
      </trkpt>
      <trkpt lat="41.627762000" lon="2.420739100">
        <ele>388.50</ele>
        <time>2012-05-27T18:03:24Z</time>
      </trkpt>
      <trkpt lat="41.627743000" lon="2.420714100">
        <ele>389.00</ele>
        <time>2012-05-27T18:03:26Z</time>
      </trkpt>
      <trkpt lat="41.627712000" lon="2.420690100">
        <ele>390.00</ele>
        <time>2012-05-27T18:03:34Z</time>
      </trkpt>
      <trkpt lat="41.627712000" lon="2.420690100">
        <ele>390.00</ele>
        <time>2012-05-27T18:03:48Z</time>
      </trkpt>
      <trkpt lat="41.627640000" lon="2.420622100">
        <ele>390.40</ele>
        <time>2012-05-27T18:03:55Z</time>
      </trkpt>
      <trkpt lat="41.627586000" lon="2.420559100">
        <ele>390.40</ele>
        <time>2012-05-27T18:04:02Z</time>
      </trkpt>
      <trkpt lat="41.627457000" lon="2.420586100">
        <ele>390.40</ele>
        <time>2012-05-27T18:04:09Z</time>
      </trkpt>
      <trkpt lat="41.627430000" lon="2.420587100">
        <ele>390.40</ele>
        <time>2012-05-27T18:04:09Z</time>
      </trkpt>
      <trkpt lat="41.627102000" lon="2.420557100">
        <ele>390.40</ele>
        <time>2012-05-27T18:04:20Z</time>
      </trkpt>
      <trkpt lat="41.626873000" lon="2.420572100">
        <ele>389.00</ele>
        <time>2012-05-27T18:04:27Z</time>
      </trkpt>
      <trkpt lat="41.626621000" lon="2.420479100">
        <ele>389.00</ele>
        <time>2012-05-27T18:04:35Z</time>
      </trkpt>
      <trkpt lat="41.626446000" lon="2.420378100">
        <ele>389.00</ele>
        <time>2012-05-27T18:04:42Z</time>
      </trkpt>
      <trkpt lat="41.626354000" lon="2.420271100">
        <ele>389.00</ele>
        <time>2012-05-27T18:04:49Z</time>
      </trkpt>
      <trkpt lat="41.626282000" lon="2.420210100">
        <ele>385.10</ele>
        <time>2012-05-27T18:04:53Z</time>
      </trkpt>
      <trkpt lat="41.626247000" lon="2.420177100">
        <ele>382.70</ele>
        <time>2012-05-27T18:04:56Z</time>
      </trkpt>
      <trkpt lat="41.626144000" lon="2.420162100">
        <ele>377.90</ele>
        <time>2012-05-27T18:05:00Z</time>
      </trkpt>
      <trkpt lat="41.626041000" lon="2.420105100">
        <ele>375.50</ele>
        <time>2012-05-27T18:05:03Z</time>
      </trkpt>
      <trkpt lat="41.625900000" lon="2.420099100">
        <ele>372.60</ele>
        <time>2012-05-27T18:05:08Z</time>
      </trkpt>
      <trkpt lat="41.625824000" lon="2.419946100">
        <ele>370.70</ele>
        <time>2012-05-27T18:05:14Z</time>
      </trkpt>
      <trkpt lat="41.625843000" lon="2.419812100">
        <ele>369.80</ele>
        <time>2012-05-27T18:05:17Z</time>
      </trkpt>
      <trkpt lat="41.625931000" lon="2.419580100">
        <ele>366.90</ele>
        <time>2012-05-27T18:05:22Z</time>
      </trkpt>
      <trkpt lat="41.626030000" lon="2.419490100">
        <ele>365.00</ele>
        <time>2012-05-27T18:05:24Z</time>
      </trkpt>
      <trkpt lat="41.626194000" lon="2.419397100">
        <ele>360.10</ele>
        <time>2012-05-27T18:05:29Z</time>
      </trkpt>
      <trkpt lat="41.626266000" lon="2.419371100">
        <ele>356.80</ele>
        <time>2012-05-27T18:05:33Z</time>
      </trkpt>
      <trkpt lat="41.626286000" lon="2.419352100">
        <ele>356.30</ele>
        <time>2012-05-27T18:05:33Z</time>
      </trkpt>
      <trkpt lat="41.626324000" lon="2.419316100">
        <ele>354.90</ele>
        <time>2012-05-27T18:05:36Z</time>
      </trkpt>
      <trkpt lat="41.626518000" lon="2.419225100">
        <ele>352.90</ele>
        <time>2012-05-27T18:05:42Z</time>
      </trkpt>
      <trkpt lat="41.626743000" lon="2.419294100">
        <ele>352.90</ele>
        <time>2012-05-27T18:05:47Z</time>
      </trkpt>
      <trkpt lat="41.626896000" lon="2.419194100">
        <ele>352.50</ele>
        <time>2012-05-27T18:05:52Z</time>
      </trkpt>
      <trkpt lat="41.627071000" lon="2.418985100">
        <ele>352.50</ele>
        <time>2012-05-27T18:05:59Z</time>
      </trkpt>
      <trkpt lat="41.627159000" lon="2.418802100">
        <ele>352.50</ele>
        <time>2012-05-27T18:06:06Z</time>
      </trkpt>
      <trkpt lat="41.627281000" lon="2.418676100">
        <ele>352.90</ele>
        <time>2012-05-27T18:06:11Z</time>
      </trkpt>
      <trkpt lat="41.627438000" lon="2.418562100">
        <ele>352.90</ele>
        <time>2012-05-27T18:06:18Z</time>
      </trkpt>
      <trkpt lat="41.627525000" lon="2.418398100">
        <ele>354.40</ele>
        <time>2012-05-27T18:06:23Z</time>
      </trkpt>
      <trkpt lat="41.627659000" lon="2.418194100">
        <ele>355.30</ele>
        <time>2012-05-27T18:06:32Z</time>
      </trkpt>
      <trkpt lat="41.627773000" lon="2.417999100">
        <ele>356.80</ele>
        <time>2012-05-27T18:06:39Z</time>
      </trkpt>
      <trkpt lat="41.627823000" lon="2.417850100">
        <ele>357.80</ele>
        <time>2012-05-27T18:06:44Z</time>
      </trkpt>
      <trkpt lat="41.627823000" lon="2.417846100">
        <ele>357.80</ele>
        <time>2012-05-27T18:06:46Z</time>
      </trkpt>
      <trkpt lat="41.627857000" lon="2.417744100">
        <ele>359.20</ele>
        <time>2012-05-27T18:06:51Z</time>
      </trkpt>
      <trkpt lat="41.627895000" lon="2.417592100">
        <ele>359.70</ele>
        <time>2012-05-27T18:06:58Z</time>
      </trkpt>
      <trkpt lat="41.627918000" lon="2.417402100">
        <ele>361.60</ele>
        <time>2012-05-27T18:07:05Z</time>
      </trkpt>
      <trkpt lat="41.627895000" lon="2.417248100">
        <ele>362.10</ele>
        <time>2012-05-27T18:07:12Z</time>
      </trkpt>
      <trkpt lat="41.627808000" lon="2.416997100">
        <ele>363.50</ele>
        <time>2012-05-27T18:07:21Z</time>
      </trkpt>
      <trkpt lat="41.627720000" lon="2.416814100">
        <ele>364.00</ele>
        <time>2012-05-27T18:07:28Z</time>
      </trkpt>
      <trkpt lat="41.627617000" lon="2.416651100">
        <ele>365.40</ele>
        <time>2012-05-27T18:07:35Z</time>
      </trkpt>
      <trkpt lat="41.627480000" lon="2.416472100">
        <ele>367.40</ele>
        <time>2012-05-27T18:07:43Z</time>
      </trkpt>
      <trkpt lat="41.627323000" lon="2.416277100">
        <ele>368.80</ele>
        <time>2012-05-27T18:07:52Z</time>
      </trkpt>
      <trkpt lat="41.627300000" lon="2.416223100">
        <ele>368.80</ele>
        <time>2012-05-27T18:07:54Z</time>
      </trkpt>
      <trkpt lat="41.627270000" lon="2.416109100">
        <ele>369.30</ele>
        <time>2012-05-27T18:07:57Z</time>
      </trkpt>
      <trkpt lat="41.627281000" lon="2.415871100">
        <ele>370.20</ele>
        <time>2012-05-27T18:08:04Z</time>
      </trkpt>
      <trkpt lat="41.627407000" lon="2.415536100">
        <ele>370.70</ele>
        <time>2012-05-27T18:08:13Z</time>
      </trkpt>
      <trkpt lat="41.627483000" lon="2.415325100">
        <ele>372.20</ele>
        <time>2012-05-27T18:08:20Z</time>
      </trkpt>
      <trkpt lat="41.627441000" lon="2.415153100">
        <ele>372.60</ele>
        <time>2012-05-27T18:08:25Z</time>
      </trkpt>
      <trkpt lat="41.627342000" lon="2.414959100">
        <ele>374.10</ele>
        <time>2012-05-27T18:08:32Z</time>
      </trkpt>
      <trkpt lat="41.627254000" lon="2.414824100">
        <ele>375.00</ele>
        <time>2012-05-27T18:08:37Z</time>
      </trkpt>
      <trkpt lat="41.627174000" lon="2.414720100">
        <ele>376.50</ele>
        <time>2012-05-27T18:08:44Z</time>
      </trkpt>
      <trkpt lat="41.627148000" lon="2.414655100">
        <ele>377.50</ele>
        <time>2012-05-27T18:08:48Z</time>
      </trkpt>
      <trkpt lat="41.627110000" lon="2.414461100">
        <ele>378.40</ele>
        <time>2012-05-27T18:08:55Z</time>
      </trkpt>
      <trkpt lat="41.627129000" lon="2.414289100">
        <ele>378.90</ele>
        <time>2012-05-27T18:09:02Z</time>
      </trkpt>
      <trkpt lat="41.627033000" lon="2.414143100">
        <ele>379.40</ele>
        <time>2012-05-27T18:09:09Z</time>
      </trkpt>
      <trkpt lat="41.627022000" lon="2.414038100">
        <ele>379.90</ele>
        <time>2012-05-27T18:09:14Z</time>
      </trkpt>
      <trkpt lat="41.626968000" lon="2.413955100">
        <ele>380.80</ele>
        <time>2012-05-27T18:09:21Z</time>
      </trkpt>
      <trkpt lat="41.626980000" lon="2.413741100">
        <ele>381.80</ele>
        <time>2012-05-27T18:09:30Z</time>
      </trkpt>
      <trkpt lat="41.627026000" lon="2.413543100">
        <ele>383.20</ele>
        <time>2012-05-27T18:09:37Z</time>
      </trkpt>
      <trkpt lat="41.627033000" lon="2.413518100">
        <ele>383.20</ele>
        <time>2012-05-27T18:09:38Z</time>
      </trkpt>
      <trkpt lat="41.627037000" lon="2.413388100">
        <ele>383.70</ele>
        <time>2012-05-27T18:09:44Z</time>
      </trkpt>
      <trkpt lat="41.627007000" lon="2.413247100">
        <ele>384.70</ele>
        <time>2012-05-27T18:09:49Z</time>
      </trkpt>
      <trkpt lat="41.626945000" lon="2.413109100">
        <ele>385.60</ele>
        <time>2012-05-27T18:09:56Z</time>
      </trkpt>
      <trkpt lat="41.626877000" lon="2.412961100">
        <ele>386.60</ele>
        <time>2012-05-27T18:10:03Z</time>
      </trkpt>
      <trkpt lat="41.626888000" lon="2.412824100">
        <ele>387.10</ele>
        <time>2012-05-27T18:10:10Z</time>
      </trkpt>
      <trkpt lat="41.626827000" lon="2.412666100">
        <ele>387.10</ele>
        <time>2012-05-27T18:10:17Z</time>
      </trkpt>
      <trkpt lat="41.626694000" lon="2.412446100">
        <ele>387.10</ele>
        <time>2012-05-27T18:10:24Z</time>
      </trkpt>
      <trkpt lat="41.626614000" lon="2.412279100">
        <ele>387.10</ele>
        <time>2012-05-27T18:10:27Z</time>
      </trkpt>
      <trkpt lat="41.626564000" lon="2.412181100">
        <ele>387.10</ele>
        <time>2012-05-27T18:10:29Z</time>
      </trkpt>
      <trkpt lat="41.626511000" lon="2.412050100">
        <ele>387.10</ele>
        <time>2012-05-27T18:10:31Z</time>
      </trkpt>
      <trkpt lat="41.626316000" lon="2.411581100">
        <ele>385.60</ele>
        <time>2012-05-27T18:10:39Z</time>
      </trkpt>
      <trkpt lat="41.626278000" lon="2.411463100">
        <ele>385.60</ele>
        <time>2012-05-27T18:10:41Z</time>
      </trkpt>
      <trkpt lat="41.626125000" lon="2.411199100">
        <ele>384.20</ele>
        <time>2012-05-27T18:10:46Z</time>
      </trkpt>
      <trkpt lat="41.625710000" lon="2.410753100">
        <ele>382.30</ele>
        <time>2012-05-27T18:10:55Z</time>
      </trkpt>
      <trkpt lat="41.625504000" lon="2.410524100">
        <ele>378.40</ele>
        <time>2012-05-27T18:11:00Z</time>
      </trkpt>
      <trkpt lat="41.625340000" lon="2.410344100">
        <ele>375.00</ele>
        <time>2012-05-27T18:11:02Z</time>
      </trkpt>
      <trkpt lat="41.625252000" lon="2.410048100">
        <ele>373.10</ele>
        <time>2012-05-27T18:11:06Z</time>
      </trkpt>
      <trkpt lat="41.625221000" lon="2.409442100">
        <ele>369.80</ele>
        <time>2012-05-27T18:11:11Z</time>
      </trkpt>
      <trkpt lat="41.625221000" lon="2.409303100">
        <ele>369.30</ele>
        <time>2012-05-27T18:11:11Z</time>
      </trkpt>
      <trkpt lat="41.625404000" lon="2.408744100">
        <ele>366.40</ele>
        <time>2012-05-27T18:11:16Z</time>
      </trkpt>
      <trkpt lat="41.625465000" lon="2.408626100">
        <ele>365.40</ele>
        <time>2012-05-27T18:11:16Z</time>
      </trkpt>
      <trkpt lat="41.625580000" lon="2.408012100">
        <ele>360.60</ele>
        <time>2012-05-27T18:11:21Z</time>
      </trkpt>
      <trkpt lat="41.625618000" lon="2.407094100">
        <ele>354.90</ele>
        <time>2012-05-27T18:11:25Z</time>
      </trkpt>
      <trkpt lat="41.625675000" lon="2.406488100">
        <ele>350.50</ele>
        <time>2012-05-27T18:11:28Z</time>
      </trkpt>
      <trkpt lat="41.625694000" lon="2.406282100">
        <ele>348.60</ele>
        <time>2012-05-27T18:11:30Z</time>
      </trkpt>
      <trkpt lat="41.625690000" lon="2.405742100">
        <ele>343.80</ele>
        <time>2012-05-27T18:11:33Z</time>
      </trkpt>
      <trkpt lat="41.625683000" lon="2.405592100">
        <ele>341.90</ele>
        <time>2012-05-27T18:11:33Z</time>
      </trkpt>
      <trkpt lat="41.625587000" lon="2.405224100">
        <ele>337.10</ele>
        <time>2012-05-27T18:11:37Z</time>
      </trkpt>
      <trkpt lat="41.625320000" lon="2.404960100">
        <ele>335.20</ele>
        <time>2012-05-27T18:11:40Z</time>
      </trkpt>
      <trkpt lat="41.625153000" lon="2.404823100">
        <ele>333.70</ele>
        <time>2012-05-27T18:11:42Z</time>
      </trkpt>
      <trkpt lat="41.624763000" lon="2.404542100">
        <ele>333.70</ele>
        <time>2012-05-27T18:11:46Z</time>
      </trkpt>
      <trkpt lat="41.624496000" lon="2.404334100">
        <ele>331.80</ele>
        <time>2012-05-27T18:11:49Z</time>
      </trkpt>
      <trkpt lat="41.624329000" lon="2.404118100">
        <ele>326.00</ele>
        <time>2012-05-27T18:11:54Z</time>
      </trkpt>
      <trkpt lat="41.624306000" lon="2.403738100">
        <ele>320.70</ele>
        <time>2012-05-27T18:12:00Z</time>
      </trkpt>
      <trkpt lat="41.624294000" lon="2.403551100">
        <ele>324.60</ele>
        <time>2012-05-27T18:12:05Z</time>
      </trkpt>
      <trkpt lat="41.624283000" lon="2.403527100">
        <ele>325.50</ele>
        <time>2012-05-27T18:12:05Z</time>
      </trkpt>
      <trkpt lat="41.624275000" lon="2.403430100">
        <ele>328.90</ele>
        <time>2012-05-27T18:12:10Z</time>
      </trkpt>
      <trkpt lat="41.624222000" lon="2.403204100">
        <ele>328.90</ele>
        <time>2012-05-27T18:12:17Z</time>
      </trkpt>
      <trkpt lat="41.624161000" lon="2.402962100">
        <ele>327.50</ele>
        <time>2012-05-27T18:12:24Z</time>
      </trkpt>
      <trkpt lat="41.624096000" lon="2.402663100">
        <ele>327.50</ele>
        <time>2012-05-27T18:12:31Z</time>
      </trkpt>
      <trkpt lat="41.624004000" lon="2.402357100">
        <ele>327.00</ele>
        <time>2012-05-27T18:12:41Z</time>
      </trkpt>
      <trkpt lat="41.623913000" lon="2.402137100">
        <ele>329.40</ele>
        <time>2012-05-27T18:12:48Z</time>
      </trkpt>
      <trkpt lat="41.623840000" lon="2.401965100">
        <ele>330.80</ele>
        <time>2012-05-27T18:12:55Z</time>
      </trkpt>
      <trkpt lat="41.623833000" lon="2.401943100">
        <ele>330.80</ele>
        <time>2012-05-27T18:12:57Z</time>
      </trkpt>
      <trkpt lat="41.623798000" lon="2.401805100">
        <ele>334.20</ele>
        <time>2012-05-27T18:13:02Z</time>
      </trkpt>
      <trkpt lat="41.623787000" lon="2.401756100">
        <ele>335.60</ele>
        <time>2012-05-27T18:13:04Z</time>
      </trkpt>
      <trkpt lat="41.623745000" lon="2.401581100">
        <ele>337.10</ele>
        <time>2012-05-27T18:13:13Z</time>
      </trkpt>
      <trkpt lat="41.623730000" lon="2.401543100">
        <ele>337.10</ele>
        <time>2012-05-27T18:13:14Z</time>
      </trkpt>
      <trkpt lat="41.623764000" lon="2.401436100">
        <ele>337.10</ele>
        <time>2012-05-27T18:13:23Z</time>
      </trkpt>
      <trkpt lat="41.623840000" lon="2.401406100">
        <ele>337.60</ele>
        <time>2012-05-27T18:13:28Z</time>
      </trkpt>
      <trkpt lat="41.623917000" lon="2.401358100">
        <ele>338.00</ele>
        <time>2012-05-27T18:13:32Z</time>
      </trkpt>
      <trkpt lat="41.624081000" lon="2.401283100">
        <ele>339.00</ele>
        <time>2012-05-27T18:13:42Z</time>
      </trkpt>
      <trkpt lat="41.624214000" lon="2.401206100">
        <ele>340.00</ele>
        <time>2012-05-27T18:13:51Z</time>
      </trkpt>
      <trkpt lat="41.624245000" lon="2.401187100">
        <ele>340.00</ele>
        <time>2012-05-27T18:13:53Z</time>
      </trkpt>
      <trkpt lat="41.624283000" lon="2.400980100">
        <ele>340.90</ele>
        <time>2012-05-27T18:14:00Z</time>
      </trkpt>
      <trkpt lat="41.624264000" lon="2.400755100">
        <ele>342.40</ele>
        <time>2012-05-27T18:14:08Z</time>
      </trkpt>
      <trkpt lat="41.624271000" lon="2.400466100">
        <ele>343.30</ele>
        <time>2012-05-27T18:14:19Z</time>
      </trkpt>
      <trkpt lat="41.624306000" lon="2.400292100">
        <ele>344.30</ele>
        <time>2012-05-27T18:14:26Z</time>
      </trkpt>
      <trkpt lat="41.624378000" lon="2.400156100">
        <ele>346.20</ele>
        <time>2012-05-27T18:14:33Z</time>
      </trkpt>
      <trkpt lat="41.624424000" lon="2.400057100">
        <ele>350.10</ele>
        <time>2012-05-27T18:14:38Z</time>
      </trkpt>
      <trkpt lat="41.624439000" lon="2.399977100">
        <ele>351.50</ele>
        <time>2012-05-27T18:14:41Z</time>
      </trkpt>
      <trkpt lat="41.624405000" lon="2.399862100">
        <ele>352.00</ele>
        <time>2012-05-27T18:14:47Z</time>
      </trkpt>
      <trkpt lat="41.624390000" lon="2.399780100">
        <ele>352.00</ele>
        <time>2012-05-27T18:14:55Z</time>
      </trkpt>
      <trkpt lat="41.624390000" lon="2.399774100">
        <ele>352.00</ele>
        <time>2012-05-27T18:15:23Z</time>
      </trkpt>
      <trkpt lat="41.624279000" lon="2.399759100">
        <ele>352.00</ele>
        <time>2012-05-27T18:15:30Z</time>
      </trkpt>
      <trkpt lat="41.624138000" lon="2.399764100">
        <ele>352.50</ele>
        <time>2012-05-27T18:15:39Z</time>
      </trkpt>
      <trkpt lat="41.623997000" lon="2.399753100">
        <ele>353.40</ele>
        <time>2012-05-27T18:15:46Z</time>
      </trkpt>
      <trkpt lat="41.623817000" lon="2.399674100">
        <ele>355.30</ele>
        <time>2012-05-27T18:15:55Z</time>
      </trkpt>
      <trkpt lat="41.623634000" lon="2.399568100">
        <ele>355.80</ele>
        <time>2012-05-27T18:16:02Z</time>
      </trkpt>
      <trkpt lat="41.623482000" lon="2.399451100">
        <ele>356.80</ele>
        <time>2012-05-27T18:16:10Z</time>
      </trkpt>
      <trkpt lat="41.623318000" lon="2.399342100">
        <ele>357.80</ele>
        <time>2012-05-27T18:16:19Z</time>
      </trkpt>
      <trkpt lat="41.623100000" lon="2.399278100">
        <ele>358.20</ele>
        <time>2012-05-27T18:16:28Z</time>
      </trkpt>
      <trkpt lat="41.622898000" lon="2.399250100">
        <ele>358.70</ele>
        <time>2012-05-27T18:16:35Z</time>
      </trkpt>
      <trkpt lat="41.622723000" lon="2.399207100">
        <ele>359.70</ele>
        <time>2012-05-27T18:16:42Z</time>
      </trkpt>
      <trkpt lat="41.622505000" lon="2.399131100">
        <ele>360.10</ele>
        <time>2012-05-27T18:16:49Z</time>
      </trkpt>
      <trkpt lat="41.622208000" lon="2.399006100">
        <ele>360.10</ele>
        <time>2012-05-27T18:16:57Z</time>
      </trkpt>
      <trkpt lat="41.621868000" lon="2.398808100">
        <ele>360.10</ele>
        <time>2012-05-27T18:17:08Z</time>
      </trkpt>
      <trkpt lat="41.621662000" lon="2.398617100">
        <ele>360.60</ele>
        <time>2012-05-27T18:17:15Z</time>
      </trkpt>
      <trkpt lat="41.621487000" lon="2.398517100">
        <ele>360.60</ele>
        <time>2012-05-27T18:17:20Z</time>
      </trkpt>
      <trkpt lat="41.621376000" lon="2.398437100">
        <ele>360.60</ele>
        <time>2012-05-27T18:17:24Z</time>
      </trkpt>
      <trkpt lat="41.621281000" lon="2.398335100">
        <ele>360.60</ele>
        <time>2012-05-27T18:17:27Z</time>
      </trkpt>
      <trkpt lat="41.621185000" lon="2.398151100">
        <ele>360.60</ele>
        <time>2012-05-27T18:17:30Z</time>
      </trkpt>
      <trkpt lat="41.621090000" lon="2.397814100">
        <ele>360.60</ele>
        <time>2012-05-27T18:17:39Z</time>
      </trkpt>
      <trkpt lat="41.621078000" lon="2.397779100">
        <ele>360.60</ele>
        <time>2012-05-27T18:17:39Z</time>
      </trkpt>
      <trkpt lat="41.620869000" lon="2.397516100">
        <ele>361.10</ele>
        <time>2012-05-27T18:17:48Z</time>
      </trkpt>
      <trkpt lat="41.620701000" lon="2.397281100">
        <ele>361.60</ele>
        <time>2012-05-27T18:17:55Z</time>
      </trkpt>
      <trkpt lat="41.620564000" lon="2.396966100">
        <ele>362.50</ele>
        <time>2012-05-27T18:18:04Z</time>
      </trkpt>
      <trkpt lat="41.620518000" lon="2.396728100">
        <ele>363.50</ele>
        <time>2012-05-27T18:18:09Z</time>
      </trkpt>
      <trkpt lat="41.620556000" lon="2.396382100">
        <ele>364.00</ele>
        <time>2012-05-27T18:18:18Z</time>
      </trkpt>
      <trkpt lat="41.620594000" lon="2.395905100">
        <ele>365.00</ele>
        <time>2012-05-27T18:18:28Z</time>
      </trkpt>
      <trkpt lat="41.620575000" lon="2.395811100">
        <ele>365.00</ele>
        <time>2012-05-27T18:18:30Z</time>
      </trkpt>
      <trkpt lat="41.620422000" lon="2.395747100">
        <ele>365.40</ele>
        <time>2012-05-27T18:18:35Z</time>
      </trkpt>
      <trkpt lat="41.620113000" lon="2.395773100">
        <ele>365.90</ele>
        <time>2012-05-27T18:18:44Z</time>
      </trkpt>
      <trkpt lat="41.619873000" lon="2.395729100">
        <ele>366.40</ele>
        <time>2012-05-27T18:18:51Z</time>
      </trkpt>
      <trkpt lat="41.619831000" lon="2.395719100">
        <ele>366.40</ele>
        <time>2012-05-27T18:18:52Z</time>
      </trkpt>
      <trkpt lat="41.619511000" lon="2.395547100">
        <ele>366.40</ele>
        <time>2012-05-27T18:18:59Z</time>
      </trkpt>
      <trkpt lat="41.619465000" lon="2.395518100">
        <ele>366.40</ele>
        <time>2012-05-27T18:18:59Z</time>
      </trkpt>
      <trkpt lat="41.619240000" lon="2.395251100">
        <ele>366.40</ele>
        <time>2012-05-27T18:19:06Z</time>
      </trkpt>
      <trkpt lat="41.619194000" lon="2.394884100">
        <ele>365.00</ele>
        <time>2012-05-27T18:19:10Z</time>
      </trkpt>
      <trkpt lat="41.619194000" lon="2.394808100">
        <ele>365.00</ele>
        <time>2012-05-27T18:19:12Z</time>
      </trkpt>
      <trkpt lat="41.619194000" lon="2.394394100">
        <ele>363.50</ele>
        <time>2012-05-27T18:19:18Z</time>
      </trkpt>
      <trkpt lat="41.619156000" lon="2.393852100">
        <ele>363.50</ele>
        <time>2012-05-27T18:19:29Z</time>
      </trkpt>
      <trkpt lat="41.619072000" lon="2.393559100">
        <ele>363.50</ele>
        <time>2012-05-27T18:19:36Z</time>
      </trkpt>
      <trkpt lat="41.619053000" lon="2.393519100">
        <ele>363.50</ele>
        <time>2012-05-27T18:19:38Z</time>
      </trkpt>
      <trkpt lat="41.618992000" lon="2.393428100">
        <ele>363.50</ele>
        <time>2012-05-27T18:19:39Z</time>
      </trkpt>
      <trkpt lat="41.618828000" lon="2.393264100">
        <ele>363.50</ele>
        <time>2012-05-27T18:19:43Z</time>
      </trkpt>
      <trkpt lat="41.618652000" lon="2.393020100">
        <ele>363.50</ele>
        <time>2012-05-27T18:19:48Z</time>
      </trkpt>
      <trkpt lat="41.618408000" lon="2.392654100">
        <ele>363.00</ele>
        <time>2012-05-27T18:19:59Z</time>
      </trkpt>
      <trkpt lat="41.618229000" lon="2.392338100">
        <ele>363.00</ele>
        <time>2012-05-27T18:20:07Z</time>
      </trkpt>
      <trkpt lat="41.618107000" lon="2.392095100">
        <ele>364.50</ele>
        <time>2012-05-27T18:20:14Z</time>
      </trkpt>
      <trkpt lat="41.617970000" lon="2.391912100">
        <ele>365.40</ele>
        <time>2012-05-27T18:20:21Z</time>
      </trkpt>
      <trkpt lat="41.617786000" lon="2.391890100">
        <ele>366.90</ele>
        <time>2012-05-27T18:20:28Z</time>
      </trkpt>
      <trkpt lat="41.617695000" lon="2.391896100">
        <ele>370.20</ele>
        <time>2012-05-27T18:20:33Z</time>
      </trkpt>
      <trkpt lat="41.617626000" lon="2.391911100">
        <ele>373.60</ele>
        <time>2012-05-27T18:20:37Z</time>
      </trkpt>
      <trkpt lat="41.617603000" lon="2.391918100">
        <ele>373.60</ele>
        <time>2012-05-27T18:20:39Z</time>
      </trkpt>
      <trkpt lat="41.617458000" lon="2.391996100">
        <ele>374.60</ele>
        <time>2012-05-27T18:20:47Z</time>
      </trkpt>
      <trkpt lat="41.617397000" lon="2.392007100">
        <ele>374.60</ele>
        <time>2012-05-27T18:20:49Z</time>
      </trkpt>
      <trkpt lat="41.617191000" lon="2.391993100">
        <ele>376.00</ele>
        <time>2012-05-27T18:21:00Z</time>
      </trkpt>
      <trkpt lat="41.617027000" lon="2.391989100">
        <ele>377.00</ele>
        <time>2012-05-27T18:21:08Z</time>
      </trkpt>
      <trkpt lat="41.616829000" lon="2.391995100">
        <ele>378.40</ele>
        <time>2012-05-27T18:21:19Z</time>
      </trkpt>
      <trkpt lat="41.616657000" lon="2.391986100">
        <ele>379.90</ele>
        <time>2012-05-27T18:21:26Z</time>
      </trkpt>
      <trkpt lat="41.616467000" lon="2.391934100">
        <ele>380.30</ele>
        <time>2012-05-27T18:21:36Z</time>
      </trkpt>
      <trkpt lat="41.616417000" lon="2.391935100">
        <ele>380.30</ele>
        <time>2012-05-27T18:21:38Z</time>
      </trkpt>
      <trkpt lat="41.616348000" lon="2.392049100">
        <ele>381.30</ele>
        <time>2012-05-27T18:21:43Z</time>
      </trkpt>
      <trkpt lat="41.616341000" lon="2.392311100">
        <ele>382.70</ele>
        <time>2012-05-27T18:21:54Z</time>
      </trkpt>
      <trkpt lat="41.616344000" lon="2.392552100">
        <ele>383.70</ele>
        <time>2012-05-27T18:22:02Z</time>
      </trkpt>
      <trkpt lat="41.616302000" lon="2.392732100">
        <ele>385.60</ele>
        <time>2012-05-27T18:22:09Z</time>
      </trkpt>
      <trkpt lat="41.616241000" lon="2.392885100">
        <ele>386.60</ele>
        <time>2012-05-27T18:22:16Z</time>
      </trkpt>
      <trkpt lat="41.616150000" lon="2.393001100">
        <ele>387.50</ele>
        <time>2012-05-27T18:22:23Z</time>
      </trkpt>
      <trkpt lat="41.616154000" lon="2.393004100">
        <ele>388.00</ele>
        <time>2012-05-27T18:22:30Z</time>
      </trkpt>
      <trkpt lat="41.616154000" lon="2.393004100">
        <ele>388.00</ele>
        <time>2012-05-27T18:22:46Z</time>
      </trkpt>
      <trkpt lat="41.616154000" lon="2.393008100">
        <ele>389.00</ele>
        <time>2012-05-27T18:23:14Z</time>
      </trkpt>
      <trkpt lat="41.616135000" lon="2.393052100">
        <ele>389.00</ele>
        <time>2012-05-27T18:23:24Z</time>
      </trkpt>
      <trkpt lat="41.616085000" lon="2.393106100">
        <ele>389.00</ele>
        <time>2012-05-27T18:23:31Z</time>
      </trkpt>
      <trkpt lat="41.616058000" lon="2.393134100">
        <ele>389.00</ele>
        <time>2012-05-27T18:23:40Z</time>
      </trkpt>
      <trkpt lat="41.616051000" lon="2.393135100">
        <ele>389.00</ele>
        <time>2012-05-27T18:23:50Z</time>
      </trkpt>
      <trkpt lat="41.616047000" lon="2.393139100">
        <ele>389.00</ele>
        <time>2012-05-27T18:24:41Z</time>
      </trkpt>
      <trkpt lat="41.616047000" lon="2.393142100">
        <ele>389.00</ele>
        <time>2012-05-27T18:25:03Z</time>
      </trkpt>
      <trkpt lat="41.615932000" lon="2.393198100">
        <ele>389.00</ele>
        <time>2012-05-27T18:25:17Z</time>
      </trkpt>
      <trkpt lat="41.615879000" lon="2.393237100">
        <ele>389.50</ele>
        <time>2012-05-27T18:25:21Z</time>
      </trkpt>
      <trkpt lat="41.615852000" lon="2.393255100">
        <ele>389.50</ele>
        <time>2012-05-27T18:25:24Z</time>
      </trkpt>
      <trkpt lat="41.615734000" lon="2.393430100">
        <ele>389.50</ele>
        <time>2012-05-27T18:25:31Z</time>
      </trkpt>
      <trkpt lat="41.615719000" lon="2.393481100">
        <ele>389.50</ele>
        <time>2012-05-27T18:25:33Z</time>
      </trkpt>
      <trkpt lat="41.615700000" lon="2.393763100">
        <ele>390.00</ele>
        <time>2012-05-27T18:25:42Z</time>
      </trkpt>
      <trkpt lat="41.615700000" lon="2.393805100">
        <ele>390.00</ele>
        <time>2012-05-27T18:25:42Z</time>
      </trkpt>
      <trkpt lat="41.615620000" lon="2.394079100">
        <ele>389.00</ele>
        <time>2012-05-27T18:25:47Z</time>
      </trkpt>
      <trkpt lat="41.615524000" lon="2.394275100">
        <ele>388.50</ele>
        <time>2012-05-27T18:25:52Z</time>
      </trkpt>
      <trkpt lat="41.615318000" lon="2.394433100">
        <ele>388.00</ele>
        <time>2012-05-27T18:25:59Z</time>
      </trkpt>
      <trkpt lat="41.615341000" lon="2.394558100">
        <ele>388.00</ele>
        <time>2012-05-27T18:26:04Z</time>
      </trkpt>
      <trkpt lat="41.615398000" lon="2.394636100">
        <ele>387.50</ele>
        <time>2012-05-27T18:26:10Z</time>
      </trkpt>
      <trkpt lat="41.615406000" lon="2.394686100">
        <ele>387.50</ele>
        <time>2012-05-27T18:26:15Z</time>
      </trkpt>
      <trkpt lat="41.615479000" lon="2.394732100">
        <ele>386.60</ele>
        <time>2012-05-27T18:26:20Z</time>
      </trkpt>
      <trkpt lat="41.615566000" lon="2.394810100">
        <ele>386.10</ele>
        <time>2012-05-27T18:26:25Z</time>
      </trkpt>
      <trkpt lat="41.615612000" lon="2.394923100">
        <ele>385.60</ele>
        <time>2012-05-27T18:26:29Z</time>
      </trkpt>
      <trkpt lat="41.615597000" lon="2.395168100">
        <ele>384.70</ele>
        <time>2012-05-27T18:26:34Z</time>
      </trkpt>
      <trkpt lat="41.615589000" lon="2.395292100">
        <ele>382.30</ele>
        <time>2012-05-27T18:26:37Z</time>
      </trkpt>
      <trkpt lat="41.615578000" lon="2.395446100">
        <ele>377.90</ele>
        <time>2012-05-27T18:26:41Z</time>
      </trkpt>
      <trkpt lat="41.615574000" lon="2.395552100">
        <ele>375.00</ele>
        <time>2012-05-27T18:26:44Z</time>
      </trkpt>
      <trkpt lat="41.615562000" lon="2.395697100">
        <ele>372.20</ele>
        <time>2012-05-27T18:26:50Z</time>
      </trkpt>
      <trkpt lat="41.615479000" lon="2.395893100">
        <ele>372.20</ele>
        <time>2012-05-27T18:26:55Z</time>
      </trkpt>
      <trkpt lat="41.615406000" lon="2.396051100">
        <ele>371.20</ele>
        <time>2012-05-27T18:27:00Z</time>
      </trkpt>
      <trkpt lat="41.615337000" lon="2.396194100">
        <ele>369.80</ele>
        <time>2012-05-27T18:27:05Z</time>
      </trkpt>
      <trkpt lat="41.615295000" lon="2.396325100">
        <ele>368.80</ele>
        <time>2012-05-27T18:27:11Z</time>
      </trkpt>
      <trkpt lat="41.615318000" lon="2.396441100">
        <ele>364.00</ele>
        <time>2012-05-27T18:27:16Z</time>
      </trkpt>
      <trkpt lat="41.615334000" lon="2.396565100">
        <ele>362.10</ele>
        <time>2012-05-27T18:27:19Z</time>
      </trkpt>
      <trkpt lat="41.615330000" lon="2.396626100">
        <ele>361.60</ele>
        <time>2012-05-27T18:27:23Z</time>
      </trkpt>
      <trkpt lat="41.615261000" lon="2.396630100">
        <ele>361.60</ele>
        <time>2012-05-27T18:27:28Z</time>
      </trkpt>
      <trkpt lat="41.615097000" lon="2.396640100">
        <ele>361.10</ele>
        <time>2012-05-27T18:27:33Z</time>
      </trkpt>
      <trkpt lat="41.614937000" lon="2.396569100">
        <ele>361.10</ele>
        <time>2012-05-27T18:27:38Z</time>
      </trkpt>
      <trkpt lat="41.614822000" lon="2.396466100">
        <ele>361.10</ele>
        <time>2012-05-27T18:27:42Z</time>
      </trkpt>
      <trkpt lat="41.614742000" lon="2.396396100">
        <ele>360.60</ele>
        <time>2012-05-27T18:27:45Z</time>
      </trkpt>
      <trkpt lat="41.614567000" lon="2.396421100">
        <ele>360.10</ele>
        <time>2012-05-27T18:27:52Z</time>
      </trkpt>
      <trkpt lat="41.614311000" lon="2.396511100">
        <ele>358.20</ele>
        <time>2012-05-27T18:27:58Z</time>
      </trkpt>
      <trkpt lat="41.614182000" lon="2.396612100">
        <ele>355.30</ele>
        <time>2012-05-27T18:28:01Z</time>
      </trkpt>
      <trkpt lat="41.614044000" lon="2.396760100">
        <ele>351.00</ele>
        <time>2012-05-27T18:28:06Z</time>
      </trkpt>
      <trkpt lat="41.613976000" lon="2.396992100">
        <ele>347.60</ele>
        <time>2012-05-27T18:28:12Z</time>
      </trkpt>
      <trkpt lat="41.613949000" lon="2.397085100">
        <ele>345.70</ele>
        <time>2012-05-27T18:28:15Z</time>
      </trkpt>
      <trkpt lat="41.614006000" lon="2.397311100">
        <ele>342.90</ele>
        <time>2012-05-27T18:28:20Z</time>
      </trkpt>
      <trkpt lat="41.614021000" lon="2.397367100">
        <ele>341.90</ele>
        <time>2012-05-27T18:28:22Z</time>
      </trkpt>
      <trkpt lat="41.614071000" lon="2.397600100">
        <ele>339.00</ele>
        <time>2012-05-27T18:28:25Z</time>
      </trkpt>
      <trkpt lat="41.614017000" lon="2.397847100">
        <ele>334.20</ele>
        <time>2012-05-27T18:28:31Z</time>
      </trkpt>
      <trkpt lat="41.613857000" lon="2.398129100">
        <ele>331.80</ele>
        <time>2012-05-27T18:28:38Z</time>
      </trkpt>
      <trkpt lat="41.613678000" lon="2.398306100">
        <ele>331.80</ele>
        <time>2012-05-27T18:28:43Z</time>
      </trkpt>
      <trkpt lat="41.613518000" lon="2.398289100">
        <ele>331.30</ele>
        <time>2012-05-27T18:28:48Z</time>
      </trkpt>
      <trkpt lat="41.613365000" lon="2.398244100">
        <ele>329.90</ele>
        <time>2012-05-27T18:28:53Z</time>
      </trkpt>
      <trkpt lat="41.613201000" lon="2.398198100">
        <ele>328.40</ele>
        <time>2012-05-27T18:29:00Z</time>
      </trkpt>
      <trkpt lat="41.613083000" lon="2.398193100">
        <ele>328.40</ele>
        <time>2012-05-27T18:29:04Z</time>
      </trkpt>
      <trkpt lat="41.612949000" lon="2.398200100">
        <ele>327.00</ele>
        <time>2012-05-27T18:29:09Z</time>
      </trkpt>
      <trkpt lat="41.612869000" lon="2.398264100">
        <ele>326.00</ele>
        <time>2012-05-27T18:29:14Z</time>
      </trkpt>
      <trkpt lat="41.612770000" lon="2.398410100">
        <ele>322.70</ele>
        <time>2012-05-27T18:29:19Z</time>
      </trkpt>
      <trkpt lat="41.612759000" lon="2.398558100">
        <ele>319.30</ele>
        <time>2012-05-27T18:29:23Z</time>
      </trkpt>
      <trkpt lat="41.612774000" lon="2.398785100">
        <ele>322.20</ele>
        <time>2012-05-27T18:29:30Z</time>
      </trkpt>
      <trkpt lat="41.612782000" lon="2.398825100">
        <ele>323.10</ele>
        <time>2012-05-27T18:29:30Z</time>
      </trkpt>
      <trkpt lat="41.612728000" lon="2.398879100">
        <ele>322.70</ele>
        <time>2012-05-27T18:29:35Z</time>
      </trkpt>
      <trkpt lat="41.612595000" lon="2.398793100">
        <ele>321.20</ele>
        <time>2012-05-27T18:29:40Z</time>
      </trkpt>
      <trkpt lat="41.612545000" lon="2.398695100">
        <ele>321.20</ele>
        <time>2012-05-27T18:29:44Z</time>
      </trkpt>
      <trkpt lat="41.612602000" lon="2.398540100">
        <ele>317.90</ele>
        <time>2012-05-27T18:29:49Z</time>
      </trkpt>
      <trkpt lat="41.612606000" lon="2.398400100">
        <ele>314.00</ele>
        <time>2012-05-27T18:29:51Z</time>
      </trkpt>
      <trkpt lat="41.612587000" lon="2.398258100">
        <ele>310.60</ele>
        <time>2012-05-27T18:29:54Z</time>
      </trkpt>
      <trkpt lat="41.612576000" lon="2.398148100">
        <ele>309.20</ele>
        <time>2012-05-27T18:29:56Z</time>
      </trkpt>
      <trkpt lat="41.612679000" lon="2.398002100">
        <ele>308.70</ele>
        <time>2012-05-27T18:30:01Z</time>
      </trkpt>
      <trkpt lat="41.612713000" lon="2.397995100">
        <ele>308.70</ele>
        <time>2012-05-27T18:30:03Z</time>
      </trkpt>
      <trkpt lat="41.612930000" lon="2.397911100">
        <ele>308.70</ele>
        <time>2012-05-27T18:30:10Z</time>
      </trkpt>
      <trkpt lat="41.612995000" lon="2.397812100">
        <ele>308.70</ele>
        <time>2012-05-27T18:30:13Z</time>
      </trkpt>
      <trkpt lat="41.612988000" lon="2.397794100">
        <ele>308.20</ele>
        <time>2012-05-27T18:30:17Z</time>
      </trkpt>
      <trkpt lat="41.612881000" lon="2.397822100">
        <ele>307.30</ele>
        <time>2012-05-27T18:30:24Z</time>
      </trkpt>
      <trkpt lat="41.612770000" lon="2.397823100">
        <ele>306.30</ele>
        <time>2012-05-27T18:30:29Z</time>
      </trkpt>
      <trkpt lat="41.612633000" lon="2.397818100">
        <ele>304.90</ele>
        <time>2012-05-27T18:30:34Z</time>
      </trkpt>
      <trkpt lat="41.612503000" lon="2.397812100">
        <ele>302.00</ele>
        <time>2012-05-27T18:30:40Z</time>
      </trkpt>
      <trkpt lat="41.612419000" lon="2.397830100">
        <ele>298.10</ele>
        <time>2012-05-27T18:30:43Z</time>
      </trkpt>
      <trkpt lat="41.612347000" lon="2.397878100">
        <ele>295.70</ele>
        <time>2012-05-27T18:30:48Z</time>
      </trkpt>
      <trkpt lat="41.612293000" lon="2.397982100">
        <ele>294.80</ele>
        <time>2012-05-27T18:30:54Z</time>
      </trkpt>
      <trkpt lat="41.612286000" lon="2.398029100">
        <ele>294.80</ele>
        <time>2012-05-27T18:30:59Z</time>
      </trkpt>
      <trkpt lat="41.612270000" lon="2.398065100">
        <ele>294.80</ele>
        <time>2012-05-27T18:31:02Z</time>
      </trkpt>
      <trkpt lat="41.612133000" lon="2.398103100">
        <ele>294.30</ele>
        <time>2012-05-27T18:31:09Z</time>
      </trkpt>
      <trkpt lat="41.611954000" lon="2.398204100">
        <ele>293.80</ele>
        <time>2012-05-27T18:31:16Z</time>
      </trkpt>
      <trkpt lat="41.611820000" lon="2.398429100">
        <ele>292.40</ele>
        <time>2012-05-27T18:31:23Z</time>
      </trkpt>
      <trkpt lat="41.611748000" lon="2.398691100">
        <ele>289.50</ele>
        <time>2012-05-27T18:31:28Z</time>
      </trkpt>
      <trkpt lat="41.611725000" lon="2.398797100">
        <ele>288.00</ele>
        <time>2012-05-27T18:31:30Z</time>
      </trkpt>
      <trkpt lat="41.611828000" lon="2.399065100">
        <ele>287.60</ele>
        <time>2012-05-27T18:31:37Z</time>
      </trkpt>
      <trkpt lat="41.611954000" lon="2.399220100">
        <ele>288.00</ele>
        <time>2012-05-27T18:31:42Z</time>
      </trkpt>
      <trkpt lat="41.612068000" lon="2.399357100">
        <ele>288.50</ele>
        <time>2012-05-27T18:31:46Z</time>
      </trkpt>
      <trkpt lat="41.612259000" lon="2.399574100">
        <ele>288.50</ele>
        <time>2012-05-27T18:31:53Z</time>
      </trkpt>
      <trkpt lat="41.612404000" lon="2.399768100">
        <ele>288.50</ele>
        <time>2012-05-27T18:31:58Z</time>
      </trkpt>
      <trkpt lat="41.612514000" lon="2.399821100">
        <ele>288.50</ele>
        <time>2012-05-27T18:32:03Z</time>
      </trkpt>
      <trkpt lat="41.612598000" lon="2.399853100">
        <ele>288.50</ele>
        <time>2012-05-27T18:32:07Z</time>
      </trkpt>
      <trkpt lat="41.612785000" lon="2.399873100">
        <ele>288.00</ele>
        <time>2012-05-27T18:32:14Z</time>
      </trkpt>
      <trkpt lat="41.613014000" lon="2.399904100">
        <ele>288.00</ele>
        <time>2012-05-27T18:32:22Z</time>
      </trkpt>
      <trkpt lat="41.613064000" lon="2.400006100">
        <ele>288.00</ele>
        <time>2012-05-27T18:32:26Z</time>
      </trkpt>
      <trkpt lat="41.612957000" lon="2.400195100">
        <ele>289.50</ele>
        <time>2012-05-27T18:32:33Z</time>
      </trkpt>
      <trkpt lat="41.612827000" lon="2.400338100">
        <ele>290.00</ele>
        <time>2012-05-27T18:32:40Z</time>
      </trkpt>
      <trkpt lat="41.612720000" lon="2.400358100">
        <ele>290.00</ele>
        <time>2012-05-27T18:32:45Z</time>
      </trkpt>
      <trkpt lat="41.612549000" lon="2.400448100">
        <ele>290.00</ele>
        <time>2012-05-27T18:32:52Z</time>
      </trkpt>
      <trkpt lat="41.612381000" lon="2.400568100">
        <ele>288.50</ele>
        <time>2012-05-27T18:32:59Z</time>
      </trkpt>
      <trkpt lat="41.612137000" lon="2.400677100">
        <ele>284.70</ele>
        <time>2012-05-27T18:33:04Z</time>
      </trkpt>
      <trkpt lat="41.612041000" lon="2.400656100">
        <ele>283.20</ele>
        <time>2012-05-27T18:33:06Z</time>
      </trkpt>
      <trkpt lat="41.611950000" lon="2.400639100">
        <ele>281.80</ele>
        <time>2012-05-27T18:33:09Z</time>
      </trkpt>
      <trkpt lat="41.611725000" lon="2.400748100">
        <ele>280.80</ele>
        <time>2012-05-27T18:33:13Z</time>
      </trkpt>
      <trkpt lat="41.611576000" lon="2.400826100">
        <ele>280.80</ele>
        <time>2012-05-27T18:33:16Z</time>
      </trkpt>
      <trkpt lat="41.611488000" lon="2.400878100">
        <ele>280.80</ele>
        <time>2012-05-27T18:33:18Z</time>
      </trkpt>
      <trkpt lat="41.611267000" lon="2.400920100">
        <ele>280.40</ele>
        <time>2012-05-27T18:33:23Z</time>
      </trkpt>
      <trkpt lat="41.611084000" lon="2.400917100">
        <ele>277.00</ele>
        <time>2012-05-27T18:33:29Z</time>
      </trkpt>
      <trkpt lat="41.611023000" lon="2.400908100">
        <ele>273.10</ele>
        <time>2012-05-27T18:33:32Z</time>
      </trkpt>
      <trkpt lat="41.610981000" lon="2.400910100">
        <ele>271.20</ele>
        <time>2012-05-27T18:33:34Z</time>
      </trkpt>
      <trkpt lat="41.610817000" lon="2.400882100">
        <ele>269.80</ele>
        <time>2012-05-27T18:33:41Z</time>
      </trkpt>
      <trkpt lat="41.610798000" lon="2.400892100">
        <ele>269.80</ele>
        <time>2012-05-27T18:33:42Z</time>
      </trkpt>
      <trkpt lat="41.610714000" lon="2.400918100">
        <ele>269.80</ele>
        <time>2012-05-27T18:33:48Z</time>
      </trkpt>
      <trkpt lat="41.610600000" lon="2.400743100">
        <ele>268.40</ele>
        <time>2012-05-27T18:33:53Z</time>
      </trkpt>
      <trkpt lat="41.610577000" lon="2.400720100">
        <ele>267.90</ele>
        <time>2012-05-27T18:33:55Z</time>
      </trkpt>
      <trkpt lat="41.610512000" lon="2.400642100">
        <ele>263.50</ele>
        <time>2012-05-27T18:33:58Z</time>
      </trkpt>
      <trkpt lat="41.610485000" lon="2.400631100">
        <ele>262.60</ele>
        <time>2012-05-27T18:34:00Z</time>
      </trkpt>
      <trkpt lat="41.610355000" lon="2.400610100">
        <ele>260.20</ele>
        <time>2012-05-27T18:34:03Z</time>
      </trkpt>
      <trkpt lat="41.610325000" lon="2.400606100">
        <ele>261.10</ele>
        <time>2012-05-27T18:34:05Z</time>
      </trkpt>
      <trkpt lat="41.610241000" lon="2.400614100">
        <ele>260.60</ele>
        <time>2012-05-27T18:34:09Z</time>
      </trkpt>
      <trkpt lat="41.610184000" lon="2.400588100">
        <ele>260.60</ele>
        <time>2012-05-27T18:34:10Z</time>
      </trkpt>
      <trkpt lat="41.610062000" lon="2.400499100">
        <ele>261.60</ele>
        <time>2012-05-27T18:34:17Z</time>
      </trkpt>
      <trkpt lat="41.609905000" lon="2.400402100">
        <ele>258.20</ele>
        <time>2012-05-27T18:34:23Z</time>
      </trkpt>
      <trkpt lat="41.609879000" lon="2.400372100">
        <ele>257.30</ele>
        <time>2012-05-27T18:34:24Z</time>
      </trkpt>
      <trkpt lat="41.609756000" lon="2.400338100">
        <ele>253.40</ele>
        <time>2012-05-27T18:34:28Z</time>
      </trkpt>
      <trkpt lat="41.609634000" lon="2.400254100">
        <ele>250.60</ele>
        <time>2012-05-27T18:34:33Z</time>
      </trkpt>
      <trkpt lat="41.609447000" lon="2.400109100">
        <ele>248.60</ele>
        <time>2012-05-27T18:34:38Z</time>
      </trkpt>
      <trkpt lat="41.609406000" lon="2.400052100">
        <ele>247.70</ele>
        <time>2012-05-27T18:34:40Z</time>
      </trkpt>
      <trkpt lat="41.609303000" lon="2.399925100">
        <ele>246.70</ele>
        <time>2012-05-27T18:34:45Z</time>
      </trkpt>
      <trkpt lat="41.609379000" lon="2.399868100">
        <ele>246.70</ele>
        <time>2012-05-27T18:34:50Z</time>
      </trkpt>
      <trkpt lat="41.609558000" lon="2.399836100">
        <ele>245.30</ele>
        <time>2012-05-27T18:34:56Z</time>
      </trkpt>
      <trkpt lat="41.609669000" lon="2.399777100">
        <ele>243.80</ele>
        <time>2012-05-27T18:34:59Z</time>
      </trkpt>
      <trkpt lat="41.609783000" lon="2.399661100">
        <ele>240.50</ele>
        <time>2012-05-27T18:35:04Z</time>
      </trkpt>
      <trkpt lat="41.609814000" lon="2.399625100">
        <ele>239.50</ele>
        <time>2012-05-27T18:35:04Z</time>
      </trkpt>
      <trkpt lat="41.609909000" lon="2.399519100">
        <ele>236.10</ele>
        <time>2012-05-27T18:35:08Z</time>
      </trkpt>
      <trkpt lat="41.609882000" lon="2.399416100">
        <ele>234.70</ele>
        <time>2012-05-27T18:35:13Z</time>
      </trkpt>
      <trkpt lat="41.609749000" lon="2.399391100">
        <ele>234.70</ele>
        <time>2012-05-27T18:35:20Z</time>
      </trkpt>
      <trkpt lat="41.609638000" lon="2.399331100">
        <ele>236.10</ele>
        <time>2012-05-27T18:35:24Z</time>
      </trkpt>
      <trkpt lat="41.609444000" lon="2.399249100">
        <ele>236.10</ele>
        <time>2012-05-27T18:35:29Z</time>
      </trkpt>
      <trkpt lat="41.609318000" lon="2.399128100">
        <ele>236.10</ele>
        <time>2012-05-27T18:35:34Z</time>
      </trkpt>
      <trkpt lat="41.609226000" lon="2.398975100">
        <ele>236.10</ele>
        <time>2012-05-27T18:35:39Z</time>
      </trkpt>
      <trkpt lat="41.609211000" lon="2.398958100">
        <ele>235.20</ele>
        <time>2012-05-27T18:35:39Z</time>
      </trkpt>
      <trkpt lat="41.609058000" lon="2.398922100">
        <ele>231.30</ele>
        <time>2012-05-27T18:35:44Z</time>
      </trkpt>
      <trkpt lat="41.608944000" lon="2.398907100">
        <ele>228.00</ele>
        <time>2012-05-27T18:35:48Z</time>
      </trkpt>
      <trkpt lat="41.608887000" lon="2.398886100">
        <ele>225.60</ele>
        <time>2012-05-27T18:35:50Z</time>
      </trkpt>
      <trkpt lat="41.608730000" lon="2.398891100">
        <ele>221.70</ele>
        <time>2012-05-27T18:35:55Z</time>
      </trkpt>
      <trkpt lat="41.608700000" lon="2.398944100">
        <ele>221.20</ele>
        <time>2012-05-27T18:35:58Z</time>
      </trkpt>
      <trkpt lat="41.608562000" lon="2.399062100">
        <ele>221.70</ele>
        <time>2012-05-27T18:36:04Z</time>
      </trkpt>
      <trkpt lat="41.608315000" lon="2.399136100">
        <ele>222.70</ele>
        <time>2012-05-27T18:36:12Z</time>
      </trkpt>
      <trkpt lat="41.608185000" lon="2.399249100">
        <ele>223.60</ele>
        <time>2012-05-27T18:36:16Z</time>
      </trkpt>
      <trkpt lat="41.608009000" lon="2.399314100">
        <ele>225.60</ele>
        <time>2012-05-27T18:36:23Z</time>
      </trkpt>
      <trkpt lat="41.607979000" lon="2.399321100">
        <ele>225.60</ele>
        <time>2012-05-27T18:36:24Z</time>
      </trkpt>
      <trkpt lat="41.607731000" lon="2.399327100">
        <ele>227.00</ele>
        <time>2012-05-27T18:36:33Z</time>
      </trkpt>
      <trkpt lat="41.607548000" lon="2.399364100">
        <ele>228.40</ele>
        <time>2012-05-27T18:36:40Z</time>
      </trkpt>
      <trkpt lat="41.607372000" lon="2.399363100">
        <ele>230.90</ele>
        <time>2012-05-27T18:36:45Z</time>
      </trkpt>
      <trkpt lat="41.607216000" lon="2.399245100">
        <ele>228.00</ele>
        <time>2012-05-27T18:36:49Z</time>
      </trkpt>
      <trkpt lat="41.607113000" lon="2.399189100">
        <ele>224.60</ele>
        <time>2012-05-27T18:36:52Z</time>
      </trkpt>
      <trkpt lat="41.606972000" lon="2.399105100">
        <ele>221.20</ele>
        <time>2012-05-27T18:36:56Z</time>
      </trkpt>
      <trkpt lat="41.606850000" lon="2.399034100">
        <ele>220.30</ele>
        <time>2012-05-27T18:36:59Z</time>
      </trkpt>
      <trkpt lat="41.606766000" lon="2.398995100">
        <ele>220.80</ele>
        <time>2012-05-27T18:37:01Z</time>
      </trkpt>
      <trkpt lat="41.606590000" lon="2.398876100">
        <ele>220.80</ele>
        <time>2012-05-27T18:37:06Z</time>
      </trkpt>
      <trkpt lat="41.606388000" lon="2.398769100">
        <ele>220.80</ele>
        <time>2012-05-27T18:37:10Z</time>
      </trkpt>
      <trkpt lat="41.606262000" lon="2.398692100">
        <ele>219.30</ele>
        <time>2012-05-27T18:37:13Z</time>
      </trkpt>
      <trkpt lat="41.606190000" lon="2.398650100">
        <ele>217.40</ele>
        <time>2012-05-27T18:37:17Z</time>
      </trkpt>
      <trkpt lat="41.606033000" lon="2.398629100">
        <ele>213.10</ele>
        <time>2012-05-27T18:37:22Z</time>
      </trkpt>
      <trkpt lat="41.605743000" lon="2.398582100">
        <ele>211.60</ele>
        <time>2012-05-27T18:37:29Z</time>
      </trkpt>
      <trkpt lat="41.605503000" lon="2.398557100">
        <ele>211.60</ele>
        <time>2012-05-27T18:37:34Z</time>
      </trkpt>
      <trkpt lat="41.605213000" lon="2.398605100">
        <ele>211.10</ele>
        <time>2012-05-27T18:37:41Z</time>
      </trkpt>
      <trkpt lat="41.605019000" lon="2.398688100">
        <ele>211.10</ele>
        <time>2012-05-27T18:37:46Z</time>
      </trkpt>
      <trkpt lat="41.604839000" lon="2.398686100">
        <ele>209.20</ele>
        <time>2012-05-27T18:37:52Z</time>
      </trkpt>
      <trkpt lat="41.604740000" lon="2.398688100">
        <ele>205.90</ele>
        <time>2012-05-27T18:37:55Z</time>
      </trkpt>
      <trkpt lat="41.604622000" lon="2.398665100">
        <ele>202.50</ele>
        <time>2012-05-27T18:37:57Z</time>
      </trkpt>
      <trkpt lat="41.604588000" lon="2.398593100">
        <ele>200.60</ele>
        <time>2012-05-27T18:38:00Z</time>
      </trkpt>
      <trkpt lat="41.604656000" lon="2.398468100">
        <ele>200.10</ele>
        <time>2012-05-27T18:38:04Z</time>
      </trkpt>
      <trkpt lat="41.604694000" lon="2.398427100">
        <ele>200.10</ele>
        <time>2012-05-27T18:38:07Z</time>
      </trkpt>
      <trkpt lat="41.604794000" lon="2.398289100">
        <ele>200.10</ele>
        <time>2012-05-27T18:38:14Z</time>
      </trkpt>
      <trkpt lat="41.604897000" lon="2.398171100">
        <ele>196.20</ele>
        <time>2012-05-27T18:38:18Z</time>
      </trkpt>
      <trkpt lat="41.604946000" lon="2.398150100">
        <ele>193.40</ele>
        <time>2012-05-27T18:38:21Z</time>
      </trkpt>
      <trkpt lat="41.605076000" lon="2.398059100">
        <ele>190.00</ele>
        <time>2012-05-27T18:38:25Z</time>
      </trkpt>
      <trkpt lat="41.605110000" lon="2.398004100">
        <ele>189.00</ele>
        <time>2012-05-27T18:38:25Z</time>
      </trkpt>
      <trkpt lat="41.605156000" lon="2.397901100">
        <ele>187.60</ele>
        <time>2012-05-27T18:38:28Z</time>
      </trkpt>
      <trkpt lat="41.605152000" lon="2.397795100">
        <ele>186.60</ele>
        <time>2012-05-27T18:38:30Z</time>
      </trkpt>
      <trkpt lat="41.605015000" lon="2.397624100">
        <ele>186.60</ele>
        <time>2012-05-27T18:38:37Z</time>
      </trkpt>
      <trkpt lat="41.604973000" lon="2.397574100">
        <ele>188.10</ele>
        <time>2012-05-27T18:38:39Z</time>
      </trkpt>
      <trkpt lat="41.604824000" lon="2.397455100">
        <ele>189.00</ele>
        <time>2012-05-27T18:38:44Z</time>
      </trkpt>
      <trkpt lat="41.604664000" lon="2.397412100">
        <ele>189.50</ele>
        <time>2012-05-27T18:38:51Z</time>
      </trkpt>
      <trkpt lat="41.604500000" lon="2.397352100">
        <ele>189.50</ele>
        <time>2012-05-27T18:38:56Z</time>
      </trkpt>
      <trkpt lat="41.604374000" lon="2.397344100">
        <ele>189.50</ele>
        <time>2012-05-27T18:39:01Z</time>
      </trkpt>
      <trkpt lat="41.604332000" lon="2.397362100">
        <ele>189.50</ele>
        <time>2012-05-27T18:39:01Z</time>
      </trkpt>
      <trkpt lat="41.604126000" lon="2.397342100">
        <ele>189.50</ele>
        <time>2012-05-27T18:39:05Z</time>
      </trkpt>
      <trkpt lat="41.604019000" lon="2.397314100">
        <ele>189.50</ele>
        <time>2012-05-27T18:39:08Z</time>
      </trkpt>
      <trkpt lat="41.603783000" lon="2.397357100">
        <ele>189.50</ele>
        <time>2012-05-27T18:39:12Z</time>
      </trkpt>
      <trkpt lat="41.603729000" lon="2.397375100">
        <ele>188.10</ele>
        <time>2012-05-27T18:39:15Z</time>
      </trkpt>
      <trkpt lat="41.603573000" lon="2.397431100">
        <ele>183.80</ele>
        <time>2012-05-27T18:39:20Z</time>
      </trkpt>
      <trkpt lat="41.603508000" lon="2.397470100">
        <ele>180.40</ele>
        <time>2012-05-27T18:39:22Z</time>
      </trkpt>
      <trkpt lat="41.603474000" lon="2.397485100">
        <ele>179.40</ele>
        <time>2012-05-27T18:39:24Z</time>
      </trkpt>
      <trkpt lat="41.603382000" lon="2.397587100">
        <ele>174.10</ele>
        <time>2012-05-27T18:39:27Z</time>
      </trkpt>
      <trkpt lat="41.603298000" lon="2.397686100">
        <ele>171.70</ele>
        <time>2012-05-27T18:39:31Z</time>
      </trkpt>
      <trkpt lat="41.603210000" lon="2.397762100">
        <ele>171.20</ele>
        <time>2012-05-27T18:39:33Z</time>
      </trkpt>
      <trkpt lat="41.603008000" lon="2.397880100">
        <ele>171.20</ele>
        <time>2012-05-27T18:39:36Z</time>
      </trkpt>
      <trkpt lat="41.602909000" lon="2.397920100">
        <ele>171.20</ele>
        <time>2012-05-27T18:39:38Z</time>
      </trkpt>
      <trkpt lat="41.602749000" lon="2.398044100">
        <ele>168.90</ele>
        <time>2012-05-27T18:39:43Z</time>
      </trkpt>
      <trkpt lat="41.602680000" lon="2.398083100">
        <ele>167.40</ele>
        <time>2012-05-27T18:39:45Z</time>
      </trkpt>
      <trkpt lat="41.602604000" lon="2.398096100">
        <ele>164.00</ele>
        <time>2012-05-27T18:39:50Z</time>
      </trkpt>
      <trkpt lat="41.602375000" lon="2.398177100">
        <ele>163.60</ele>
        <time>2012-05-27T18:39:57Z</time>
      </trkpt>
      <trkpt lat="41.602264000" lon="2.398143100">
        <ele>163.60</ele>
        <time>2012-05-27T18:40:02Z</time>
      </trkpt>
      <trkpt lat="41.601952000" lon="2.398033100">
        <ele>163.10</ele>
        <time>2012-05-27T18:40:09Z</time>
      </trkpt>
      <trkpt lat="41.601860000" lon="2.398020100">
        <ele>163.10</ele>
        <time>2012-05-27T18:40:11Z</time>
      </trkpt>
      <trkpt lat="41.601593000" lon="2.397894100">
        <ele>161.20</ele>
        <time>2012-05-27T18:40:18Z</time>
      </trkpt>
      <trkpt lat="41.601440000" lon="2.397890100">
        <ele>157.80</ele>
        <time>2012-05-27T18:40:23Z</time>
      </trkpt>
      <trkpt lat="41.601341000" lon="2.397722100">
        <ele>155.40</ele>
        <time>2012-05-27T18:40:30Z</time>
      </trkpt>
      <trkpt lat="41.601322000" lon="2.397704100">
        <ele>155.40</ele>
        <time>2012-05-27T18:40:32Z</time>
      </trkpt>
      <trkpt lat="41.601284000" lon="2.397668100">
        <ele>157.30</ele>
        <time>2012-05-27T18:40:34Z</time>
      </trkpt>
      <trkpt lat="41.601158000" lon="2.397614100">
        <ele>160.20</ele>
        <time>2012-05-27T18:40:39Z</time>
      </trkpt>
      <trkpt lat="41.601093000" lon="2.397594100">
        <ele>160.70</ele>
        <time>2012-05-27T18:40:41Z</time>
      </trkpt>
      <trkpt lat="41.600796000" lon="2.397564100">
        <ele>160.70</ele>
        <time>2012-05-27T18:40:49Z</time>
      </trkpt>
      <trkpt lat="41.600628000" lon="2.397595100">
        <ele>159.70</ele>
        <time>2012-05-27T18:40:53Z</time>
      </trkpt>
      <trkpt lat="41.600391000" lon="2.397661100">
        <ele>159.20</ele>
        <time>2012-05-27T18:40:58Z</time>
      </trkpt>
      <trkpt lat="41.600166000" lon="2.397769100">
        <ele>158.30</ele>
        <time>2012-05-27T18:41:05Z</time>
      </trkpt>
      <trkpt lat="41.600021000" lon="2.397947100">
        <ele>158.30</ele>
        <time>2012-05-27T18:41:10Z</time>
      </trkpt>
      <trkpt lat="41.599964000" lon="2.398036100">
        <ele>157.80</ele>
        <time>2012-05-27T18:41:12Z</time>
      </trkpt>
      <trkpt lat="41.599735000" lon="2.398265100">
        <ele>157.30</ele>
        <time>2012-05-27T18:41:19Z</time>
      </trkpt>
      <trkpt lat="41.599628000" lon="2.398328100">
        <ele>157.30</ele>
        <time>2012-05-27T18:41:22Z</time>
      </trkpt>
      <trkpt lat="41.599369000" lon="2.398328100">
        <ele>156.80</ele>
        <time>2012-05-27T18:41:31Z</time>
      </trkpt>
      <trkpt lat="41.599190000" lon="2.398422100">
        <ele>156.80</ele>
        <time>2012-05-27T18:41:36Z</time>
      </trkpt>
      <trkpt lat="41.599022000" lon="2.398685100">
        <ele>156.80</ele>
        <time>2012-05-27T18:41:40Z</time>
      </trkpt>
      <trkpt lat="41.598927000" lon="2.398794100">
        <ele>156.40</ele>
        <time>2012-05-27T18:41:43Z</time>
      </trkpt>
      <trkpt lat="41.598438000" lon="2.399087100">
        <ele>154.90</ele>
        <time>2012-05-27T18:41:50Z</time>
      </trkpt>
      <trkpt lat="41.598198000" lon="2.399200100">
        <ele>154.40</ele>
        <time>2012-05-27T18:41:55Z</time>
      </trkpt>
      <trkpt lat="41.598019000" lon="2.399306100">
        <ele>153.90</ele>
        <time>2012-05-27T18:42:01Z</time>
      </trkpt>
      <trkpt lat="41.597778000" lon="2.399438100">
        <ele>153.50</ele>
        <time>2012-05-27T18:42:08Z</time>
      </trkpt>
      <trkpt lat="41.597496000" lon="2.399597100">
        <ele>153.50</ele>
        <time>2012-05-27T18:42:16Z</time>
      </trkpt>
      <trkpt lat="41.597260000" lon="2.399768100">
        <ele>153.00</ele>
        <time>2012-05-27T18:42:23Z</time>
      </trkpt>
      <trkpt lat="41.597172000" lon="2.399868100">
        <ele>153.00</ele>
        <time>2012-05-27T18:42:25Z</time>
      </trkpt>
      <trkpt lat="41.597103000" lon="2.399955100">
        <ele>152.00</ele>
        <time>2012-05-27T18:42:27Z</time>
      </trkpt>
      <trkpt lat="41.596870000" lon="2.400122100">
        <ele>151.50</ele>
        <time>2012-05-27T18:42:34Z</time>
      </trkpt>
      <trkpt lat="41.596581000" lon="2.400408100">
        <ele>151.10</ele>
        <time>2012-05-27T18:42:42Z</time>
      </trkpt>
      <trkpt lat="41.596375000" lon="2.400733100">
        <ele>151.10</ele>
        <time>2012-05-27T18:42:51Z</time>
      </trkpt>
      <trkpt lat="41.596355000" lon="2.400768100">
        <ele>151.10</ele>
        <time>2012-05-27T18:42:51Z</time>
      </trkpt>
      <trkpt lat="41.596138000" lon="2.400931100">
        <ele>151.10</ele>
        <time>2012-05-27T18:42:58Z</time>
      </trkpt>
      <trkpt lat="41.595970000" lon="2.401147100">
        <ele>152.00</ele>
        <time>2012-05-27T18:43:05Z</time>
      </trkpt>
      <trkpt lat="41.595913000" lon="2.401235100">
        <ele>152.00</ele>
        <time>2012-05-27T18:43:07Z</time>
      </trkpt>
      <trkpt lat="41.595707000" lon="2.401509100">
        <ele>152.00</ele>
        <time>2012-05-27T18:43:12Z</time>
      </trkpt>
      <trkpt lat="41.595646000" lon="2.401604100">
        <ele>152.00</ele>
        <time>2012-05-27T18:43:14Z</time>
      </trkpt>
      <trkpt lat="41.595406000" lon="2.401962100">
        <ele>150.60</ele>
        <time>2012-05-27T18:43:21Z</time>
      </trkpt>
      <trkpt lat="41.595375000" lon="2.402009100">
        <ele>150.60</ele>
        <time>2012-05-27T18:43:23Z</time>
      </trkpt>
      <trkpt lat="41.595257000" lon="2.402234100">
        <ele>149.60</ele>
        <time>2012-05-27T18:43:26Z</time>
      </trkpt>
      <trkpt lat="41.595085000" lon="2.402726100">
        <ele>148.70</ele>
        <time>2012-05-27T18:43:35Z</time>
      </trkpt>
      <trkpt lat="41.594929000" lon="2.403166100">
        <ele>147.70</ele>
        <time>2012-05-27T18:43:42Z</time>
      </trkpt>
      <trkpt lat="41.594814000" lon="2.403506100">
        <ele>146.70</ele>
        <time>2012-05-27T18:43:49Z</time>
      </trkpt>
      <trkpt lat="41.594612000" lon="2.403842100">
        <ele>146.30</ele>
        <time>2012-05-27T18:43:59Z</time>
      </trkpt>
      <trkpt lat="41.594509000" lon="2.404098100">
        <ele>146.30</ele>
        <time>2012-05-27T18:44:04Z</time>
      </trkpt>
      <trkpt lat="41.594421000" lon="2.404260100">
        <ele>145.80</ele>
        <time>2012-05-27T18:44:10Z</time>
      </trkpt>
      <trkpt lat="41.594219000" lon="2.404512100">
        <ele>145.80</ele>
        <time>2012-05-27T18:44:18Z</time>
      </trkpt>
      <trkpt lat="41.594166000" lon="2.404581100">
        <ele>145.30</ele>
        <time>2012-05-27T18:44:20Z</time>
      </trkpt>
      <trkpt lat="41.594219000" lon="2.404826100">
        <ele>145.30</ele>
        <time>2012-05-27T18:44:29Z</time>
      </trkpt>
      <trkpt lat="41.594238000" lon="2.404894100">
        <ele>145.30</ele>
        <time>2012-05-27T18:44:30Z</time>
      </trkpt>
      <trkpt lat="41.594185000" lon="2.405108100">
        <ele>145.30</ele>
        <time>2012-05-27T18:44:39Z</time>
      </trkpt>
      <trkpt lat="41.594154000" lon="2.405260100">
        <ele>145.30</ele>
        <time>2012-05-27T18:44:43Z</time>
      </trkpt>
      <trkpt lat="41.594208000" lon="2.405392100">
        <ele>145.30</ele>
        <time>2012-05-27T18:44:50Z</time>
      </trkpt>
      <trkpt lat="41.594265000" lon="2.405485100">
        <ele>145.30</ele>
        <time>2012-05-27T18:44:53Z</time>
      </trkpt>
      <trkpt lat="41.594288000" lon="2.405574100">
        <ele>145.30</ele>
        <time>2012-05-27T18:45:00Z</time>
      </trkpt>
      <trkpt lat="41.594288000" lon="2.405571100">
        <ele>145.30</ele>
        <time>2012-05-27T18:45:12Z</time>
      </trkpt>
      <trkpt lat="41.594288000" lon="2.405578100">
        <ele>145.30</ele>
        <time>2012-05-27T18:45:40Z</time>
      </trkpt>
      <trkpt lat="41.594414000" lon="2.405633100">
        <ele>145.30</ele>
        <time>2012-05-27T18:45:51Z</time>
      </trkpt>
      <trkpt lat="41.594421000" lon="2.405640100">
        <ele>145.30</ele>
        <time>2012-05-27T18:45:59Z</time>
      </trkpt>
      <trkpt lat="41.594425000" lon="2.405639100">
        <ele>145.30</ele>
        <time>2012-05-27T18:46:10Z</time>
      </trkpt>
      <trkpt lat="41.594425000" lon="2.405640100">
        <ele>145.30</ele>
        <time>2012-05-27T18:46:34Z</time>
      </trkpt>
      <trkpt lat="41.594418000" lon="2.405650100">
        <ele>145.30</ele>
        <time>2012-05-27T18:48:10Z</time>
      </trkpt>
      <trkpt lat="41.594410000" lon="2.405657100">
        <ele>145.30</ele>
        <time>2012-05-27T18:49:23Z</time>
      </trkpt>
      <trkpt lat="41.594410000" lon="2.405661100">
        <ele>146.30</ele>
        <time>2012-05-27T18:50:07Z</time>
      </trkpt>
      <trkpt lat="41.594406000" lon="2.405667100">
        <ele>146.30</ele>
        <time>2012-05-27T18:50:33Z</time>
      </trkpt>
      <trkpt lat="41.594410000" lon="2.405666100">
        <ele>146.30</ele>
        <time>2012-05-27T18:51:25Z</time>
      </trkpt>
      <trkpt lat="41.594406000" lon="2.405675100">
        <ele>146.30</ele>
        <time>2012-05-27T18:52:12Z</time>
      </trkpt>
      <trkpt lat="41.594406000" lon="2.405679100">
        <ele>146.30</ele>
        <time>2012-05-27T18:52:35Z</time>
      </trkpt>
      <trkpt lat="41.594410000" lon="2.405681100">
        <ele>146.30</ele>
        <time>2012-05-27T18:53:25Z</time>
      </trkpt>
      <trkpt lat="41.594406000" lon="2.405681100">
        <ele>146.30</ele>
        <time>2012-05-27T18:54:14Z</time>
      </trkpt>
      <trkpt lat="41.594406000" lon="2.405676100">
        <ele>146.30</ele>
        <time>2012-05-27T18:55:20Z</time>
      </trkpt>
      <trkpt lat="41.594410000" lon="2.405677100">
        <ele>146.30</ele>
        <time>2012-05-27T18:56:04Z</time>
      </trkpt>
      <trkpt lat="41.594410000" lon="2.405679100">
        <ele>146.30</ele>
        <time>2012-05-27T18:56:56Z</time>
      </trkpt>
      <trkpt lat="41.594406000" lon="2.405669100">
        <ele>146.30</ele>
        <time>2012-05-27T18:58:04Z</time>
      </trkpt>
      <trkpt lat="41.594406000" lon="2.405672100">
        <ele>146.30</ele>
        <time>2012-05-27T18:58:46Z</time>
      </trkpt>
      <trkpt lat="41.594410000" lon="2.405679100">
        <ele>146.30</ele>
        <time>2012-05-27T18:59:24Z</time>
      </trkpt>
      <trkpt lat="41.594406000" lon="2.405680100">
        <ele>146.30</ele>
        <time>2012-05-27T18:59:43Z</time>
      </trkpt>
      <trkpt lat="41.594402000" lon="2.405677100">
        <ele>146.30</ele>
        <time>2012-05-27T19:00:04Z</time>
      </trkpt>
      <trkpt lat="41.594402000" lon="2.405673100">
        <ele>146.30</ele>
        <time>2012-05-27T19:00:46Z</time>
      </trkpt>
      <trkpt lat="41.594395000" lon="2.405667100">
        <ele>146.30</ele>
        <time>2012-05-27T19:01:16Z</time>
      </trkpt>
      <trkpt lat="41.594391000" lon="2.405672100">
        <ele>146.30</ele>
        <time>2012-05-27T19:02:01Z</time>
      </trkpt>
      <trkpt lat="41.594391000" lon="2.405669100">
        <ele>146.30</ele>
        <time>2012-05-27T19:02:41Z</time>
      </trkpt>
      <trkpt lat="41.594383000" lon="2.405672100">
        <ele>146.30</ele>
        <time>2012-05-27T19:03:30Z</time>
      </trkpt>
      <trkpt lat="41.594383000" lon="2.405676100">
        <ele>146.30</ele>
        <time>2012-05-27T19:04:05Z</time>
      </trkpt>
      <trkpt lat="41.594383000" lon="2.405674100">
        <ele>147.20</ele>
        <time>2012-05-27T19:04:43Z</time>
      </trkpt>
      <trkpt lat="41.594391000" lon="2.405664100">
        <ele>147.20</ele>
        <time>2012-05-27T19:06:05Z</time>
      </trkpt>
      <trkpt lat="41.594391000" lon="2.405660100">
        <ele>147.20</ele>
        <time>2012-05-27T19:06:55Z</time>
      </trkpt>
      <trkpt lat="41.594395000" lon="2.405658100">
        <ele>147.20</ele>
        <time>2012-05-27T19:07:18Z</time>
      </trkpt>
      <trkpt lat="41.594387000" lon="2.405658100">
        <ele>147.70</ele>
        <time>2012-05-27T19:08:36Z</time>
      </trkpt>
      <trkpt lat="41.594387000" lon="2.405655100">
        <ele>147.70</ele>
        <time>2012-05-27T19:09:18Z</time>
      </trkpt>
      <trkpt lat="41.594395000" lon="2.405669100">
        <ele>147.70</ele>
        <time>2012-05-27T19:09:37Z</time>
      </trkpt>
      <trkpt lat="41.594391000" lon="2.405672100">
        <ele>147.70</ele>
        <time>2012-05-27T19:10:19Z</time>
      </trkpt>
      <trkpt lat="41.594391000" lon="2.405662100">
        <ele>147.70</ele>
        <time>2012-05-27T19:11:04Z</time>
      </trkpt>
      <trkpt lat="41.594398000" lon="2.405655100">
        <ele>147.70</ele>
        <time>2012-05-27T19:11:41Z</time>
      </trkpt>
      <trkpt lat="41.594391000" lon="2.405653100">
        <ele>147.70</ele>
        <time>2012-05-27T19:12:31Z</time>
      </trkpt>
      <trkpt lat="41.594391000" lon="2.405658100">
        <ele>147.70</ele>
        <time>2012-05-27T19:13:03Z</time>
      </trkpt>
      <trkpt lat="41.594387000" lon="2.405663100">
        <ele>147.70</ele>
        <time>2012-05-27T19:13:48Z</time>
      </trkpt>
      <trkpt lat="41.594353000" lon="2.405641100">
        <ele>147.70</ele>
        <time>2012-05-27T19:14:16Z</time>
      </trkpt>
      <trkpt lat="41.594288000" lon="2.405623100">
        <ele>147.70</ele>
        <time>2012-05-27T19:14:21Z</time>
      </trkpt>
      <trkpt lat="41.594280000" lon="2.405640100">
        <ele>147.20</ele>
        <time>2012-05-27T19:14:28Z</time>
      </trkpt>
      <trkpt lat="41.594276000" lon="2.405707100">
        <ele>148.20</ele>
        <time>2012-05-27T19:14:39Z</time>
      </trkpt>
      <trkpt lat="41.594330000" lon="2.405875100">
        <ele>147.70</ele>
        <time>2012-05-27T19:14:44Z</time>
      </trkpt>
      <trkpt lat="41.594273000" lon="2.406067100">
        <ele>147.70</ele>
        <time>2012-05-27T19:14:51Z</time>
      </trkpt>
      <trkpt lat="41.594131000" lon="2.406355100">
        <ele>148.20</ele>
        <time>2012-05-27T19:15:03Z</time>
      </trkpt>
      <trkpt lat="41.594032000" lon="2.406559100">
        <ele>148.70</ele>
        <time>2012-05-27T19:15:10Z</time>
      </trkpt>
      <trkpt lat="41.594021000" lon="2.406584100">
        <ele>148.70</ele>
        <time>2012-05-27T19:15:12Z</time>
      </trkpt>
      <trkpt lat="41.594009000" lon="2.406781100">
        <ele>148.70</ele>
        <time>2012-05-27T19:15:17Z</time>
      </trkpt>
      <trkpt lat="41.594055000" lon="2.406849100">
        <ele>148.70</ele>
        <time>2012-05-27T19:15:24Z</time>
      </trkpt>
      <trkpt lat="41.594055000" lon="2.406842100">
        <ele>148.70</ele>
        <time>2012-05-27T19:15:31Z</time>
      </trkpt>
      <trkpt lat="41.594055000" lon="2.406840100">
        <ele>149.10</ele>
        <time>2012-05-27T19:16:13Z</time>
      </trkpt>
      <trkpt lat="41.594055000" lon="2.406842100">
        <ele>149.10</ele>
        <time>2012-05-27T19:16:44Z</time>
      </trkpt>
      <trkpt lat="41.594051000" lon="2.406822100">
        <ele>149.10</ele>
        <time>2012-05-27T19:16:49Z</time>
      </trkpt>
      <trkpt lat="41.594036000" lon="2.406826100">
        <ele>149.10</ele>
        <time>2012-05-27T19:16:58Z</time>
      </trkpt>
      <trkpt lat="41.594040000" lon="2.406832100">
        <ele>149.10</ele>
        <time>2012-05-27T19:17:38Z</time>
      </trkpt>
      <trkpt lat="41.594051000" lon="2.406841100">
        <ele>149.10</ele>
        <time>2012-05-27T19:18:16Z</time>
      </trkpt>
      <trkpt lat="41.594055000" lon="2.406853100">
        <ele>149.10</ele>
        <time>2012-05-27T19:18:25Z</time>
      </trkpt>
      <trkpt lat="41.594139000" lon="2.406933100">
        <ele>149.10</ele>
        <time>2012-05-27T19:18:30Z</time>
      </trkpt>
      <trkpt lat="41.594307000" lon="2.407044100">
        <ele>149.60</ele>
        <time>2012-05-27T19:18:39Z</time>
      </trkpt>
      <trkpt lat="41.594463000" lon="2.407101100">
        <ele>150.60</ele>
        <time>2012-05-27T19:18:46Z</time>
      </trkpt>
      <trkpt lat="41.594582000" lon="2.407119100">
        <ele>151.10</ele>
        <time>2012-05-27T19:18:49Z</time>
      </trkpt>
      <trkpt lat="41.594830000" lon="2.407258100">
        <ele>151.50</ele>
        <time>2012-05-27T19:18:58Z</time>
      </trkpt>
      <trkpt lat="41.595024000" lon="2.407382100">
        <ele>152.00</ele>
        <time>2012-05-27T19:19:05Z</time>
      </trkpt>
      <trkpt lat="41.595058000" lon="2.407465100">
        <ele>152.00</ele>
        <time>2012-05-27T19:19:07Z</time>
      </trkpt>
      <trkpt lat="41.595097000" lon="2.407845100">
        <ele>152.00</ele>
        <time>2012-05-27T19:19:16Z</time>
      </trkpt>
      <trkpt lat="41.595070000" lon="2.407996100">
        <ele>151.10</ele>
        <time>2012-05-27T19:19:21Z</time>
      </trkpt>
      <trkpt lat="41.595024000" lon="2.408249100">
        <ele>150.60</ele>
        <time>2012-05-27T19:19:28Z</time>
      </trkpt>
      <trkpt lat="41.595024000" lon="2.408483100">
        <ele>150.10</ele>
        <time>2012-05-27T19:19:36Z</time>
      </trkpt>
      <trkpt lat="41.595001000" lon="2.408774100">
        <ele>150.10</ele>
        <time>2012-05-27T19:19:45Z</time>
      </trkpt>
      <trkpt lat="41.594986000" lon="2.408921100">
        <ele>151.50</ele>
        <time>2012-05-27T19:19:49Z</time>
      </trkpt>
      <trkpt lat="41.594994000" lon="2.408962100">
        <ele>151.50</ele>
        <time>2012-05-27T19:19:52Z</time>
      </trkpt>
      <trkpt lat="41.594971000" lon="2.409259100">
        <ele>152.50</ele>
        <time>2012-05-27T19:20:01Z</time>
      </trkpt>
      <trkpt lat="41.594971000" lon="2.409586100">
        <ele>154.40</ele>
        <time>2012-05-27T19:20:10Z</time>
      </trkpt>
      <trkpt lat="41.594959000" lon="2.409885100">
        <ele>155.90</ele>
        <time>2012-05-27T19:20:18Z</time>
      </trkpt>
      <trkpt lat="41.594944000" lon="2.410162100">
        <ele>157.80</ele>
        <time>2012-05-27T19:20:25Z</time>
      </trkpt>
      <trkpt lat="41.594929000" lon="2.410432100">
        <ele>160.20</ele>
        <time>2012-05-27T19:20:34Z</time>
      </trkpt>
      <trkpt lat="41.594925000" lon="2.410571100">
        <ele>163.60</ele>
        <time>2012-05-27T19:20:37Z</time>
      </trkpt>
      <trkpt lat="41.594913000" lon="2.410762100">
        <ele>166.90</ele>
        <time>2012-05-27T19:20:43Z</time>
      </trkpt>
      <trkpt lat="41.594883000" lon="2.410984100">
        <ele>166.40</ele>
        <time>2012-05-27T19:20:51Z</time>
      </trkpt>
      <trkpt lat="41.594788000" lon="2.411031100">
        <ele>166.40</ele>
        <time>2012-05-27T19:20:57Z</time>
      </trkpt>
      <trkpt lat="41.594616000" lon="2.411085100">
        <ele>167.40</ele>
        <time>2012-05-27T19:21:04Z</time>
      </trkpt>
      <trkpt lat="41.594452000" lon="2.411124100">
        <ele>168.40</ele>
        <time>2012-05-27T19:21:11Z</time>
      </trkpt>
      <trkpt lat="41.594288000" lon="2.411205100">
        <ele>169.30</ele>
        <time>2012-05-27T19:21:17Z</time>
      </trkpt>
      <trkpt lat="41.594147000" lon="2.411301100">
        <ele>170.30</ele>
        <time>2012-05-27T19:21:24Z</time>
      </trkpt>
      <trkpt lat="41.593956000" lon="2.411446100">
        <ele>171.20</ele>
        <time>2012-05-27T19:21:33Z</time>
      </trkpt>
      <trkpt lat="41.593784000" lon="2.411599100">
        <ele>173.20</ele>
        <time>2012-05-27T19:21:42Z</time>
      </trkpt>
      <trkpt lat="41.593678000" lon="2.411754100">
        <ele>174.60</ele>
        <time>2012-05-27T19:21:51Z</time>
      </trkpt>
      <trkpt lat="41.593616000" lon="2.411932100">
        <ele>176.10</ele>
        <time>2012-05-27T19:21:59Z</time>
      </trkpt>
      <trkpt lat="41.593571000" lon="2.412100100">
        <ele>177.50</ele>
        <time>2012-05-27T19:22:06Z</time>
      </trkpt>
      <trkpt lat="41.593555000" lon="2.412261100">
        <ele>179.40</ele>
        <time>2012-05-27T19:22:15Z</time>
      </trkpt>
      <trkpt lat="41.593513000" lon="2.412461100">
        <ele>180.40</ele>
        <time>2012-05-27T19:22:22Z</time>
      </trkpt>
      <trkpt lat="41.593491000" lon="2.412505100">
        <ele>180.90</ele>
        <time>2012-05-27T19:22:24Z</time>
      </trkpt>
      <trkpt lat="41.593430000" lon="2.412760100">
        <ele>182.30</ele>
        <time>2012-05-27T19:22:32Z</time>
      </trkpt>
      <trkpt lat="41.593395000" lon="2.412970100">
        <ele>183.30</ele>
        <time>2012-05-27T19:22:41Z</time>
      </trkpt>
      <trkpt lat="41.593395000" lon="2.413072100">
        <ele>183.80</ele>
        <time>2012-05-27T19:22:45Z</time>
      </trkpt>
      <trkpt lat="41.593391000" lon="2.413260100">
        <ele>184.20</ele>
        <time>2012-05-27T19:22:50Z</time>
      </trkpt>
      <trkpt lat="41.593399000" lon="2.413468100">
        <ele>185.20</ele>
        <time>2012-05-27T19:22:57Z</time>
      </trkpt>
      <trkpt lat="41.593426000" lon="2.413724100">
        <ele>186.10</ele>
        <time>2012-05-27T19:23:05Z</time>
      </trkpt>
      <trkpt lat="41.593475000" lon="2.413908100">
        <ele>187.60</ele>
        <time>2012-05-27T19:23:12Z</time>
      </trkpt>
      <trkpt lat="41.593513000" lon="2.414103100">
        <ele>188.60</ele>
        <time>2012-05-27T19:23:19Z</time>
      </trkpt>
      <trkpt lat="41.593506000" lon="2.414148100">
        <ele>188.60</ele>
        <time>2012-05-27T19:23:21Z</time>
      </trkpt>
      <trkpt lat="41.593536000" lon="2.414370100">
        <ele>189.50</ele>
        <time>2012-05-27T19:23:30Z</time>
      </trkpt>
      <trkpt lat="41.593533000" lon="2.414560100">
        <ele>191.00</ele>
        <time>2012-05-27T19:23:37Z</time>
      </trkpt>
      <trkpt lat="41.593525000" lon="2.414751100">
        <ele>191.90</ele>
        <time>2012-05-27T19:23:44Z</time>
      </trkpt>
      <trkpt lat="41.593563000" lon="2.414966100">
        <ele>192.90</ele>
        <time>2012-05-27T19:23:51Z</time>
      </trkpt>
      <trkpt lat="41.593601000" lon="2.415181100">
        <ele>193.40</ele>
        <time>2012-05-27T19:23:58Z</time>
      </trkpt>
      <trkpt lat="41.593586000" lon="2.415375100">
        <ele>193.40</ele>
        <time>2012-05-27T19:24:05Z</time>
      </trkpt>
      <trkpt lat="41.593513000" lon="2.415628100">
        <ele>194.80</ele>
        <time>2012-05-27T19:24:12Z</time>
      </trkpt>
      <trkpt lat="41.593475000" lon="2.416071100">
        <ele>195.30</ele>
        <time>2012-05-27T19:24:22Z</time>
      </trkpt>
      <trkpt lat="41.593441000" lon="2.416548100">
        <ele>195.30</ele>
        <time>2012-05-27T19:24:31Z</time>
      </trkpt>
      <trkpt lat="41.593361000" lon="2.416824100">
        <ele>195.30</ele>
        <time>2012-05-27T19:24:38Z</time>
      </trkpt>
      <trkpt lat="41.593391000" lon="2.417075100">
        <ele>195.30</ele>
        <time>2012-05-27T19:24:43Z</time>
      </trkpt>
      <trkpt lat="41.593529000" lon="2.417422100">
        <ele>195.80</ele>
        <time>2012-05-27T19:24:52Z</time>
      </trkpt>
      <trkpt lat="41.593563000" lon="2.417719100">
        <ele>196.20</ele>
        <time>2012-05-27T19:25:00Z</time>
      </trkpt>
      <trkpt lat="41.593472000" lon="2.417981100">
        <ele>197.70</ele>
        <time>2012-05-27T19:25:09Z</time>
      </trkpt>
      <trkpt lat="41.593445000" lon="2.418128100">
        <ele>198.60</ele>
        <time>2012-05-27T19:25:14Z</time>
      </trkpt>
      <trkpt lat="41.593472000" lon="2.418342100">
        <ele>199.60</ele>
        <time>2012-05-27T19:25:21Z</time>
      </trkpt>
      <trkpt lat="41.593510000" lon="2.418579100">
        <ele>201.10</ele>
        <time>2012-05-27T19:25:30Z</time>
      </trkpt>
      <trkpt lat="41.593525000" lon="2.418659100">
        <ele>201.50</ele>
        <time>2012-05-27T19:25:32Z</time>
      </trkpt>
      <trkpt lat="41.593487000" lon="2.418863100">
        <ele>203.00</ele>
        <time>2012-05-27T19:25:41Z</time>
      </trkpt>
      <trkpt lat="41.593422000" lon="2.419088100">
        <ele>204.40</ele>
        <time>2012-05-27T19:25:48Z</time>
      </trkpt>
      <trkpt lat="41.593357000" lon="2.419306100">
        <ele>205.90</ele>
        <time>2012-05-27T19:25:54Z</time>
      </trkpt>
      <trkpt lat="41.593346000" lon="2.419602100">
        <ele>206.30</ele>
        <time>2012-05-27T19:26:03Z</time>
      </trkpt>
      <trkpt lat="41.593380000" lon="2.419795100">
        <ele>206.30</ele>
        <time>2012-05-27T19:26:07Z</time>
      </trkpt>
      <trkpt lat="41.593407000" lon="2.419918100">
        <ele>206.30</ele>
        <time>2012-05-27T19:26:08Z</time>
      </trkpt>
      <trkpt lat="41.593517000" lon="2.420202100">
        <ele>206.30</ele>
        <time>2012-05-27T19:26:14Z</time>
      </trkpt>
      <trkpt lat="41.593544000" lon="2.420394100">
        <ele>204.40</ele>
        <time>2012-05-27T19:26:17Z</time>
      </trkpt>
      <trkpt lat="41.593590000" lon="2.420659100">
        <ele>201.10</ele>
        <time>2012-05-27T19:26:21Z</time>
      </trkpt>
      <trkpt lat="41.593689000" lon="2.420871100">
        <ele>196.20</ele>
        <time>2012-05-27T19:26:24Z</time>
      </trkpt>
      <trkpt lat="41.593727000" lon="2.420923100">
        <ele>195.80</ele>
        <time>2012-05-27T19:26:26Z</time>
      </trkpt>
      <trkpt lat="41.593769000" lon="2.421164100">
        <ele>191.90</ele>
        <time>2012-05-27T19:26:29Z</time>
      </trkpt>
      <trkpt lat="41.593826000" lon="2.421396100">
        <ele>191.00</ele>
        <time>2012-05-27T19:26:33Z</time>
      </trkpt>
      <trkpt lat="41.593929000" lon="2.421686100">
        <ele>188.10</ele>
        <time>2012-05-27T19:26:36Z</time>
      </trkpt>
      <trkpt lat="41.593937000" lon="2.421762100">
        <ele>187.60</ele>
        <time>2012-05-27T19:26:38Z</time>
      </trkpt>
      <trkpt lat="41.594028000" lon="2.422155100">
        <ele>184.20</ele>
        <time>2012-05-27T19:26:42Z</time>
      </trkpt>
      <trkpt lat="41.594170000" lon="2.422628100">
        <ele>179.40</ele>
        <time>2012-05-27T19:26:45Z</time>
      </trkpt>
      <trkpt lat="41.594193000" lon="2.422746100">
        <ele>178.00</ele>
        <time>2012-05-27T19:26:47Z</time>
      </trkpt>
      <trkpt lat="41.594299000" lon="2.423200100">
        <ele>173.70</ele>
        <time>2012-05-27T19:26:52Z</time>
      </trkpt>
      <trkpt lat="41.594528000" lon="2.423506100">
        <ele>174.10</ele>
        <time>2012-05-27T19:26:57Z</time>
      </trkpt>
      <trkpt lat="41.594578000" lon="2.423728100">
        <ele>174.10</ele>
        <time>2012-05-27T19:26:59Z</time>
      </trkpt>
      <trkpt lat="41.594570000" lon="2.424018100">
        <ele>175.10</ele>
        <time>2012-05-27T19:27:04Z</time>
      </trkpt>
      <trkpt lat="41.594604000" lon="2.424554100">
        <ele>175.10</ele>
        <time>2012-05-27T19:27:13Z</time>
      </trkpt>
      <trkpt lat="41.594624000" lon="2.424714100">
        <ele>175.10</ele>
        <time>2012-05-27T19:27:16Z</time>
      </trkpt>
      <trkpt lat="41.594669000" lon="2.425161100">
        <ele>176.10</ele>
        <time>2012-05-27T19:27:25Z</time>
      </trkpt>
      <trkpt lat="41.594830000" lon="2.425296100">
        <ele>176.50</ele>
        <time>2012-05-27T19:27:32Z</time>
      </trkpt>
      <trkpt lat="41.594845000" lon="2.425319100">
        <ele>176.50</ele>
        <time>2012-05-27T19:27:32Z</time>
      </trkpt>
      <trkpt lat="41.594803000" lon="2.425616100">
        <ele>176.50</ele>
        <time>2012-05-27T19:27:41Z</time>
      </trkpt>
      <trkpt lat="41.594807000" lon="2.425942100">
        <ele>177.00</ele>
        <time>2012-05-27T19:27:48Z</time>
      </trkpt>
      <trkpt lat="41.594810000" lon="2.426241100">
        <ele>177.00</ele>
        <time>2012-05-27T19:27:55Z</time>
      </trkpt>
      <trkpt lat="41.594803000" lon="2.426728100">
        <ele>177.50</ele>
        <time>2012-05-27T19:28:05Z</time>
      </trkpt>
      <trkpt lat="41.594738000" lon="2.426951100">
        <ele>178.50</ele>
        <time>2012-05-27T19:28:10Z</time>
      </trkpt>
      <trkpt lat="41.594727000" lon="2.427041100">
        <ele>178.50</ele>
        <time>2012-05-27T19:28:12Z</time>
      </trkpt>
      <trkpt lat="41.594604000" lon="2.427283100">
        <ele>179.40</ele>
        <time>2012-05-27T19:28:19Z</time>
      </trkpt>
      <trkpt lat="41.594540000" lon="2.427459100">
        <ele>179.40</ele>
        <time>2012-05-27T19:28:24Z</time>
      </trkpt>
      <trkpt lat="41.594498000" lon="2.427727100">
        <ele>179.40</ele>
        <time>2012-05-27T19:28:31Z</time>
      </trkpt>
      <trkpt lat="41.594482000" lon="2.427788100">
        <ele>179.90</ele>
        <time>2012-05-27T19:28:33Z</time>
      </trkpt>
      <trkpt lat="41.594482000" lon="2.427889100">
        <ele>180.40</ele>
        <time>2012-05-27T19:28:40Z</time>
      </trkpt>
      <trkpt lat="41.594482000" lon="2.427745100">
        <ele>180.40</ele>
        <time>2012-05-27T19:28:54Z</time>
      </trkpt>
      <trkpt lat="41.594460000" lon="2.427657100">
        <ele>180.40</ele>
        <time>2012-05-27T19:28:59Z</time>
      </trkpt>
      <trkpt lat="41.594418000" lon="2.427663100">
        <ele>180.40</ele>
        <time>2012-05-27T19:29:03Z</time>
      </trkpt>
      <trkpt lat="41.594353000" lon="2.427595100">
        <ele>178.90</ele>
        <time>2012-05-27T19:29:08Z</time>
      </trkpt>
      <trkpt lat="41.594311000" lon="2.427599100">
        <ele>179.40</ele>
        <time>2012-05-27T19:29:10Z</time>
      </trkpt>
      <trkpt lat="41.594181000" lon="2.427650100">
        <ele>178.50</ele>
        <time>2012-05-27T19:29:15Z</time>
      </trkpt>
      <trkpt lat="41.594082000" lon="2.427701100">
        <ele>178.00</ele>
        <time>2012-05-27T19:29:20Z</time>
      </trkpt>
      <trkpt lat="41.593967000" lon="2.427778100">
        <ele>177.50</ele>
        <time>2012-05-27T19:29:27Z</time>
      </trkpt>
      <trkpt lat="41.593811000" lon="2.427934100">
        <ele>177.50</ele>
        <time>2012-05-27T19:29:34Z</time>
      </trkpt>
      <trkpt lat="41.593563000" lon="2.428061100">
        <ele>177.50</ele>
        <time>2012-05-27T19:29:44Z</time>
      </trkpt>
      <trkpt lat="41.593224000" lon="2.428355100">
        <ele>177.50</ele>
        <time>2012-05-27T19:29:58Z</time>
      </trkpt>
      <trkpt lat="41.593193000" lon="2.428376100">
        <ele>178.50</ele>
        <time>2012-05-27T19:30:00Z</time>
      </trkpt>
      <trkpt lat="41.593052000" lon="2.428513100">
        <ele>178.50</ele>
        <time>2012-05-27T19:30:05Z</time>
      </trkpt>
      <trkpt lat="41.592873000" lon="2.428594100">
        <ele>178.50</ele>
        <time>2012-05-27T19:30:12Z</time>
      </trkpt>
      <trkpt lat="41.592735000" lon="2.428624100">
        <ele>178.50</ele>
        <time>2012-05-27T19:30:16Z</time>
      </trkpt>
      <trkpt lat="41.592567000" lon="2.428627100">
        <ele>178.50</ele>
        <time>2012-05-27T19:30:23Z</time>
      </trkpt>
      <trkpt lat="41.592422000" lon="2.428669100">
        <ele>178.50</ele>
        <time>2012-05-27T19:30:40Z</time>
      </trkpt>
      <trkpt lat="41.592392000" lon="2.428680100">
        <ele>178.50</ele>
        <time>2012-05-27T19:30:47Z</time>
      </trkpt>
      <trkpt lat="41.592293000" lon="2.428703100">
        <ele>178.50</ele>
        <time>2012-05-27T19:30:59Z</time>
      </trkpt>
      <trkpt lat="41.592159000" lon="2.428756100">
        <ele>178.50</ele>
        <time>2012-05-27T19:31:06Z</time>
      </trkpt>
      <trkpt lat="41.592030000" lon="2.428804100">
        <ele>178.90</ele>
        <time>2012-05-27T19:31:12Z</time>
      </trkpt>
      <trkpt lat="41.591873000" lon="2.428868100">
        <ele>178.50</ele>
        <time>2012-05-27T19:31:18Z</time>
      </trkpt>
      <trkpt lat="41.591747000" lon="2.428933100">
        <ele>178.50</ele>
        <time>2012-05-27T19:31:24Z</time>
      </trkpt>
      <trkpt lat="41.591679000" lon="2.429027100">
        <ele>178.50</ele>
        <time>2012-05-27T19:31:27Z</time>
      </trkpt>
      <trkpt lat="41.591541000" lon="2.429206100">
        <ele>178.50</ele>
        <time>2012-05-27T19:31:34Z</time>
      </trkpt>
      <trkpt lat="41.591438000" lon="2.429343100">
        <ele>178.90</ele>
        <time>2012-05-27T19:31:41Z</time>
      </trkpt>
      <trkpt lat="41.591354000" lon="2.429426100">
        <ele>178.90</ele>
        <time>2012-05-27T19:31:48Z</time>
      </trkpt>
      <trkpt lat="41.591213000" lon="2.429597100">
        <ele>178.90</ele>
        <time>2012-05-27T19:32:02Z</time>
      </trkpt>
      <trkpt lat="41.591217000" lon="2.429598100">
        <ele>178.90</ele>
        <time>2012-05-27T19:32:07Z</time>
      </trkpt>
      <trkpt lat="41.591156000" lon="2.429647100">
        <ele>179.40</ele>
        <time>2012-05-27T19:32:14Z</time>
      </trkpt>
      <trkpt lat="41.591122000" lon="2.429804100">
        <ele>179.40</ele>
        <time>2012-05-27T19:32:49Z</time>
      </trkpt>
      <trkpt lat="41.591122000" lon="2.429874100">
        <ele>179.40</ele>
        <time>2012-05-27T19:32:51Z</time>
      </trkpt>
      <trkpt lat="41.591099000" lon="2.430113100">
        <ele>179.40</ele>
        <time>2012-05-27T19:32:58Z</time>
      </trkpt>
      <trkpt lat="41.591114000" lon="2.430171100">
        <ele>179.40</ele>
        <time>2012-05-27T19:33:01Z</time>
      </trkpt>
      <trkpt lat="41.591175000" lon="2.430431100">
        <ele>179.40</ele>
        <time>2012-05-27T19:33:10Z</time>
      </trkpt>
      <trkpt lat="41.591179000" lon="2.430446100">
        <ele>179.40</ele>
        <time>2012-05-27T19:33:10Z</time>
      </trkpt>
      <trkpt lat="41.591213000" lon="2.430560100">
        <ele>179.90</ele>
        <time>2012-05-27T19:33:15Z</time>
      </trkpt>
      <trkpt lat="41.591267000" lon="2.430829100">
        <ele>180.40</ele>
        <time>2012-05-27T19:33:24Z</time>
      </trkpt>
      <trkpt lat="41.591293000" lon="2.430913100">
        <ele>181.40</ele>
        <time>2012-05-27T19:33:31Z</time>
      </trkpt>
      <trkpt lat="41.591293000" lon="2.430913100">
        <ele>181.40</ele>
        <time>2012-05-27T19:33:41Z</time>
      </trkpt>
      <trkpt lat="41.591290000" lon="2.430899100">
        <ele>181.80</ele>
        <time>2012-05-27T19:33:57Z</time>
      </trkpt>
      <trkpt lat="41.591198000" lon="2.430904100">
        <ele>181.80</ele>
        <time>2012-05-27T19:34:02Z</time>
      </trkpt>
      <trkpt lat="41.591129000" lon="2.430938100">
        <ele>181.80</ele>
        <time>2012-05-27T19:34:04Z</time>
      </trkpt>
      <trkpt lat="41.591030000" lon="2.431013100">
        <ele>182.30</ele>
        <time>2012-05-27T19:34:11Z</time>
      </trkpt>
      <trkpt lat="41.591030000" lon="2.431027100">
        <ele>182.30</ele>
        <time>2012-05-27T19:34:13Z</time>
      </trkpt>
      <trkpt lat="41.591084000" lon="2.431168100">
        <ele>183.30</ele>
        <time>2012-05-27T19:34:20Z</time>
      </trkpt>
      <trkpt lat="41.591095000" lon="2.431406100">
        <ele>183.80</ele>
        <time>2012-05-27T19:34:27Z</time>
      </trkpt>
      <trkpt lat="41.591053000" lon="2.431735100">
        <ele>184.20</ele>
        <time>2012-05-27T19:34:35Z</time>
      </trkpt>
      <trkpt lat="41.591011000" lon="2.432006100">
        <ele>184.20</ele>
        <time>2012-05-27T19:34:41Z</time>
      </trkpt>
      <trkpt lat="41.590961000" lon="2.432309100">
        <ele>184.70</ele>
        <time>2012-05-27T19:34:49Z</time>
      </trkpt>
      <trkpt lat="41.590908000" lon="2.432652100">
        <ele>185.70</ele>
        <time>2012-05-27T19:34:56Z</time>
      </trkpt>
      <trkpt lat="41.590916000" lon="2.433002100">
        <ele>186.10</ele>
        <time>2012-05-27T19:35:05Z</time>
      </trkpt>
      <trkpt lat="41.590870000" lon="2.433318100">
        <ele>186.60</ele>
        <time>2012-05-27T19:35:12Z</time>
      </trkpt>
      <trkpt lat="41.590744000" lon="2.433596100">
        <ele>187.10</ele>
        <time>2012-05-27T19:35:19Z</time>
      </trkpt>
      <trkpt lat="41.590714000" lon="2.433677100">
        <ele>187.10</ele>
        <time>2012-05-27T19:35:21Z</time>
      </trkpt>
      <trkpt lat="41.590794000" lon="2.434052100">
        <ele>188.10</ele>
        <time>2012-05-27T19:35:29Z</time>
      </trkpt>
      <trkpt lat="41.590809000" lon="2.434407100">
        <ele>188.60</ele>
        <time>2012-05-27T19:35:38Z</time>
      </trkpt>
      <trkpt lat="41.590836000" lon="2.434748100">
        <ele>189.50</ele>
        <time>2012-05-27T19:35:45Z</time>
      </trkpt>
      <trkpt lat="41.590839000" lon="2.434968100">
        <ele>190.50</ele>
        <time>2012-05-27T19:35:52Z</time>
      </trkpt>
      <trkpt lat="41.590820000" lon="2.435289100">
        <ele>191.00</ele>
        <time>2012-05-27T19:35:59Z</time>
      </trkpt>
      <trkpt lat="41.590832000" lon="2.435591100">
        <ele>191.40</ele>
        <time>2012-05-27T19:36:06Z</time>
      </trkpt>
      <trkpt lat="41.590839000" lon="2.435871100">
        <ele>192.40</ele>
        <time>2012-05-27T19:36:13Z</time>
      </trkpt>
      <trkpt lat="41.590824000" lon="2.435986100">
        <ele>192.40</ele>
        <time>2012-05-27T19:36:15Z</time>
      </trkpt>
      <trkpt lat="41.590843000" lon="2.436321100">
        <ele>192.40</ele>
        <time>2012-05-27T19:36:20Z</time>
      </trkpt>
      <trkpt lat="41.590832000" lon="2.436506100">
        <ele>192.40</ele>
        <time>2012-05-27T19:36:25Z</time>
      </trkpt>
      <trkpt lat="41.590908000" lon="2.436630100">
        <ele>191.40</ele>
        <time>2012-05-27T19:36:30Z</time>
      </trkpt>
      <trkpt lat="41.591000000" lon="2.436854100">
        <ele>191.00</ele>
        <time>2012-05-27T19:36:37Z</time>
      </trkpt>
      <trkpt lat="41.591095000" lon="2.437096100">
        <ele>191.00</ele>
        <time>2012-05-27T19:36:44Z</time>
      </trkpt>
      <trkpt lat="41.591145000" lon="2.437214100">
        <ele>191.00</ele>
        <time>2012-05-27T19:36:48Z</time>
      </trkpt>
      <trkpt lat="41.591248000" lon="2.437268100">
        <ele>191.00</ele>
        <time>2012-05-27T19:36:53Z</time>
      </trkpt>
      <trkpt lat="41.591434000" lon="2.437266100">
        <ele>191.00</ele>
        <time>2012-05-27T19:37:00Z</time>
      </trkpt>
      <trkpt lat="41.591488000" lon="2.437242100">
        <ele>192.40</ele>
        <time>2012-05-27T19:37:07Z</time>
      </trkpt>
      <trkpt lat="41.591507000" lon="2.437239100">
        <ele>192.90</ele>
        <time>2012-05-27T19:37:12Z</time>
      </trkpt>
      <trkpt lat="41.591507000" lon="2.437244100">
        <ele>193.80</ele>
        <time>2012-05-27T19:37:19Z</time>
      </trkpt>
      <trkpt lat="41.591526000" lon="2.437109100">
        <ele>193.80</ele>
        <time>2012-05-27T19:37:28Z</time>
      </trkpt>
      <trkpt lat="41.591599000" lon="2.436892100">
        <ele>194.30</ele>
        <time>2012-05-27T19:37:33Z</time>
      </trkpt>
      <trkpt lat="41.591698000" lon="2.436690100">
        <ele>194.80</ele>
        <time>2012-05-27T19:37:40Z</time>
      </trkpt>
      <trkpt lat="41.591801000" lon="2.436475100">
        <ele>195.30</ele>
        <time>2012-05-27T19:37:47Z</time>
      </trkpt>
      <trkpt lat="41.591892000" lon="2.436240100">
        <ele>196.20</ele>
        <time>2012-05-27T19:37:52Z</time>
      </trkpt>
      <trkpt lat="41.592037000" lon="2.435971100">
        <ele>196.70</ele>
        <time>2012-05-27T19:37:59Z</time>
      </trkpt>
      <trkpt lat="41.592194000" lon="2.435743100">
        <ele>197.20</ele>
        <time>2012-05-27T19:38:06Z</time>
      </trkpt>
      <trkpt lat="41.592350000" lon="2.435555100">
        <ele>197.20</ele>
        <time>2012-05-27T19:38:11Z</time>
      </trkpt>
      <trkpt lat="41.592457000" lon="2.435433100">
        <ele>197.20</ele>
        <time>2012-05-27T19:38:15Z</time>
      </trkpt>
      <trkpt lat="41.592594000" lon="2.435311100">
        <ele>196.70</ele>
        <time>2012-05-27T19:38:18Z</time>
      </trkpt>
      <trkpt lat="41.592850000" lon="2.435254100">
        <ele>196.70</ele>
        <time>2012-05-27T19:38:22Z</time>
      </trkpt>
      <trkpt lat="41.593479000" lon="2.435401100">
        <ele>195.80</ele>
        <time>2012-05-27T19:38:30Z</time>
      </trkpt>
      <trkpt lat="41.593937000" lon="2.435511100">
        <ele>194.80</ele>
        <time>2012-05-27T19:38:37Z</time>
      </trkpt>
      <trkpt lat="41.594120000" lon="2.435550100">
        <ele>194.30</ele>
        <time>2012-05-27T19:38:41Z</time>
      </trkpt>
      <trkpt lat="41.594254000" lon="2.435757100">
        <ele>192.90</ele>
        <time>2012-05-27T19:38:46Z</time>
      </trkpt>
      <trkpt lat="41.594330000" lon="2.435942100">
        <ele>193.40</ele>
        <time>2012-05-27T19:38:50Z</time>
      </trkpt>
      <trkpt lat="41.594395000" lon="2.436081100">
        <ele>193.40</ele>
        <time>2012-05-27T19:38:55Z</time>
      </trkpt>
      <trkpt lat="41.594467000" lon="2.436207100">
        <ele>192.90</ele>
        <time>2012-05-27T19:39:00Z</time>
      </trkpt>
      <trkpt lat="41.594543000" lon="2.436327100">
        <ele>192.90</ele>
        <time>2012-05-27T19:39:07Z</time>
      </trkpt>
      <trkpt lat="41.594738000" lon="2.436655100">
        <ele>192.90</ele>
        <time>2012-05-27T19:39:19Z</time>
      </trkpt>
      <trkpt lat="41.594864000" lon="2.436852100">
        <ele>192.90</ele>
        <time>2012-05-27T19:39:26Z</time>
      </trkpt>
      <trkpt lat="41.594940000" lon="2.437011100">
        <ele>192.90</ele>
        <time>2012-05-27T19:39:31Z</time>
      </trkpt>
      <trkpt lat="41.594978000" lon="2.437273100">
        <ele>192.90</ele>
        <time>2012-05-27T19:39:38Z</time>
      </trkpt>
      <trkpt lat="41.595024000" lon="2.437495100">
        <ele>192.90</ele>
        <time>2012-05-27T19:39:45Z</time>
      </trkpt>
      <trkpt lat="41.595032000" lon="2.437524100">
        <ele>192.90</ele>
        <time>2012-05-27T19:39:45Z</time>
      </trkpt>
      <trkpt lat="41.595047000" lon="2.437851100">
        <ele>193.80</ele>
        <time>2012-05-27T19:39:54Z</time>
      </trkpt>
      <trkpt lat="41.595051000" lon="2.438200100">
        <ele>193.80</ele>
        <time>2012-05-27T19:40:01Z</time>
      </trkpt>
      <trkpt lat="41.595146000" lon="2.438555100">
        <ele>193.80</ele>
        <time>2012-05-27T19:40:08Z</time>
      </trkpt>
      <trkpt lat="41.595287000" lon="2.438928100">
        <ele>195.30</ele>
        <time>2012-05-27T19:40:15Z</time>
      </trkpt>
      <trkpt lat="41.595505000" lon="2.439173100">
        <ele>194.80</ele>
        <time>2012-05-27T19:40:24Z</time>
      </trkpt>
      <trkpt lat="41.595749000" lon="2.439291100">
        <ele>195.80</ele>
        <time>2012-05-27T19:40:31Z</time>
      </trkpt>
      <trkpt lat="41.595879000" lon="2.439291100">
        <ele>196.20</ele>
        <time>2012-05-27T19:40:34Z</time>
      </trkpt>
      <trkpt lat="41.595921000" lon="2.439386100">
        <ele>196.70</ele>
        <time>2012-05-27T19:40:38Z</time>
      </trkpt>
      <trkpt lat="41.595989000" lon="2.439534100">
        <ele>196.70</ele>
        <time>2012-05-27T19:40:46Z</time>
      </trkpt>
      <trkpt lat="41.596012000" lon="2.439551100">
        <ele>196.70</ele>
        <time>2012-05-27T19:40:48Z</time>
      </trkpt>
      <trkpt lat="41.596031000" lon="2.439541100">
        <ele>196.70</ele>
        <time>2012-05-27T19:40:50Z</time>
      </trkpt>
      <trkpt lat="41.596123000" lon="2.439435100">
        <ele>197.20</ele>
        <time>2012-05-27T19:40:57Z</time>
      </trkpt>
      <trkpt lat="41.596279000" lon="2.439507100">
        <ele>196.70</ele>
        <time>2012-05-27T19:41:06Z</time>
      </trkpt>
      <trkpt lat="41.596325000" lon="2.439564100">
        <ele>196.70</ele>
        <time>2012-05-27T19:41:07Z</time>
      </trkpt>
      <trkpt lat="41.596474000" lon="2.439766100">
        <ele>198.20</ele>
        <time>2012-05-27T19:41:14Z</time>
      </trkpt>
      <trkpt lat="41.596653000" lon="2.439980100">
        <ele>199.10</ele>
        <time>2012-05-27T19:41:21Z</time>
      </trkpt>
      <trkpt lat="41.596813000" lon="2.440145100">
        <ele>200.10</ele>
        <time>2012-05-27T19:41:30Z</time>
      </trkpt>
      <trkpt lat="41.596958000" lon="2.440275100">
        <ele>201.50</ele>
        <time>2012-05-27T19:41:35Z</time>
      </trkpt>
      <trkpt lat="41.597080000" lon="2.440352100">
        <ele>203.00</ele>
        <time>2012-05-27T19:41:42Z</time>
      </trkpt>
      <trkpt lat="41.597206000" lon="2.440503100">
        <ele>205.90</ele>
        <time>2012-05-27T19:41:49Z</time>
      </trkpt>
      <trkpt lat="41.597309000" lon="2.440711100">
        <ele>208.30</ele>
        <time>2012-05-27T19:41:56Z</time>
      </trkpt>
      <trkpt lat="41.597435000" lon="2.441105100">
        <ele>208.30</ele>
        <time>2012-05-27T19:42:05Z</time>
      </trkpt>
      <trkpt lat="41.597553000" lon="2.441501100">
        <ele>206.80</ele>
        <time>2012-05-27T19:42:12Z</time>
      </trkpt>
      <trkpt lat="41.597610000" lon="2.441644100">
        <ele>205.90</ele>
        <time>2012-05-27T19:42:15Z</time>
      </trkpt>
      <trkpt lat="41.597797000" lon="2.441960100">
        <ele>205.90</ele>
        <time>2012-05-27T19:42:24Z</time>
      </trkpt>
      <trkpt lat="41.597996000" lon="2.442190100">
        <ele>205.40</ele>
        <time>2012-05-27T19:42:31Z</time>
      </trkpt>
      <trkpt lat="41.598114000" lon="2.442431100">
        <ele>207.30</ele>
        <time>2012-05-27T19:42:38Z</time>
      </trkpt>
      <trkpt lat="41.598183000" lon="2.442769100">
        <ele>208.30</ele>
        <time>2012-05-27T19:42:47Z</time>
      </trkpt>
      <trkpt lat="41.598267000" lon="2.443176100">
        <ele>208.70</ele>
        <time>2012-05-27T19:42:55Z</time>
      </trkpt>
      <trkpt lat="41.598335000" lon="2.443500100">
        <ele>209.20</ele>
        <time>2012-05-27T19:43:02Z</time>
      </trkpt>
      <trkpt lat="41.598419000" lon="2.443907100">
        <ele>209.70</ele>
        <time>2012-05-27T19:43:11Z</time>
      </trkpt>
      <trkpt lat="41.598476000" lon="2.444151100">
        <ele>210.70</ele>
        <time>2012-05-27T19:43:18Z</time>
      </trkpt>
      <trkpt lat="41.598595000" lon="2.444501100">
        <ele>211.10</ele>
        <time>2012-05-27T19:43:28Z</time>
      </trkpt>
      <trkpt lat="41.598736000" lon="2.444867100">
        <ele>212.10</ele>
        <time>2012-05-27T19:43:37Z</time>
      </trkpt>
      <trkpt lat="41.598816000" lon="2.445123100">
        <ele>212.60</ele>
        <time>2012-05-27T19:43:42Z</time>
      </trkpt>
      <trkpt lat="41.598938000" lon="2.445586100">
        <ele>213.60</ele>
        <time>2012-05-27T19:43:53Z</time>
      </trkpt>
      <trkpt lat="41.599018000" lon="2.445794100">
        <ele>214.00</ele>
        <time>2012-05-27T19:43:58Z</time>
      </trkpt>
      <trkpt lat="41.599133000" lon="2.445804100">
        <ele>215.00</ele>
        <time>2012-05-27T19:44:03Z</time>
      </trkpt>
      <trkpt lat="41.599190000" lon="2.445725100">
        <ele>215.90</ele>
        <time>2012-05-27T19:44:07Z</time>
      </trkpt>
      <trkpt lat="41.599300000" lon="2.445695100">
        <ele>219.30</ele>
        <time>2012-05-27T19:44:12Z</time>
      </trkpt>
      <trkpt lat="41.599419000" lon="2.445661100">
        <ele>223.60</ele>
        <time>2012-05-27T19:44:17Z</time>
      </trkpt>
      <trkpt lat="41.599461000" lon="2.445653100">
        <ele>224.60</ele>
        <time>2012-05-27T19:44:22Z</time>
      </trkpt>
      <trkpt lat="41.599461000" lon="2.445653100">
        <ele>224.60</ele>
        <time>2012-05-27T19:44:35Z</time>
      </trkpt>
      <trkpt lat="41.599522000" lon="2.445724100">
        <ele>223.20</ele>
        <time>2012-05-27T19:44:40Z</time>
      </trkpt>
      <trkpt lat="41.599640000" lon="2.445963100">
        <ele>222.20</ele>
        <time>2012-05-27T19:44:47Z</time>
      </trkpt>
      <trkpt lat="41.599678000" lon="2.446059100">
        <ele>222.20</ele>
        <time>2012-05-27T19:44:48Z</time>
      </trkpt>
      <trkpt lat="41.599831000" lon="2.446455100">
        <ele>221.70</ele>
        <time>2012-05-27T19:44:55Z</time>
      </trkpt>
      <trkpt lat="41.600025000" lon="2.446575100">
        <ele>221.70</ele>
        <time>2012-05-27T19:44:59Z</time>
      </trkpt>
      <trkpt lat="41.600147000" lon="2.446591100">
        <ele>221.20</ele>
        <time>2012-05-27T19:45:01Z</time>
      </trkpt>
      <trkpt lat="41.600529000" lon="2.446624100">
        <ele>220.80</ele>
        <time>2012-05-27T19:45:09Z</time>
      </trkpt>
      <trkpt lat="41.600746000" lon="2.446756100">
        <ele>220.80</ele>
        <time>2012-05-27T19:45:15Z</time>
      </trkpt>
      <trkpt lat="41.600880000" lon="2.447134100">
        <ele>220.80</ele>
        <time>2012-05-27T19:45:23Z</time>
      </trkpt>
      <trkpt lat="41.600967000" lon="2.447488100">
        <ele>220.80</ele>
        <time>2012-05-27T19:45:30Z</time>
      </trkpt>
      <trkpt lat="41.601063000" lon="2.447705100">
        <ele>222.20</ele>
        <time>2012-05-27T19:45:37Z</time>
      </trkpt>
      <trkpt lat="41.601124000" lon="2.447772100">
        <ele>222.20</ele>
        <time>2012-05-27T19:45:39Z</time>
      </trkpt>
      <trkpt lat="41.601261000" lon="2.448004100">
        <ele>221.70</ele>
        <time>2012-05-27T19:45:44Z</time>
      </trkpt>
      <trkpt lat="41.601460000" lon="2.448205100">
        <ele>221.70</ele>
        <time>2012-05-27T19:45:48Z</time>
      </trkpt>
      <trkpt lat="41.601471000" lon="2.448355100">
        <ele>221.20</ele>
        <time>2012-05-27T19:45:51Z</time>
      </trkpt>
      <trkpt lat="41.601448000" lon="2.448637100">
        <ele>220.80</ele>
        <time>2012-05-27T19:45:55Z</time>
      </trkpt>
      <trkpt lat="41.601471000" lon="2.448812100">
        <ele>219.80</ele>
        <time>2012-05-27T19:45:58Z</time>
      </trkpt>
      <trkpt lat="41.601494000" lon="2.448926100">
        <ele>219.80</ele>
        <time>2012-05-27T19:46:00Z</time>
      </trkpt>
      <trkpt lat="41.601551000" lon="2.449079100">
        <ele>219.80</ele>
        <time>2012-05-27T19:46:02Z</time>
      </trkpt>
      <trkpt lat="41.601772000" lon="2.449727100">
        <ele>219.80</ele>
        <time>2012-05-27T19:46:17Z</time>
      </trkpt>
      <trkpt lat="41.601803000" lon="2.450133100">
        <ele>219.80</ele>
        <time>2012-05-27T19:46:24Z</time>
      </trkpt>
      <trkpt lat="41.601906000" lon="2.450446100">
        <ele>219.80</ele>
        <time>2012-05-27T19:46:31Z</time>
      </trkpt>
      <trkpt lat="41.602009000" lon="2.450862100">
        <ele>221.70</ele>
        <time>2012-05-27T19:46:42Z</time>
      </trkpt>
      <trkpt lat="41.602058000" lon="2.451120100">
        <ele>222.20</ele>
        <time>2012-05-27T19:46:47Z</time>
      </trkpt>
      <trkpt lat="41.602093000" lon="2.451229100">
        <ele>222.20</ele>
        <time>2012-05-27T19:46:49Z</time>
      </trkpt>
      <trkpt lat="41.602291000" lon="2.451743100">
        <ele>222.20</ele>
        <time>2012-05-27T19:46:59Z</time>
      </trkpt>
      <trkpt lat="41.602329000" lon="2.451913100">
        <ele>222.20</ele>
        <time>2012-05-27T19:47:03Z</time>
      </trkpt>
      <trkpt lat="41.602444000" lon="2.452122100">
        <ele>222.20</ele>
        <time>2012-05-27T19:47:06Z</time>
      </trkpt>
      <trkpt lat="41.602558000" lon="2.452218100">
        <ele>222.20</ele>
        <time>2012-05-27T19:47:10Z</time>
      </trkpt>
      <trkpt lat="41.602787000" lon="2.452556100">
        <ele>220.80</ele>
        <time>2012-05-27T19:47:17Z</time>
      </trkpt>
      <trkpt lat="41.602932000" lon="2.452806100">
        <ele>220.30</ele>
        <time>2012-05-27T19:47:22Z</time>
      </trkpt>
      <trkpt lat="41.603088000" lon="2.452993100">
        <ele>219.30</ele>
        <time>2012-05-27T19:47:25Z</time>
      </trkpt>
      <trkpt lat="41.603287000" lon="2.453027100">
        <ele>219.30</ele>
        <time>2012-05-27T19:47:32Z</time>
      </trkpt>
      <trkpt lat="41.603394000" lon="2.453008100">
        <ele>219.80</ele>
        <time>2012-05-27T19:47:36Z</time>
      </trkpt>
      <trkpt lat="41.603565000" lon="2.453066100">
        <ele>220.80</ele>
        <time>2012-05-27T19:47:43Z</time>
      </trkpt>
      <trkpt lat="41.603771000" lon="2.453174100">
        <ele>221.70</ele>
        <time>2012-05-27T19:47:50Z</time>
      </trkpt>
      <trkpt lat="41.603909000" lon="2.453341100">
        <ele>222.20</ele>
        <time>2012-05-27T19:47:55Z</time>
      </trkpt>
      <trkpt lat="41.603985000" lon="2.453540100">
        <ele>222.70</ele>
        <time>2012-05-27T19:48:00Z</time>
      </trkpt>
      <trkpt lat="41.604057000" lon="2.453847100">
        <ele>223.20</ele>
        <time>2012-05-27T19:48:07Z</time>
      </trkpt>
      <trkpt lat="41.604057000" lon="2.454137100">
        <ele>223.20</ele>
        <time>2012-05-27T19:48:14Z</time>
      </trkpt>
      <trkpt lat="41.603973000" lon="2.454353100">
        <ele>223.60</ele>
        <time>2012-05-27T19:48:21Z</time>
      </trkpt>
      <trkpt lat="41.603916000" lon="2.454642100">
        <ele>224.60</ele>
        <time>2012-05-27T19:48:28Z</time>
      </trkpt>
      <trkpt lat="41.603966000" lon="2.454821100">
        <ele>226.10</ele>
        <time>2012-05-27T19:48:33Z</time>
      </trkpt>
      <trkpt lat="41.603966000" lon="2.454827100">
        <ele>226.10</ele>
        <time>2012-05-27T19:48:40Z</time>
      </trkpt>
      <trkpt lat="41.603973000" lon="2.454810100">
        <ele>226.10</ele>
        <time>2012-05-27T19:48:42Z</time>
      </trkpt>
      <trkpt lat="41.603977000" lon="2.454766100">
        <ele>226.50</ele>
        <time>2012-05-27T19:48:51Z</time>
      </trkpt>
      <trkpt lat="41.603973000" lon="2.454766100">
        <ele>226.50</ele>
        <time>2012-05-27T19:49:01Z</time>
      </trkpt>
      <trkpt lat="41.603977000" lon="2.454768100">
        <ele>226.50</ele>
        <time>2012-05-27T19:50:09Z</time>
      </trkpt>
      <trkpt lat="41.603977000" lon="2.454772100">
        <ele>226.50</ele>
        <time>2012-05-27T19:51:41Z</time>
      </trkpt>
      <trkpt lat="41.603973000" lon="2.454769100">
        <ele>226.50</ele>
        <time>2012-05-27T19:52:09Z</time>
      </trkpt>
      <trkpt lat="41.603973000" lon="2.454767100">
        <ele>226.50</ele>
        <time>2012-05-27T19:52:56Z</time>
      </trkpt>
      <trkpt lat="41.603970000" lon="2.454776100">
        <ele>226.50</ele>
        <time>2012-05-27T19:53:43Z</time>
      </trkpt>
      <trkpt lat="41.603966000" lon="2.454781100">
        <ele>226.50</ele>
        <time>2012-05-27T19:53:50Z</time>
      </trkpt>
      <trkpt lat="41.603989000" lon="2.454973100">
        <ele>226.50</ele>
        <time>2012-05-27T19:54:04Z</time>
      </trkpt>
      <trkpt lat="41.604027000" lon="2.455081100">
        <ele>227.00</ele>
        <time>2012-05-27T19:54:06Z</time>
      </trkpt>
      <trkpt lat="41.604126000" lon="2.455317100">
        <ele>227.00</ele>
        <time>2012-05-27T19:54:13Z</time>
      </trkpt>
      <trkpt lat="41.604233000" lon="2.455505100">
        <ele>227.00</ele>
        <time>2012-05-27T19:54:18Z</time>
      </trkpt>
      <trkpt lat="41.604355000" lon="2.455677100">
        <ele>227.00</ele>
        <time>2012-05-27T19:54:25Z</time>
      </trkpt>
      <trkpt lat="41.604393000" lon="2.455722100">
        <ele>227.00</ele>
        <time>2012-05-27T19:54:27Z</time>
      </trkpt>
      <trkpt lat="41.604591000" lon="2.455868100">
        <ele>227.50</ele>
        <time>2012-05-27T19:54:37Z</time>
      </trkpt>
      <trkpt lat="41.604740000" lon="2.455924100">
        <ele>228.40</ele>
        <time>2012-05-27T19:54:42Z</time>
      </trkpt>
      <trkpt lat="41.604946000" lon="2.456074100">
        <ele>229.90</ele>
        <time>2012-05-27T19:54:51Z</time>
      </trkpt>
      <trkpt lat="41.605030000" lon="2.456199100">
        <ele>232.80</ele>
        <time>2012-05-27T19:54:55Z</time>
      </trkpt>
      <trkpt lat="41.605099000" lon="2.456305100">
        <ele>236.10</ele>
        <time>2012-05-27T19:55:00Z</time>
      </trkpt>
      <trkpt lat="41.605156000" lon="2.456513100">
        <ele>238.50</ele>
        <time>2012-05-27T19:55:07Z</time>
      </trkpt>
      <trkpt lat="41.605194000" lon="2.456829100">
        <ele>238.50</ele>
        <time>2012-05-27T19:55:14Z</time>
      </trkpt>
      <trkpt lat="41.605202000" lon="2.457064100">
        <ele>238.50</ele>
        <time>2012-05-27T19:55:21Z</time>
      </trkpt>
      <trkpt lat="41.605194000" lon="2.457176100">
        <ele>238.50</ele>
        <time>2012-05-27T19:55:24Z</time>
      </trkpt>
      <trkpt lat="41.605221000" lon="2.457424100">
        <ele>238.50</ele>
        <time>2012-05-27T19:55:29Z</time>
      </trkpt>
      <trkpt lat="41.605286000" lon="2.457862100">
        <ele>238.50</ele>
        <time>2012-05-27T19:55:38Z</time>
      </trkpt>
      <trkpt lat="41.605354000" lon="2.458124100">
        <ele>238.50</ele>
        <time>2012-05-27T19:55:45Z</time>
      </trkpt>
      <trkpt lat="41.605412000" lon="2.458365100">
        <ele>239.00</ele>
        <time>2012-05-27T19:55:50Z</time>
      </trkpt>
      <trkpt lat="41.605499000" lon="2.458639100">
        <ele>239.00</ele>
        <time>2012-05-27T19:55:57Z</time>
      </trkpt>
      <trkpt lat="41.605534000" lon="2.458789100">
        <ele>239.50</ele>
        <time>2012-05-27T19:55:59Z</time>
      </trkpt>
      <trkpt lat="41.605518000" lon="2.459096100">
        <ele>239.50</ele>
        <time>2012-05-27T19:56:06Z</time>
      </trkpt>
      <trkpt lat="41.605511000" lon="2.459340100">
        <ele>239.00</ele>
        <time>2012-05-27T19:56:13Z</time>
      </trkpt>
      <trkpt lat="41.605579000" lon="2.459607100">
        <ele>239.00</ele>
        <time>2012-05-27T19:56:18Z</time>
      </trkpt>
      <trkpt lat="41.605751000" lon="2.460038100">
        <ele>239.00</ele>
        <time>2012-05-27T19:56:25Z</time>
      </trkpt>
      <trkpt lat="41.605869000" lon="2.460418100">
        <ele>239.00</ele>
        <time>2012-05-27T19:56:32Z</time>
      </trkpt>
      <trkpt lat="41.605942000" lon="2.460692100">
        <ele>239.50</ele>
        <time>2012-05-27T19:56:39Z</time>
      </trkpt>
      <trkpt lat="41.606052000" lon="2.460976100">
        <ele>239.50</ele>
        <time>2012-05-27T19:56:44Z</time>
      </trkpt>
      <trkpt lat="41.606213000" lon="2.461237100">
        <ele>240.00</ele>
        <time>2012-05-27T19:56:51Z</time>
      </trkpt>
      <trkpt lat="41.606354000" lon="2.461538100">
        <ele>241.40</ele>
        <time>2012-05-27T19:56:58Z</time>
      </trkpt>
      <trkpt lat="41.606453000" lon="2.461741100">
        <ele>241.90</ele>
        <time>2012-05-27T19:57:04Z</time>
      </trkpt>
      <trkpt lat="41.606537000" lon="2.461965100">
        <ele>242.90</ele>
        <time>2012-05-27T19:57:09Z</time>
      </trkpt>
      <trkpt lat="41.606689000" lon="2.462103100">
        <ele>244.30</ele>
        <time>2012-05-27T19:57:16Z</time>
      </trkpt>
      <trkpt lat="41.606876000" lon="2.462187100">
        <ele>244.80</ele>
        <time>2012-05-27T19:57:21Z</time>
      </trkpt>
      <trkpt lat="41.607067000" lon="2.462266100">
        <ele>245.80</ele>
        <time>2012-05-27T19:57:28Z</time>
      </trkpt>
      <trkpt lat="41.607296000" lon="2.462429100">
        <ele>246.20</ele>
        <time>2012-05-27T19:57:35Z</time>
      </trkpt>
      <trkpt lat="41.607574000" lon="2.462723100">
        <ele>247.70</ele>
        <time>2012-05-27T19:57:42Z</time>
      </trkpt>
      <trkpt lat="41.607788000" lon="2.463006100">
        <ele>248.60</ele>
        <time>2012-05-27T19:57:51Z</time>
      </trkpt>
      <trkpt lat="41.607883000" lon="2.463315100">
        <ele>249.10</ele>
        <time>2012-05-27T19:57:58Z</time>
      </trkpt>
      <trkpt lat="41.607895000" lon="2.463634100">
        <ele>249.60</ele>
        <time>2012-05-27T19:58:05Z</time>
      </trkpt>
      <trkpt lat="41.607887000" lon="2.463881100">
        <ele>250.10</ele>
        <time>2012-05-27T19:58:10Z</time>
      </trkpt>
      <trkpt lat="41.607815000" lon="2.464191100">
        <ele>250.10</ele>
        <time>2012-05-27T19:58:15Z</time>
      </trkpt>
      <trkpt lat="41.607845000" lon="2.464458100">
        <ele>250.10</ele>
        <time>2012-05-27T19:58:20Z</time>
      </trkpt>
      <trkpt lat="41.608006000" lon="2.464830100">
        <ele>250.10</ele>
        <time>2012-05-27T19:58:29Z</time>
      </trkpt>
      <trkpt lat="41.608097000" lon="2.465162100">
        <ele>250.10</ele>
        <time>2012-05-27T19:58:36Z</time>
      </trkpt>
      <trkpt lat="41.608173000" lon="2.465473100">
        <ele>250.60</ele>
        <time>2012-05-27T19:58:41Z</time>
      </trkpt>
      <trkpt lat="41.608280000" lon="2.465664100">
        <ele>251.00</ele>
        <time>2012-05-27T19:58:46Z</time>
      </trkpt>
      <trkpt lat="41.608318000" lon="2.465692100">
        <ele>251.00</ele>
        <time>2012-05-27T19:58:48Z</time>
      </trkpt>
      <trkpt lat="41.608482000" lon="2.465979100">
        <ele>251.00</ele>
        <time>2012-05-27T19:58:53Z</time>
      </trkpt>
      <trkpt lat="41.608593000" lon="2.466246100">
        <ele>252.00</ele>
        <time>2012-05-27T19:59:00Z</time>
      </trkpt>
      <trkpt lat="41.608791000" lon="2.466509100">
        <ele>253.00</ele>
        <time>2012-05-27T19:59:07Z</time>
      </trkpt>
      <trkpt lat="41.608986000" lon="2.466727100">
        <ele>253.40</ele>
        <time>2012-05-27T19:59:12Z</time>
      </trkpt>
      <trkpt lat="41.609066000" lon="2.467004100">
        <ele>253.90</ele>
        <time>2012-05-27T19:59:18Z</time>
      </trkpt>
      <trkpt lat="41.609154000" lon="2.467444100">
        <ele>255.40</ele>
        <time>2012-05-27T19:59:28Z</time>
      </trkpt>
      <trkpt lat="41.609150000" lon="2.467830100">
        <ele>256.30</ele>
        <time>2012-05-27T19:59:35Z</time>
      </trkpt>
      <trkpt lat="41.609108000" lon="2.468136100">
        <ele>257.80</ele>
        <time>2012-05-27T19:59:42Z</time>
      </trkpt>
      <trkpt lat="41.609024000" lon="2.468508100">
        <ele>259.20</ele>
        <time>2012-05-27T19:59:51Z</time>
      </trkpt>
      <trkpt lat="41.608875000" lon="2.468940100">
        <ele>259.20</ele>
        <time>2012-05-27T20:00:00Z</time>
      </trkpt>
      <trkpt lat="41.608940000" lon="2.469172100">
        <ele>259.70</ele>
        <time>2012-05-27T20:00:05Z</time>
      </trkpt>
      <trkpt lat="41.609024000" lon="2.469377100">
        <ele>259.70</ele>
        <time>2012-05-27T20:00:08Z</time>
      </trkpt>
      <trkpt lat="41.609188000" lon="2.469726100">
        <ele>260.60</ele>
        <time>2012-05-27T20:00:17Z</time>
      </trkpt>
      <trkpt lat="41.609276000" lon="2.470118100">
        <ele>261.60</ele>
        <time>2012-05-27T20:00:26Z</time>
      </trkpt>
      <trkpt lat="41.609360000" lon="2.470582100">
        <ele>263.10</ele>
        <time>2012-05-27T20:00:36Z</time>
      </trkpt>
      <trkpt lat="41.609467000" lon="2.471073100">
        <ele>264.50</ele>
        <time>2012-05-27T20:00:47Z</time>
      </trkpt>
      <trkpt lat="41.609577000" lon="2.471538100">
        <ele>264.50</ele>
        <time>2012-05-27T20:00:55Z</time>
      </trkpt>
      <trkpt lat="41.609657000" lon="2.471832100">
        <ele>265.50</ele>
        <time>2012-05-27T20:01:02Z</time>
      </trkpt>
      <trkpt lat="41.609829000" lon="2.471966100">
        <ele>265.90</ele>
        <time>2012-05-27T20:01:09Z</time>
      </trkpt>
      <trkpt lat="41.610046000" lon="2.472033100">
        <ele>266.40</ele>
        <time>2012-05-27T20:01:14Z</time>
      </trkpt>
      <trkpt lat="41.610371000" lon="2.472157100">
        <ele>266.90</ele>
        <time>2012-05-27T20:01:23Z</time>
      </trkpt>
      <trkpt lat="41.610592000" lon="2.472286100">
        <ele>267.40</ele>
        <time>2012-05-27T20:01:30Z</time>
      </trkpt>
      <trkpt lat="41.610832000" lon="2.472397100">
        <ele>268.40</ele>
        <time>2012-05-27T20:01:39Z</time>
      </trkpt>
      <trkpt lat="41.611004000" lon="2.472480100">
        <ele>271.70</ele>
        <time>2012-05-27T20:01:46Z</time>
      </trkpt>
      <trkpt lat="41.611065000" lon="2.472514100">
        <ele>274.60</ele>
        <time>2012-05-27T20:01:49Z</time>
      </trkpt>
      <trkpt lat="41.611195000" lon="2.472630100">
        <ele>278.00</ele>
        <time>2012-05-27T20:01:54Z</time>
      </trkpt>
      <trkpt lat="41.611252000" lon="2.472794100">
        <ele>277.50</ele>
        <time>2012-05-27T20:02:01Z</time>
      </trkpt>
      <trkpt lat="41.611275000" lon="2.472866100">
        <ele>277.50</ele>
        <time>2012-05-27T20:02:05Z</time>
      </trkpt>
      <trkpt lat="41.611320000" lon="2.472970100">
        <ele>277.50</ele>
        <time>2012-05-27T20:02:08Z</time>
      </trkpt>
      <trkpt lat="41.611446000" lon="2.473243100">
        <ele>278.90</ele>
        <time>2012-05-27T20:02:21Z</time>
      </trkpt>
      <trkpt lat="41.611530000" lon="2.473341100">
        <ele>282.30</ele>
        <time>2012-05-27T20:02:26Z</time>
      </trkpt>
      <trkpt lat="41.611595000" lon="2.473386100">
        <ele>285.60</ele>
        <time>2012-05-27T20:02:31Z</time>
      </trkpt>
      <trkpt lat="41.611694000" lon="2.473456100">
        <ele>288.00</ele>
        <time>2012-05-27T20:02:36Z</time>
      </trkpt>
      <trkpt lat="41.611824000" lon="2.473513100">
        <ele>288.00</ele>
        <time>2012-05-27T20:02:45Z</time>
      </trkpt>
      <trkpt lat="41.611931000" lon="2.473524100">
        <ele>288.50</ele>
        <time>2012-05-27T20:02:52Z</time>
      </trkpt>
      <trkpt lat="41.612034000" lon="2.473539100">
        <ele>290.00</ele>
        <time>2012-05-27T20:02:57Z</time>
      </trkpt>
      <trkpt lat="41.612137000" lon="2.473651100">
        <ele>290.90</ele>
        <time>2012-05-27T20:03:04Z</time>
      </trkpt>
      <trkpt lat="41.612186000" lon="2.473854100">
        <ele>291.90</ele>
        <time>2012-05-27T20:03:13Z</time>
      </trkpt>
      <trkpt lat="41.612247000" lon="2.474047100">
        <ele>292.90</ele>
        <time>2012-05-27T20:03:20Z</time>
      </trkpt>
      <trkpt lat="41.612335000" lon="2.474296100">
        <ele>293.30</ele>
        <time>2012-05-27T20:03:29Z</time>
      </trkpt>
      <trkpt lat="41.612316000" lon="2.474529100">
        <ele>293.80</ele>
        <time>2012-05-27T20:03:34Z</time>
      </trkpt>
      <trkpt lat="41.612305000" lon="2.474817100">
        <ele>293.80</ele>
        <time>2012-05-27T20:03:41Z</time>
      </trkpt>
      <trkpt lat="41.612305000" lon="2.475063100">
        <ele>293.80</ele>
        <time>2012-05-27T20:03:48Z</time>
      </trkpt>
      <trkpt lat="41.612320000" lon="2.475345100">
        <ele>293.80</ele>
        <time>2012-05-27T20:03:55Z</time>
      </trkpt>
      <trkpt lat="41.612377000" lon="2.475507100">
        <ele>294.30</ele>
        <time>2012-05-27T20:04:02Z</time>
      </trkpt>
      <trkpt lat="41.612465000" lon="2.475711100">
        <ele>295.70</ele>
        <time>2012-05-27T20:04:10Z</time>
      </trkpt>
      <trkpt lat="41.612545000" lon="2.475933100">
        <ele>295.70</ele>
        <time>2012-05-27T20:04:14Z</time>
      </trkpt>
      <trkpt lat="41.612602000" lon="2.476127100">
        <ele>295.70</ele>
        <time>2012-05-27T20:04:21Z</time>
      </trkpt>
      <trkpt lat="41.612686000" lon="2.476313100">
        <ele>296.20</ele>
        <time>2012-05-27T20:04:26Z</time>
      </trkpt>
      <trkpt lat="41.612808000" lon="2.476538100">
        <ele>296.70</ele>
        <time>2012-05-27T20:04:33Z</time>
      </trkpt>
      <trkpt lat="41.612888000" lon="2.476696100">
        <ele>297.20</ele>
        <time>2012-05-27T20:04:38Z</time>
      </trkpt>
      <trkpt lat="41.612988000" lon="2.476950100">
        <ele>297.70</ele>
        <time>2012-05-27T20:04:47Z</time>
      </trkpt>
      <trkpt lat="41.613083000" lon="2.477150100">
        <ele>299.60</ele>
        <time>2012-05-27T20:04:54Z</time>
      </trkpt>
      <trkpt lat="41.613113000" lon="2.477340100">
        <ele>301.00</ele>
        <time>2012-05-27T20:05:01Z</time>
      </trkpt>
      <trkpt lat="41.613098000" lon="2.477506100">
        <ele>304.40</ele>
        <time>2012-05-27T20:05:08Z</time>
      </trkpt>
      <trkpt lat="41.613071000" lon="2.477686100">
        <ele>307.30</ele>
        <time>2012-05-27T20:05:13Z</time>
      </trkpt>
      <trkpt lat="41.613026000" lon="2.477837100">
        <ele>307.30</ele>
        <time>2012-05-27T20:05:20Z</time>
      </trkpt>
      <trkpt lat="41.612957000" lon="2.477983100">
        <ele>307.80</ele>
        <time>2012-05-27T20:05:27Z</time>
      </trkpt>
      <trkpt lat="41.612885000" lon="2.478156100">
        <ele>308.20</ele>
        <time>2012-05-27T20:05:34Z</time>
      </trkpt>
      <trkpt lat="41.612839000" lon="2.478405100">
        <ele>309.20</ele>
        <time>2012-05-27T20:05:41Z</time>
      </trkpt>
      <trkpt lat="41.612812000" lon="2.478625100">
        <ele>309.70</ele>
        <time>2012-05-27T20:05:48Z</time>
      </trkpt>
      <trkpt lat="41.612801000" lon="2.478864100">
        <ele>310.20</ele>
        <time>2012-05-27T20:05:55Z</time>
      </trkpt>
      <trkpt lat="41.612751000" lon="2.479204100">
        <ele>311.60</ele>
        <time>2012-05-27T20:06:05Z</time>
      </trkpt>
      <trkpt lat="41.612705000" lon="2.479531100">
        <ele>312.10</ele>
        <time>2012-05-27T20:06:14Z</time>
      </trkpt>
      <trkpt lat="41.612732000" lon="2.479761100">
        <ele>312.60</ele>
        <time>2012-05-27T20:06:21Z</time>
      </trkpt>
      <trkpt lat="41.612743000" lon="2.479840100">
        <ele>313.50</ele>
        <time>2012-05-27T20:06:23Z</time>
      </trkpt>
      <trkpt lat="41.612831000" lon="2.480063100">
        <ele>315.50</ele>
        <time>2012-05-27T20:06:31Z</time>
      </trkpt>
      <trkpt lat="41.612846000" lon="2.480150100">
        <ele>315.90</ele>
        <time>2012-05-27T20:06:35Z</time>
      </trkpt>
      <trkpt lat="41.612869000" lon="2.480347100">
        <ele>317.90</ele>
        <time>2012-05-27T20:06:42Z</time>
      </trkpt>
      <trkpt lat="41.612873000" lon="2.480377100">
        <ele>317.90</ele>
        <time>2012-05-27T20:06:42Z</time>
      </trkpt>
      <trkpt lat="41.612843000" lon="2.480509100">
        <ele>318.80</ele>
        <time>2012-05-27T20:06:47Z</time>
      </trkpt>
      <trkpt lat="41.612820000" lon="2.480587100">
        <ele>320.30</ele>
        <time>2012-05-27T20:06:51Z</time>
      </trkpt>
      <trkpt lat="41.612808000" lon="2.480648100">
        <ele>322.20</ele>
        <time>2012-05-27T20:06:52Z</time>
      </trkpt>
      <trkpt lat="41.612816000" lon="2.480948100">
        <ele>325.10</ele>
        <time>2012-05-27T20:07:01Z</time>
      </trkpt>
      <trkpt lat="41.612812000" lon="2.481203100">
        <ele>325.10</ele>
        <time>2012-05-27T20:07:08Z</time>
      </trkpt>
      <trkpt lat="41.612793000" lon="2.481359100">
        <ele>323.60</ele>
        <time>2012-05-27T20:07:11Z</time>
      </trkpt>
      <trkpt lat="41.612885000" lon="2.481530100">
        <ele>323.60</ele>
        <time>2012-05-27T20:07:17Z</time>
      </trkpt>
      <trkpt lat="41.612980000" lon="2.481715100">
        <ele>322.20</ele>
        <time>2012-05-27T20:07:22Z</time>
      </trkpt>
      <trkpt lat="41.613018000" lon="2.481995100">
        <ele>321.70</ele>
        <time>2012-05-27T20:07:27Z</time>
      </trkpt>
      <trkpt lat="41.612991000" lon="2.482289100">
        <ele>317.90</ele>
        <time>2012-05-27T20:07:31Z</time>
      </trkpt>
      <trkpt lat="41.613045000" lon="2.482492100">
        <ele>316.90</ele>
        <time>2012-05-27T20:07:36Z</time>
      </trkpt>
      <trkpt lat="41.613075000" lon="2.482626100">
        <ele>320.30</ele>
        <time>2012-05-27T20:07:41Z</time>
      </trkpt>
      <trkpt lat="41.613110000" lon="2.482774100">
        <ele>323.60</ele>
        <time>2012-05-27T20:07:45Z</time>
      </trkpt>
      <trkpt lat="41.613060000" lon="2.483005100">
        <ele>323.60</ele>
        <time>2012-05-27T20:07:50Z</time>
      </trkpt>
      <trkpt lat="41.612972000" lon="2.483208100">
        <ele>323.60</ele>
        <time>2012-05-27T20:07:57Z</time>
      </trkpt>
      <trkpt lat="41.612915000" lon="2.483322100">
        <ele>323.60</ele>
        <time>2012-05-27T20:08:02Z</time>
      </trkpt>
      <trkpt lat="41.612892000" lon="2.483428100">
        <ele>324.10</ele>
        <time>2012-05-27T20:08:05Z</time>
      </trkpt>
      <trkpt lat="41.612862000" lon="2.483619100">
        <ele>325.10</ele>
        <time>2012-05-27T20:08:12Z</time>
      </trkpt>
      <trkpt lat="41.612865000" lon="2.483699100">
        <ele>325.50</ele>
        <time>2012-05-27T20:08:16Z</time>
      </trkpt>
      <trkpt lat="41.612835000" lon="2.483841100">
        <ele>327.00</ele>
        <time>2012-05-27T20:08:21Z</time>
      </trkpt>
      <trkpt lat="41.612827000" lon="2.483870100">
        <ele>327.50</ele>
        <time>2012-05-27T20:08:23Z</time>
      </trkpt>
      <trkpt lat="41.612766000" lon="2.484104100">
        <ele>328.40</ele>
        <time>2012-05-27T20:08:30Z</time>
      </trkpt>
      <trkpt lat="41.612751000" lon="2.484188100">
        <ele>328.90</ele>
        <time>2012-05-27T20:08:33Z</time>
      </trkpt>
      <trkpt lat="41.612659000" lon="2.484380100">
        <ele>330.40</ele>
        <time>2012-05-27T20:08:42Z</time>
      </trkpt>
      <trkpt lat="41.612572000" lon="2.484532100">
        <ele>331.30</ele>
        <time>2012-05-27T20:08:47Z</time>
      </trkpt>
      <trkpt lat="41.612473000" lon="2.484761100">
        <ele>332.80</ele>
        <time>2012-05-27T20:08:56Z</time>
      </trkpt>
      <trkpt lat="41.612400000" lon="2.484938100">
        <ele>334.20</ele>
        <time>2012-05-27T20:09:03Z</time>
      </trkpt>
      <trkpt lat="41.612297000" lon="2.485083100">
        <ele>335.60</ele>
        <time>2012-05-27T20:09:12Z</time>
      </trkpt>
      <trkpt lat="41.612209000" lon="2.485214100">
        <ele>337.10</ele>
        <time>2012-05-27T20:09:19Z</time>
      </trkpt>
      <trkpt lat="41.612152000" lon="2.485334100">
        <ele>338.00</ele>
        <time>2012-05-27T20:09:24Z</time>
      </trkpt>
      <trkpt lat="41.612129000" lon="2.485448100">
        <ele>339.50</ele>
        <time>2012-05-27T20:09:29Z</time>
      </trkpt>
      <trkpt lat="41.612122000" lon="2.485492100">
        <ele>340.00</ele>
        <time>2012-05-27T20:09:31Z</time>
      </trkpt>
      <trkpt lat="41.612114000" lon="2.485528100">
        <ele>340.00</ele>
        <time>2012-05-27T20:09:34Z</time>
      </trkpt>
      <trkpt lat="41.612087000" lon="2.485655100">
        <ele>340.90</ele>
        <time>2012-05-27T20:09:40Z</time>
      </trkpt>
      <trkpt lat="41.612087000" lon="2.485698100">
        <ele>341.40</ele>
        <time>2012-05-27T20:09:41Z</time>
      </trkpt>
      <trkpt lat="41.612106000" lon="2.485900100">
        <ele>343.30</ele>
        <time>2012-05-27T20:09:50Z</time>
      </trkpt>
      <trkpt lat="41.612133000" lon="2.486047100">
        <ele>344.80</ele>
        <time>2012-05-27T20:09:55Z</time>
      </trkpt>
      <trkpt lat="41.612122000" lon="2.486150100">
        <ele>345.70</ele>
        <time>2012-05-27T20:10:00Z</time>
      </trkpt>
      <trkpt lat="41.612125000" lon="2.486332100">
        <ele>346.70</ele>
        <time>2012-05-27T20:10:07Z</time>
      </trkpt>
      <trkpt lat="41.612125000" lon="2.486356100">
        <ele>347.20</ele>
        <time>2012-05-27T20:10:09Z</time>
      </trkpt>
      <trkpt lat="41.612141000" lon="2.486428100">
        <ele>347.60</ele>
        <time>2012-05-27T20:10:11Z</time>
      </trkpt>
      <trkpt lat="41.612194000" lon="2.486561100">
        <ele>349.10</ele>
        <time>2012-05-27T20:10:18Z</time>
      </trkpt>
      <trkpt lat="41.612221000" lon="2.486660100">
        <ele>350.10</ele>
        <time>2012-05-27T20:10:23Z</time>
      </trkpt>
      <trkpt lat="41.612160000" lon="2.486864100">
        <ele>351.50</ele>
        <time>2012-05-27T20:10:34Z</time>
      </trkpt>
      <trkpt lat="41.612122000" lon="2.486982100">
        <ele>352.90</ele>
        <time>2012-05-27T20:10:41Z</time>
      </trkpt>
      <trkpt lat="41.612118000" lon="2.487005100">
        <ele>352.90</ele>
        <time>2012-05-27T20:10:42Z</time>
      </trkpt>
      <trkpt lat="41.612106000" lon="2.487144100">
        <ele>353.90</ele>
        <time>2012-05-27T20:10:49Z</time>
      </trkpt>
      <trkpt lat="41.612087000" lon="2.487285100">
        <ele>355.30</ele>
        <time>2012-05-27T20:10:56Z</time>
      </trkpt>
      <trkpt lat="41.612087000" lon="2.487347100">
        <ele>355.80</ele>
        <time>2012-05-27T20:11:00Z</time>
      </trkpt>
      <trkpt lat="41.612099000" lon="2.487410100">
        <ele>356.30</ele>
        <time>2012-05-27T20:11:03Z</time>
      </trkpt>
      <trkpt lat="41.612095000" lon="2.487451100">
        <ele>356.80</ele>
        <time>2012-05-27T20:11:05Z</time>
      </trkpt>
      <trkpt lat="41.612110000" lon="2.487568100">
        <ele>357.80</ele>
        <time>2012-05-27T20:11:10Z</time>
      </trkpt>
      <trkpt lat="41.612152000" lon="2.487813100">
        <ele>359.20</ele>
        <time>2012-05-27T20:11:19Z</time>
      </trkpt>
      <trkpt lat="41.612179000" lon="2.487952100">
        <ele>359.70</ele>
        <time>2012-05-27T20:11:24Z</time>
      </trkpt>
      <trkpt lat="41.612244000" lon="2.488130100">
        <ele>360.60</ele>
        <time>2012-05-27T20:11:31Z</time>
      </trkpt>
      <trkpt lat="41.612286000" lon="2.488207100">
        <ele>362.10</ele>
        <time>2012-05-27T20:11:35Z</time>
      </trkpt>
      <trkpt lat="41.612274000" lon="2.488340100">
        <ele>362.50</ele>
        <time>2012-05-27T20:11:40Z</time>
      </trkpt>
      <trkpt lat="41.612156000" lon="2.488426100">
        <ele>363.50</ele>
        <time>2012-05-27T20:11:47Z</time>
      </trkpt>
      <trkpt lat="41.612125000" lon="2.488454100">
        <ele>364.50</ele>
        <time>2012-05-27T20:11:50Z</time>
      </trkpt>
      <trkpt lat="41.612091000" lon="2.488553100">
        <ele>365.00</ele>
        <time>2012-05-27T20:11:57Z</time>
      </trkpt>
      <trkpt lat="41.612122000" lon="2.488744100">
        <ele>365.90</ele>
        <time>2012-05-27T20:12:04Z</time>
      </trkpt>
      <trkpt lat="41.612144000" lon="2.488909100">
        <ele>366.40</ele>
        <time>2012-05-27T20:12:11Z</time>
      </trkpt>
      <trkpt lat="41.612167000" lon="2.489041100">
        <ele>366.90</ele>
        <time>2012-05-27T20:12:16Z</time>
      </trkpt>
      <trkpt lat="41.612160000" lon="2.489210100">
        <ele>368.30</ele>
        <time>2012-05-27T20:12:23Z</time>
      </trkpt>
      <trkpt lat="41.612114000" lon="2.489344100">
        <ele>369.80</ele>
        <time>2012-05-27T20:12:30Z</time>
      </trkpt>
      <trkpt lat="41.612091000" lon="2.489440100">
        <ele>370.70</ele>
        <time>2012-05-27T20:12:34Z</time>
      </trkpt>
      <trkpt lat="41.612095000" lon="2.489525100">
        <ele>371.70</ele>
        <time>2012-05-27T20:12:37Z</time>
      </trkpt>
      <trkpt lat="41.612137000" lon="2.489714100">
        <ele>372.60</ele>
        <time>2012-05-27T20:12:46Z</time>
      </trkpt>
      <trkpt lat="41.612114000" lon="2.489884100">
        <ele>374.60</ele>
        <time>2012-05-27T20:12:53Z</time>
      </trkpt>
      <trkpt lat="41.612106000" lon="2.489907100">
        <ele>374.60</ele>
        <time>2012-05-27T20:12:53Z</time>
      </trkpt>
      <trkpt lat="41.612064000" lon="2.490040100">
        <ele>375.50</ele>
        <time>2012-05-27T20:13:00Z</time>
      </trkpt>
      <trkpt lat="41.612041000" lon="2.490115100">
        <ele>377.00</ele>
        <time>2012-05-27T20:13:05Z</time>
      </trkpt>
      <trkpt lat="41.611973000" lon="2.490263100">
        <ele>377.90</ele>
        <time>2012-05-27T20:13:12Z</time>
      </trkpt>
      <trkpt lat="41.611965000" lon="2.490311100">
        <ele>378.40</ele>
        <time>2012-05-27T20:13:14Z</time>
      </trkpt>
      <trkpt lat="41.611919000" lon="2.490460100">
        <ele>380.30</ele>
        <time>2012-05-27T20:13:21Z</time>
      </trkpt>
      <trkpt lat="41.611893000" lon="2.490581100">
        <ele>384.20</ele>
        <time>2012-05-27T20:13:28Z</time>
      </trkpt>
      <trkpt lat="41.611877000" lon="2.490653100">
        <ele>387.50</ele>
        <time>2012-05-27T20:13:33Z</time>
      </trkpt>
      <trkpt lat="41.611862000" lon="2.490778100">
        <ele>388.50</ele>
        <time>2012-05-27T20:13:40Z</time>
      </trkpt>
      <trkpt lat="41.611862000" lon="2.490842100">
        <ele>388.50</ele>
        <time>2012-05-27T20:13:42Z</time>
      </trkpt>
      <trkpt lat="41.611870000" lon="2.491015100">
        <ele>388.50</ele>
        <time>2012-05-27T20:13:50Z</time>
      </trkpt>
      <trkpt lat="41.611858000" lon="2.491180100">
        <ele>388.50</ele>
        <time>2012-05-27T20:13:57Z</time>
      </trkpt>
      <trkpt lat="41.611828000" lon="2.491340100">
        <ele>389.00</ele>
        <time>2012-05-27T20:14:04Z</time>
      </trkpt>
      <trkpt lat="41.611862000" lon="2.491458100">
        <ele>389.00</ele>
        <time>2012-05-27T20:14:10Z</time>
      </trkpt>
      <trkpt lat="41.611954000" lon="2.491725100">
        <ele>390.90</ele>
        <time>2012-05-27T20:14:20Z</time>
      </trkpt>
      <trkpt lat="41.612026000" lon="2.491928100">
        <ele>392.80</ele>
        <time>2012-05-27T20:14:29Z</time>
      </trkpt>
      <trkpt lat="41.612103000" lon="2.492078100">
        <ele>393.30</ele>
        <time>2012-05-27T20:14:36Z</time>
      </trkpt>
      <trkpt lat="41.612232000" lon="2.492176100">
        <ele>394.80</ele>
        <time>2012-05-27T20:14:43Z</time>
      </trkpt>
      <trkpt lat="41.612282000" lon="2.492220100">
        <ele>394.80</ele>
        <time>2012-05-27T20:14:46Z</time>
      </trkpt>
      <trkpt lat="41.612255000" lon="2.492367100">
        <ele>395.70</ele>
        <time>2012-05-27T20:14:51Z</time>
      </trkpt>
      <trkpt lat="41.612167000" lon="2.492480100">
        <ele>396.20</ele>
        <time>2012-05-27T20:14:58Z</time>
      </trkpt>
      <trkpt lat="41.612141000" lon="2.492556100">
        <ele>396.70</ele>
        <time>2012-05-27T20:15:02Z</time>
      </trkpt>
      <trkpt lat="41.612144000" lon="2.492722100">
        <ele>397.20</ele>
        <time>2012-05-27T20:15:07Z</time>
      </trkpt>
      <trkpt lat="41.612144000" lon="2.493016100">
        <ele>397.60</ele>
        <time>2012-05-27T20:15:16Z</time>
      </trkpt>
      <trkpt lat="41.612175000" lon="2.493222100">
        <ele>399.10</ele>
        <time>2012-05-27T20:15:23Z</time>
      </trkpt>
      <trkpt lat="41.612206000" lon="2.493446100">
        <ele>399.60</ele>
        <time>2012-05-27T20:15:30Z</time>
      </trkpt>
      <trkpt lat="41.612324000" lon="2.493646100">
        <ele>400.00</ele>
        <time>2012-05-27T20:15:40Z</time>
      </trkpt>
      <trkpt lat="41.612446000" lon="2.493765100">
        <ele>401.50</ele>
        <time>2012-05-27T20:15:47Z</time>
      </trkpt>
      <trkpt lat="41.612473000" lon="2.493921100">
        <ele>402.50</ele>
        <time>2012-05-27T20:15:54Z</time>
      </trkpt>
      <trkpt lat="41.612339000" lon="2.494028100">
        <ele>404.40</ele>
        <time>2012-05-27T20:16:03Z</time>
      </trkpt>
      <trkpt lat="41.612312000" lon="2.494073100">
        <ele>406.30</ele>
        <time>2012-05-27T20:16:06Z</time>
      </trkpt>
      <trkpt lat="41.612293000" lon="2.494177100">
        <ele>408.20</ele>
        <time>2012-05-27T20:16:10Z</time>
      </trkpt>
      <trkpt lat="41.612270000" lon="2.494356100">
        <ele>408.70</ele>
        <time>2012-05-27T20:16:17Z</time>
      </trkpt>
      <trkpt lat="41.612232000" lon="2.494483100">
        <ele>408.70</ele>
        <time>2012-05-27T20:16:24Z</time>
      </trkpt>
      <trkpt lat="41.612175000" lon="2.494605100">
        <ele>408.70</ele>
        <time>2012-05-27T20:16:29Z</time>
      </trkpt>
      <trkpt lat="41.612099000" lon="2.494740100">
        <ele>410.10</ele>
        <time>2012-05-27T20:16:36Z</time>
      </trkpt>
      <trkpt lat="41.612087000" lon="2.494849100">
        <ele>410.60</ele>
        <time>2012-05-27T20:16:41Z</time>
      </trkpt>
      <trkpt lat="41.612114000" lon="2.494890100">
        <ele>411.10</ele>
        <time>2012-05-27T20:16:45Z</time>
      </trkpt>
      <trkpt lat="41.612209000" lon="2.494787100">
        <ele>413.50</ele>
        <time>2012-05-27T20:16:55Z</time>
      </trkpt>
      <trkpt lat="41.612236000" lon="2.494746100">
        <ele>414.50</ele>
        <time>2012-05-27T20:16:57Z</time>
      </trkpt>
      <trkpt lat="41.612335000" lon="2.494594100">
        <ele>415.90</ele>
        <time>2012-05-27T20:17:05Z</time>
      </trkpt>
      <trkpt lat="41.612400000" lon="2.494518100">
        <ele>416.40</ele>
        <time>2012-05-27T20:17:11Z</time>
      </trkpt>
      <trkpt lat="41.612469000" lon="2.494582100">
        <ele>417.80</ele>
        <time>2012-05-27T20:17:16Z</time>
      </trkpt>
      <trkpt lat="41.612442000" lon="2.494740100">
        <ele>419.80</ele>
        <time>2012-05-27T20:17:25Z</time>
      </trkpt>
      <trkpt lat="41.612419000" lon="2.494877100">
        <ele>420.70</ele>
        <time>2012-05-27T20:17:32Z</time>
      </trkpt>
      <trkpt lat="41.612423000" lon="2.494998100">
        <ele>421.70</ele>
        <time>2012-05-27T20:17:37Z</time>
      </trkpt>
      <trkpt lat="41.612457000" lon="2.495209100">
        <ele>423.60</ele>
        <time>2012-05-27T20:17:46Z</time>
      </trkpt>
      <trkpt lat="41.612492000" lon="2.495387100">
        <ele>425.00</ele>
        <time>2012-05-27T20:17:54Z</time>
      </trkpt>
      <trkpt lat="41.612534000" lon="2.495554100">
        <ele>426.50</ele>
        <time>2012-05-27T20:18:01Z</time>
      </trkpt>
      <trkpt lat="41.612572000" lon="2.495717100">
        <ele>427.40</ele>
        <time>2012-05-27T20:18:08Z</time>
      </trkpt>
      <trkpt lat="41.612576000" lon="2.495745100">
        <ele>427.40</ele>
        <time>2012-05-27T20:18:13Z</time>
      </trkpt>
      <trkpt lat="41.612576000" lon="2.495745100">
        <ele>427.40</ele>
        <time>2012-05-27T20:18:27Z</time>
      </trkpt>
      <trkpt lat="41.612583000" lon="2.495792100">
        <ele>427.90</ele>
        <time>2012-05-27T20:18:53Z</time>
      </trkpt>
      <trkpt lat="41.612579000" lon="2.495908100">
        <ele>427.90</ele>
        <time>2012-05-27T20:18:57Z</time>
      </trkpt>
      <trkpt lat="41.612602000" lon="2.496107100">
        <ele>427.90</ele>
        <time>2012-05-27T20:18:59Z</time>
      </trkpt>
      <trkpt lat="41.612717000" lon="2.496449100">
        <ele>426.50</ele>
        <time>2012-05-27T20:19:04Z</time>
      </trkpt>
      <trkpt lat="41.612747000" lon="2.496536100">
        <ele>426.00</ele>
        <time>2012-05-27T20:19:06Z</time>
      </trkpt>
      <trkpt lat="41.612915000" lon="2.497048100">
        <ele>420.70</ele>
        <time>2012-05-27T20:19:11Z</time>
      </trkpt>
      <trkpt lat="41.612984000" lon="2.497225100">
        <ele>418.30</ele>
        <time>2012-05-27T20:19:13Z</time>
      </trkpt>
      <trkpt lat="41.613201000" lon="2.497380100">
        <ele>414.00</ele>
        <time>2012-05-27T20:19:16Z</time>
      </trkpt>
      <trkpt lat="41.613419000" lon="2.497323100">
        <ele>413.50</ele>
        <time>2012-05-27T20:19:20Z</time>
      </trkpt>
      <trkpt lat="41.613583000" lon="2.497447100">
        <ele>412.10</ele>
        <time>2012-05-27T20:19:23Z</time>
      </trkpt>
      <trkpt lat="41.613621000" lon="2.497518100">
        <ele>412.10</ele>
        <time>2012-05-27T20:19:23Z</time>
      </trkpt>
      <trkpt lat="41.613697000" lon="2.497679100">
        <ele>412.10</ele>
        <time>2012-05-27T20:19:25Z</time>
      </trkpt>
      <trkpt lat="41.613918000" lon="2.497798100">
        <ele>412.10</ele>
        <time>2012-05-27T20:19:30Z</time>
      </trkpt>
      <trkpt lat="41.614136000" lon="2.497652100">
        <ele>408.70</ele>
        <time>2012-05-27T20:19:34Z</time>
      </trkpt>
      <trkpt lat="41.614174000" lon="2.497602100">
        <ele>407.30</ele>
        <time>2012-05-27T20:19:35Z</time>
      </trkpt>
      <trkpt lat="41.614246000" lon="2.497480100">
        <ele>402.90</ele>
        <time>2012-05-27T20:19:37Z</time>
      </trkpt>
      <trkpt lat="41.614292000" lon="2.497495100">
        <ele>400.00</ele>
        <time>2012-05-27T20:19:41Z</time>
      </trkpt>
      <trkpt lat="41.614269000" lon="2.497561100">
        <ele>398.60</ele>
        <time>2012-05-27T20:19:42Z</time>
      </trkpt>
      <trkpt lat="41.614140000" lon="2.497865100">
        <ele>398.10</ele>
        <time>2012-05-27T20:19:49Z</time>
      </trkpt>
      <trkpt lat="41.614017000" lon="2.498104100">
        <ele>396.20</ele>
        <time>2012-05-27T20:19:54Z</time>
      </trkpt>
      <trkpt lat="41.613869000" lon="2.498310100">
        <ele>390.90</ele>
        <time>2012-05-27T20:19:58Z</time>
      </trkpt>
      <trkpt lat="41.613785000" lon="2.498454100">
        <ele>387.50</ele>
        <time>2012-05-27T20:20:00Z</time>
      </trkpt>
      <trkpt lat="41.613750000" lon="2.498524100">
        <ele>385.60</ele>
        <time>2012-05-27T20:20:01Z</time>
      </trkpt>
      <trkpt lat="41.613598000" lon="2.498624100">
        <ele>379.90</ele>
        <time>2012-05-27T20:20:05Z</time>
      </trkpt>
      <trkpt lat="41.613499000" lon="2.498593100">
        <ele>378.40</ele>
        <time>2012-05-27T20:20:07Z</time>
      </trkpt>
      <trkpt lat="41.613411000" lon="2.498536100">
        <ele>377.00</ele>
        <time>2012-05-27T20:20:10Z</time>
      </trkpt>
      <trkpt lat="41.613213000" lon="2.498550100">
        <ele>375.00</ele>
        <time>2012-05-27T20:20:14Z</time>
      </trkpt>
      <trkpt lat="41.613163000" lon="2.498750100">
        <ele>371.20</ele>
        <time>2012-05-27T20:20:19Z</time>
      </trkpt>
      <trkpt lat="41.613186000" lon="2.498797100">
        <ele>370.20</ele>
        <time>2012-05-27T20:20:19Z</time>
      </trkpt>
      <trkpt lat="41.613251000" lon="2.498897100">
        <ele>367.80</ele>
        <time>2012-05-27T20:20:22Z</time>
      </trkpt>
      <trkpt lat="41.613335000" lon="2.499151100">
        <ele>363.00</ele>
        <time>2012-05-27T20:20:26Z</time>
      </trkpt>
      <trkpt lat="41.613354000" lon="2.499263100">
        <ele>361.10</ele>
        <time>2012-05-27T20:20:29Z</time>
      </trkpt>
      <trkpt lat="41.613461000" lon="2.499434100">
        <ele>358.70</ele>
        <time>2012-05-27T20:20:36Z</time>
      </trkpt>
      <trkpt lat="41.613480000" lon="2.499437100">
        <ele>359.20</ele>
        <time>2012-05-27T20:20:38Z</time>
      </trkpt>
      <trkpt lat="41.613602000" lon="2.499531100">
        <ele>356.80</ele>
        <time>2012-05-27T20:20:45Z</time>
      </trkpt>
      <trkpt lat="41.613628000" lon="2.499586100">
        <ele>354.40</ele>
        <time>2012-05-27T20:20:47Z</time>
      </trkpt>
      <trkpt lat="41.613667000" lon="2.499710100">
        <ele>351.50</ele>
        <time>2012-05-27T20:20:52Z</time>
      </trkpt>
      <trkpt lat="41.613762000" lon="2.499897100">
        <ele>348.10</ele>
        <time>2012-05-27T20:20:57Z</time>
      </trkpt>
      <trkpt lat="41.613869000" lon="2.500206100">
        <ele>344.80</ele>
        <time>2012-05-27T20:21:01Z</time>
      </trkpt>
      <trkpt lat="41.614052000" lon="2.500520100">
        <ele>340.90</ele>
        <time>2012-05-27T20:21:06Z</time>
      </trkpt>
      <trkpt lat="41.614105000" lon="2.500612100">
        <ele>339.50</ele>
        <time>2012-05-27T20:21:06Z</time>
      </trkpt>
      <trkpt lat="41.614212000" lon="2.500909100">
        <ele>334.70</ele>
        <time>2012-05-27T20:21:09Z</time>
      </trkpt>
      <trkpt lat="41.614243000" lon="2.501004100">
        <ele>332.30</ele>
        <time>2012-05-27T20:21:11Z</time>
      </trkpt>
      <trkpt lat="41.614399000" lon="2.501207100">
        <ele>327.50</ele>
        <time>2012-05-27T20:21:13Z</time>
      </trkpt>
      <trkpt lat="41.614479000" lon="2.501259100">
        <ele>326.50</ele>
        <time>2012-05-27T20:21:15Z</time>
      </trkpt>
      <trkpt lat="41.614632000" lon="2.501360100">
        <ele>325.10</ele>
        <time>2012-05-27T20:21:16Z</time>
      </trkpt>
      <trkpt lat="41.614811000" lon="2.501386100">
        <ele>325.10</ele>
        <time>2012-05-27T20:21:20Z</time>
      </trkpt>
      <trkpt lat="41.614918000" lon="2.501466100">
        <ele>325.10</ele>
        <time>2012-05-27T20:21:25Z</time>
      </trkpt>
      <trkpt lat="41.614902000" lon="2.501690100">
        <ele>325.10</ele>
        <time>2012-05-27T20:21:30Z</time>
      </trkpt>
      <trkpt lat="41.614910000" lon="2.501730100">
        <ele>325.10</ele>
        <time>2012-05-27T20:21:30Z</time>
      </trkpt>
      <trkpt lat="41.614933000" lon="2.501924100">
        <ele>326.00</ele>
        <time>2012-05-27T20:21:34Z</time>
      </trkpt>
      <trkpt lat="41.614979000" lon="2.502113100">
        <ele>326.00</ele>
        <time>2012-05-27T20:21:37Z</time>
      </trkpt>
      <trkpt lat="41.615078000" lon="2.502542100">
        <ele>326.50</ele>
        <time>2012-05-27T20:21:42Z</time>
      </trkpt>
      <trkpt lat="41.615227000" lon="2.502954100">
        <ele>324.60</ele>
        <time>2012-05-27T20:21:48Z</time>
      </trkpt>
      <trkpt lat="41.615269000" lon="2.503017100">
        <ele>324.60</ele>
        <time>2012-05-27T20:21:48Z</time>
      </trkpt>
      <trkpt lat="41.615379000" lon="2.503356100">
        <ele>325.10</ele>
        <time>2012-05-27T20:21:53Z</time>
      </trkpt>
      <trkpt lat="41.615406000" lon="2.503750100">
        <ele>323.60</ele>
        <time>2012-05-27T20:21:58Z</time>
      </trkpt>
      <trkpt lat="41.615360000" lon="2.504055100">
        <ele>320.30</ele>
        <time>2012-05-27T20:22:02Z</time>
      </trkpt>
      <trkpt lat="41.615322000" lon="2.504212100">
        <ele>315.00</ele>
        <time>2012-05-27T20:22:05Z</time>
      </trkpt>
      <trkpt lat="41.615280000" lon="2.504266100">
        <ele>311.10</ele>
        <time>2012-05-27T20:22:07Z</time>
      </trkpt>
      <trkpt lat="41.615211000" lon="2.504238100">
        <ele>306.80</ele>
        <time>2012-05-27T20:22:10Z</time>
      </trkpt>
      <trkpt lat="41.615173000" lon="2.504112100">
        <ele>306.80</ele>
        <time>2012-05-27T20:22:14Z</time>
      </trkpt>
      <trkpt lat="41.615028000" lon="2.503774100">
        <ele>306.80</ele>
        <time>2012-05-27T20:22:19Z</time>
      </trkpt>
      <trkpt lat="41.614872000" lon="2.503576100">
        <ele>303.40</ele>
        <time>2012-05-27T20:22:24Z</time>
      </trkpt>
      <trkpt lat="41.614841000" lon="2.503424100">
        <ele>300.50</ele>
        <time>2012-05-27T20:22:26Z</time>
      </trkpt>
      <trkpt lat="41.614746000" lon="2.503186100">
        <ele>294.80</ele>
        <time>2012-05-27T20:22:30Z</time>
      </trkpt>
      <trkpt lat="41.614689000" lon="2.503120100">
        <ele>291.90</ele>
        <time>2012-05-27T20:22:31Z</time>
      </trkpt>
      <trkpt lat="41.614605000" lon="2.502964100">
        <ele>289.00</ele>
        <time>2012-05-27T20:22:36Z</time>
      </trkpt>
      <trkpt lat="41.614529000" lon="2.502890100">
        <ele>288.00</ele>
        <time>2012-05-27T20:22:42Z</time>
      </trkpt>
      <trkpt lat="41.614506000" lon="2.503000100">
        <ele>288.00</ele>
        <time>2012-05-27T20:22:45Z</time>
      </trkpt>
      <trkpt lat="41.614563000" lon="2.503072100">
        <ele>288.00</ele>
        <time>2012-05-27T20:22:47Z</time>
      </trkpt>
      <trkpt lat="41.614620000" lon="2.503334100">
        <ele>287.60</ele>
        <time>2012-05-27T20:22:50Z</time>
      </trkpt>
      <trkpt lat="41.614544000" lon="2.503530100">
        <ele>283.20</ele>
        <time>2012-05-27T20:22:54Z</time>
      </trkpt>
      <trkpt lat="41.614498000" lon="2.503680100">
        <ele>279.40</ele>
        <time>2012-05-27T20:22:57Z</time>
      </trkpt>
      <trkpt lat="41.614502000" lon="2.503786100">
        <ele>277.00</ele>
        <time>2012-05-27T20:22:59Z</time>
      </trkpt>
      <trkpt lat="41.614471000" lon="2.504089100">
        <ele>273.60</ele>
        <time>2012-05-27T20:23:06Z</time>
      </trkpt>
      <trkpt lat="41.614418000" lon="2.504335100">
        <ele>274.10</ele>
        <time>2012-05-27T20:23:10Z</time>
      </trkpt>
      <trkpt lat="41.614452000" lon="2.504578100">
        <ele>272.20</ele>
        <time>2012-05-27T20:23:15Z</time>
      </trkpt>
      <trkpt lat="41.614464000" lon="2.504631100">
        <ele>271.20</ele>
        <time>2012-05-27T20:23:17Z</time>
      </trkpt>
      <trkpt lat="41.614529000" lon="2.504877100">
        <ele>266.40</ele>
        <time>2012-05-27T20:23:20Z</time>
      </trkpt>
      <trkpt lat="41.614536000" lon="2.504952100">
        <ele>265.50</ele>
        <time>2012-05-27T20:23:22Z</time>
      </trkpt>
      <trkpt lat="41.614548000" lon="2.505131100">
        <ele>264.50</ele>
        <time>2012-05-27T20:23:24Z</time>
      </trkpt>
      <trkpt lat="41.614540000" lon="2.505517100">
        <ele>261.10</ele>
        <time>2012-05-27T20:23:29Z</time>
      </trkpt>
      <trkpt lat="41.614647000" lon="2.505819100">
        <ele>257.80</ele>
        <time>2012-05-27T20:23:34Z</time>
      </trkpt>
      <trkpt lat="41.614746000" lon="2.505983100">
        <ele>254.90</ele>
        <time>2012-05-27T20:23:39Z</time>
      </trkpt>
      <trkpt lat="41.614807000" lon="2.506129100">
        <ele>253.40</ele>
        <time>2012-05-27T20:23:41Z</time>
      </trkpt>
      <trkpt lat="41.614849000" lon="2.506206100">
        <ele>253.90</ele>
        <time>2012-05-27T20:23:44Z</time>
      </trkpt>
      <trkpt lat="41.614883000" lon="2.506373100">
        <ele>253.90</ele>
        <time>2012-05-27T20:23:50Z</time>
      </trkpt>
      <trkpt lat="41.614899000" lon="2.506487100">
        <ele>253.90</ele>
        <time>2012-05-27T20:23:53Z</time>
      </trkpt>
      <trkpt lat="41.614902000" lon="2.506685100">
        <ele>253.40</ele>
        <time>2012-05-27T20:23:57Z</time>
      </trkpt>
      <trkpt lat="41.614944000" lon="2.506886100">
        <ele>249.60</ele>
        <time>2012-05-27T20:24:00Z</time>
      </trkpt>
      <trkpt lat="41.614960000" lon="2.506932100">
        <ele>248.20</ele>
        <time>2012-05-27T20:24:02Z</time>
      </trkpt>
      <trkpt lat="41.615040000" lon="2.507099100">
        <ele>245.30</ele>
        <time>2012-05-27T20:24:05Z</time>
      </trkpt>
      <trkpt lat="41.615124000" lon="2.507356100">
        <ele>240.90</ele>
        <time>2012-05-27T20:24:09Z</time>
      </trkpt>
      <trkpt lat="41.615154000" lon="2.507489100">
        <ele>240.90</ele>
        <time>2012-05-27T20:24:14Z</time>
      </trkpt>
      <trkpt lat="41.615200000" lon="2.507599100">
        <ele>240.90</ele>
        <time>2012-05-27T20:24:16Z</time>
      </trkpt>
      <trkpt lat="41.615307000" lon="2.507710100">
        <ele>241.40</ele>
        <time>2012-05-27T20:24:19Z</time>
      </trkpt>
      <trkpt lat="41.615398000" lon="2.507982100">
        <ele>239.00</ele>
        <time>2012-05-27T20:24:24Z</time>
      </trkpt>
      <trkpt lat="41.615391000" lon="2.508090100">
        <ele>237.10</ele>
        <time>2012-05-27T20:24:26Z</time>
      </trkpt>
      <trkpt lat="41.615440000" lon="2.508401100">
        <ele>234.20</ele>
        <time>2012-05-27T20:24:33Z</time>
      </trkpt>
      <trkpt lat="41.615559000" lon="2.508683100">
        <ele>234.20</ele>
        <time>2012-05-27T20:24:38Z</time>
      </trkpt>
      <trkpt lat="41.615547000" lon="2.508919100">
        <ele>234.20</ele>
        <time>2012-05-27T20:24:44Z</time>
      </trkpt>
      <trkpt lat="41.615528000" lon="2.509050100">
        <ele>234.20</ele>
        <time>2012-05-27T20:24:47Z</time>
      </trkpt>
      <trkpt lat="41.615547000" lon="2.509356100">
        <ele>234.20</ele>
        <time>2012-05-27T20:24:52Z</time>
      </trkpt>
      <trkpt lat="41.615696000" lon="2.509624100">
        <ele>234.20</ele>
        <time>2012-05-27T20:24:59Z</time>
      </trkpt>
      <trkpt lat="41.615765000" lon="2.509851100">
        <ele>233.30</ele>
        <time>2012-05-27T20:25:03Z</time>
      </trkpt>
      <trkpt lat="41.615829000" lon="2.510125100">
        <ele>232.80</ele>
        <time>2012-05-27T20:25:10Z</time>
      </trkpt>
      <trkpt lat="41.615906000" lon="2.510310100">
        <ele>232.30</ele>
        <time>2012-05-27T20:25:15Z</time>
      </trkpt>
      <trkpt lat="41.616085000" lon="2.510747100">
        <ele>230.90</ele>
        <time>2012-05-27T20:25:22Z</time>
      </trkpt>
      <trkpt lat="41.616222000" lon="2.511156100">
        <ele>230.40</ele>
        <time>2012-05-27T20:25:29Z</time>
      </trkpt>
      <trkpt lat="41.616234000" lon="2.511195100">
        <ele>229.90</ele>
        <time>2012-05-27T20:25:31Z</time>
      </trkpt>
      <trkpt lat="41.616325000" lon="2.511373100">
        <ele>229.90</ele>
        <time>2012-05-27T20:25:34Z</time>
      </trkpt>
      <trkpt lat="41.616524000" lon="2.511760100">
        <ele>228.40</ele>
        <time>2012-05-27T20:25:41Z</time>
      </trkpt>
      <trkpt lat="41.616554000" lon="2.511817100">
        <ele>228.40</ele>
        <time>2012-05-27T20:25:41Z</time>
      </trkpt>
      <trkpt lat="41.616756000" lon="2.512262100">
        <ele>227.00</ele>
        <time>2012-05-27T20:25:48Z</time>
      </trkpt>
      <trkpt lat="41.616886000" lon="2.512956100">
        <ele>225.60</ele>
        <time>2012-05-27T20:25:57Z</time>
      </trkpt>
      <trkpt lat="41.616886000" lon="2.513194100">
        <ele>224.60</ele>
        <time>2012-05-27T20:26:00Z</time>
      </trkpt>
      <trkpt lat="41.616894000" lon="2.513530100">
        <ele>224.60</ele>
        <time>2012-05-27T20:26:04Z</time>
      </trkpt>
      <trkpt lat="41.616882000" lon="2.514100100">
        <ele>220.80</ele>
        <time>2012-05-27T20:26:11Z</time>
      </trkpt>
      <trkpt lat="41.616863000" lon="2.514615100">
        <ele>217.40</ele>
        <time>2012-05-27T20:26:18Z</time>
      </trkpt>
      <trkpt lat="41.616844000" lon="2.515346100">
        <ele>217.40</ele>
        <time>2012-05-27T20:26:25Z</time>
      </trkpt>
      <trkpt lat="41.616825000" lon="2.516171100">
        <ele>215.90</ele>
        <time>2012-05-27T20:26:35Z</time>
      </trkpt>
      <trkpt lat="41.616783000" lon="2.516817100">
        <ele>215.00</ele>
        <time>2012-05-27T20:26:42Z</time>
      </trkpt>
      <trkpt lat="41.616737000" lon="2.517572100">
        <ele>212.10</ele>
        <time>2012-05-27T20:26:49Z</time>
      </trkpt>
      <trkpt lat="41.616734000" lon="2.517670100">
        <ele>211.10</ele>
        <time>2012-05-27T20:26:51Z</time>
      </trkpt>
      <trkpt lat="41.616737000" lon="2.517958100">
        <ele>208.30</ele>
        <time>2012-05-27T20:26:54Z</time>
      </trkpt>
      <trkpt lat="41.616749000" lon="2.518329100">
        <ele>205.90</ele>
        <time>2012-05-27T20:26:58Z</time>
      </trkpt>
      <trkpt lat="41.616657000" lon="2.518628100">
        <ele>205.90</ele>
        <time>2012-05-27T20:27:03Z</time>
      </trkpt>
      <trkpt lat="41.616600000" lon="2.518776100">
        <ele>205.90</ele>
        <time>2012-05-27T20:27:08Z</time>
      </trkpt>
      <trkpt lat="41.616570000" lon="2.518978100">
        <ele>205.90</ele>
        <time>2012-05-27T20:27:12Z</time>
      </trkpt>
      <trkpt lat="41.616531000" lon="2.519281100">
        <ele>205.90</ele>
        <time>2012-05-27T20:27:17Z</time>
      </trkpt>
      <trkpt lat="41.616505000" lon="2.519394100">
        <ele>205.90</ele>
        <time>2012-05-27T20:27:19Z</time>
      </trkpt>
      <trkpt lat="41.616386000" lon="2.519863100">
        <ele>205.40</ele>
        <time>2012-05-27T20:27:26Z</time>
      </trkpt>
      <trkpt lat="41.616238000" lon="2.520342100">
        <ele>204.40</ele>
        <time>2012-05-27T20:27:34Z</time>
      </trkpt>
      <trkpt lat="41.616070000" lon="2.520808100">
        <ele>203.50</ele>
        <time>2012-05-27T20:27:41Z</time>
      </trkpt>
      <trkpt lat="41.616032000" lon="2.520949100">
        <ele>202.50</ele>
        <time>2012-05-27T20:27:43Z</time>
      </trkpt>
      <trkpt lat="41.615932000" lon="2.521654100">
        <ele>201.50</ele>
        <time>2012-05-27T20:27:52Z</time>
      </trkpt>
      <trkpt lat="41.615856000" lon="2.522201100">
        <ele>200.10</ele>
        <time>2012-05-27T20:27:59Z</time>
      </trkpt>
      <trkpt lat="41.615768000" lon="2.522938100">
        <ele>198.60</ele>
        <time>2012-05-27T20:28:06Z</time>
      </trkpt>
      <trkpt lat="41.615738000" lon="2.523210100">
        <ele>197.70</ele>
        <time>2012-05-27T20:28:09Z</time>
      </trkpt>
      <trkpt lat="41.615707000" lon="2.523696100">
        <ele>194.30</ele>
        <time>2012-05-27T20:28:14Z</time>
      </trkpt>
      <trkpt lat="41.615643000" lon="2.524359100">
        <ele>191.00</ele>
        <time>2012-05-27T20:28:21Z</time>
      </trkpt>
      <trkpt lat="41.615585000" lon="2.525053100">
        <ele>189.50</ele>
        <time>2012-05-27T20:28:27Z</time>
      </trkpt>
      <trkpt lat="41.615532000" lon="2.525935100">
        <ele>187.10</ele>
        <time>2012-05-27T20:28:35Z</time>
      </trkpt>
      <trkpt lat="41.615585000" lon="2.526583100">
        <ele>184.70</ele>
        <time>2012-05-27T20:28:41Z</time>
      </trkpt>
      <trkpt lat="41.615574000" lon="2.527197100">
        <ele>183.30</ele>
        <time>2012-05-27T20:28:46Z</time>
      </trkpt>
      <trkpt lat="41.615452000" lon="2.527816100">
        <ele>180.40</ele>
        <time>2012-05-27T20:28:53Z</time>
      </trkpt>
      <trkpt lat="41.615276000" lon="2.528651100">
        <ele>178.00</ele>
        <time>2012-05-27T20:29:00Z</time>
      </trkpt>
      <trkpt lat="41.615192000" lon="2.529338100">
        <ele>177.00</ele>
        <time>2012-05-27T20:29:07Z</time>
      </trkpt>
      <trkpt lat="41.615162000" lon="2.530253100">
        <ele>175.60</ele>
        <time>2012-05-27T20:29:17Z</time>
      </trkpt>
      <trkpt lat="41.615131000" lon="2.530833100">
        <ele>171.70</ele>
        <time>2012-05-27T20:29:22Z</time>
      </trkpt>
      <trkpt lat="41.615089000" lon="2.531293100">
        <ele>168.40</ele>
        <time>2012-05-27T20:29:28Z</time>
      </trkpt>
      <trkpt lat="41.615002000" lon="2.532182100">
        <ele>167.90</ele>
        <time>2012-05-27T20:29:38Z</time>
      </trkpt>
      <trkpt lat="41.614807000" lon="2.532859100">
        <ele>166.90</ele>
        <time>2012-05-27T20:29:45Z</time>
      </trkpt>
      <trkpt lat="41.614601000" lon="2.533563100">
        <ele>165.00</ele>
        <time>2012-05-27T20:29:54Z</time>
      </trkpt>
      <trkpt lat="41.614429000" lon="2.534112100">
        <ele>164.00</ele>
        <time>2012-05-27T20:30:01Z</time>
      </trkpt>
      <trkpt lat="41.614239000" lon="2.534727100">
        <ele>162.10</ele>
        <time>2012-05-27T20:30:09Z</time>
      </trkpt>
      <trkpt lat="41.614017000" lon="2.535412100">
        <ele>159.70</ele>
        <time>2012-05-27T20:30:18Z</time>
      </trkpt>
      <trkpt lat="41.613995000" lon="2.535485100">
        <ele>158.80</ele>
        <time>2012-05-27T20:30:18Z</time>
      </trkpt>
      <trkpt lat="41.613991000" lon="2.535825100">
        <ele>154.40</ele>
        <time>2012-05-27T20:30:23Z</time>
      </trkpt>
      <trkpt lat="41.613937000" lon="2.536047100">
        <ele>152.50</ele>
        <time>2012-05-27T20:30:27Z</time>
      </trkpt>
      <trkpt lat="41.613766000" lon="2.536480100">
        <ele>152.00</ele>
        <time>2012-05-27T20:30:32Z</time>
      </trkpt>
      <trkpt lat="41.613590000" lon="2.536794100">
        <ele>152.00</ele>
        <time>2012-05-27T20:30:39Z</time>
      </trkpt>
      <trkpt lat="41.613358000" lon="2.537171100">
        <ele>152.00</ele>
        <time>2012-05-27T20:30:46Z</time>
      </trkpt>
      <trkpt lat="41.613323000" lon="2.537217100">
        <ele>151.10</ele>
        <time>2012-05-27T20:30:48Z</time>
      </trkpt>
      <trkpt lat="41.613091000" lon="2.537475100">
        <ele>150.60</ele>
        <time>2012-05-27T20:30:53Z</time>
      </trkpt>
      <trkpt lat="41.612720000" lon="2.537906100">
        <ele>149.60</ele>
        <time>2012-05-27T20:31:02Z</time>
      </trkpt>
      <trkpt lat="41.612434000" lon="2.538268100">
        <ele>148.70</ele>
        <time>2012-05-27T20:31:10Z</time>
      </trkpt>
      <trkpt lat="41.612293000" lon="2.538489100">
        <ele>147.20</ele>
        <time>2012-05-27T20:31:14Z</time>
      </trkpt>
      <trkpt lat="41.612110000" lon="2.538877100">
        <ele>146.30</ele>
        <time>2012-05-27T20:31:21Z</time>
      </trkpt>
      <trkpt lat="41.612030000" lon="2.539011100">
        <ele>145.80</ele>
        <time>2012-05-27T20:31:24Z</time>
      </trkpt>
      <trkpt lat="41.611843000" lon="2.539266100">
        <ele>144.80</ele>
        <time>2012-05-27T20:31:29Z</time>
      </trkpt>
      <trkpt lat="41.611702000" lon="2.539429100">
        <ele>143.40</ele>
        <time>2012-05-27T20:31:33Z</time>
      </trkpt>
      <trkpt lat="41.611454000" lon="2.539622100">
        <ele>142.40</ele>
        <time>2012-05-27T20:31:40Z</time>
      </trkpt>
      <trkpt lat="41.611366000" lon="2.539667100">
        <ele>141.90</ele>
        <time>2012-05-27T20:31:45Z</time>
      </trkpt>
      <trkpt lat="41.611275000" lon="2.539728100">
        <ele>140.50</ele>
        <time>2012-05-27T20:31:49Z</time>
      </trkpt>
      <trkpt lat="41.611126000" lon="2.539823100">
        <ele>140.00</ele>
        <time>2012-05-27T20:31:57Z</time>
      </trkpt>
      <trkpt lat="41.610943000" lon="2.539918100">
        <ele>139.50</ele>
        <time>2012-05-27T20:32:04Z</time>
      </trkpt>
      <trkpt lat="41.610806000" lon="2.539973100">
        <ele>139.10</ele>
        <time>2012-05-27T20:32:11Z</time>
      </trkpt>
      <trkpt lat="41.610645000" lon="2.540053100">
        <ele>138.60</ele>
        <time>2012-05-27T20:32:17Z</time>
      </trkpt>
      <trkpt lat="41.610512000" lon="2.540143100">
        <ele>138.10</ele>
        <time>2012-05-27T20:32:22Z</time>
      </trkpt>
      <trkpt lat="41.610371000" lon="2.540239100">
        <ele>137.10</ele>
        <time>2012-05-27T20:32:27Z</time>
      </trkpt>
      <trkpt lat="41.610229000" lon="2.540317100">
        <ele>137.60</ele>
        <time>2012-05-27T20:32:32Z</time>
      </trkpt>
      <trkpt lat="41.610031000" lon="2.540410100">
        <ele>136.60</ele>
        <time>2012-05-27T20:32:37Z</time>
      </trkpt>
      <trkpt lat="41.609871000" lon="2.540466100">
        <ele>136.20</ele>
        <time>2012-05-27T20:32:43Z</time>
      </trkpt>
      <trkpt lat="41.609688000" lon="2.540489100">
        <ele>135.20</ele>
        <time>2012-05-27T20:32:50Z</time>
      </trkpt>
      <trkpt lat="41.609516000" lon="2.540526100">
        <ele>135.20</ele>
        <time>2012-05-27T20:32:55Z</time>
      </trkpt>
      <trkpt lat="41.609314000" lon="2.540543100">
        <ele>133.80</ele>
        <time>2012-05-27T20:33:00Z</time>
      </trkpt>
      <trkpt lat="41.609074000" lon="2.540581100">
        <ele>133.30</ele>
        <time>2012-05-27T20:33:07Z</time>
      </trkpt>
      <trkpt lat="41.608837000" lon="2.540625100">
        <ele>132.80</ele>
        <time>2012-05-27T20:33:14Z</time>
      </trkpt>
      <trkpt lat="41.608696000" lon="2.540660100">
        <ele>131.80</ele>
        <time>2012-05-27T20:33:21Z</time>
      </trkpt>
      <trkpt lat="41.608547000" lon="2.540704100">
        <ele>131.40</ele>
        <time>2012-05-27T20:33:26Z</time>
      </trkpt>
      <trkpt lat="41.608379000" lon="2.540741100">
        <ele>130.40</ele>
        <time>2012-05-27T20:33:31Z</time>
      </trkpt>
      <trkpt lat="41.608238000" lon="2.540781100">
        <ele>129.90</ele>
        <time>2012-05-27T20:33:35Z</time>
      </trkpt>
      <trkpt lat="41.608154000" lon="2.540774100">
        <ele>129.90</ele>
        <time>2012-05-27T20:33:37Z</time>
      </trkpt>
      <trkpt lat="41.607857000" lon="2.540802100">
        <ele>129.40</ele>
        <time>2012-05-27T20:33:44Z</time>
      </trkpt>
      <trkpt lat="41.607395000" lon="2.540841100">
        <ele>128.90</ele>
        <time>2012-05-27T20:33:52Z</time>
      </trkpt>
      <trkpt lat="41.606915000" lon="2.540744100">
        <ele>127.00</ele>
        <time>2012-05-27T20:34:03Z</time>
      </trkpt>
      <trkpt lat="41.606510000" lon="2.540578100">
        <ele>126.10</ele>
        <time>2012-05-27T20:34:12Z</time>
      </trkpt>
      <trkpt lat="41.606194000" lon="2.540418100">
        <ele>125.10</ele>
        <time>2012-05-27T20:34:20Z</time>
      </trkpt>
      <trkpt lat="41.605980000" lon="2.540379100">
        <ele>123.70</ele>
        <time>2012-05-27T20:34:27Z</time>
      </trkpt>
      <trkpt lat="41.605915000" lon="2.540391100">
        <ele>123.70</ele>
        <time>2012-05-27T20:34:31Z</time>
      </trkpt>
      <trkpt lat="41.605896000" lon="2.540426100">
        <ele>123.70</ele>
        <time>2012-05-27T20:34:38Z</time>
      </trkpt>
      <trkpt lat="41.605896000" lon="2.540426100">
        <ele>123.70</ele>
        <time>2012-05-27T20:34:55Z</time>
      </trkpt>
      <trkpt lat="41.605896000" lon="2.540429100">
        <ele>123.20</ele>
        <time>2012-05-27T20:35:16Z</time>
      </trkpt>
      <trkpt lat="41.605900000" lon="2.540426100">
        <ele>123.20</ele>
        <time>2012-05-27T20:36:05Z</time>
      </trkpt>
      <trkpt lat="41.605896000" lon="2.540427100">
        <ele>123.20</ele>
        <time>2012-05-27T20:36:29Z</time>
      </trkpt>
      <trkpt lat="41.605888000" lon="2.540457100">
        <ele>123.20</ele>
        <time>2012-05-27T20:36:33Z</time>
      </trkpt>
      <trkpt lat="41.605934000" lon="2.540532100">
        <ele>123.20</ele>
        <time>2012-05-27T20:36:38Z</time>
      </trkpt>
      <trkpt lat="41.606129000" lon="2.540625100">
        <ele>123.20</ele>
        <time>2012-05-27T20:36:47Z</time>
      </trkpt>
      <trkpt lat="41.606422000" lon="2.540723100">
        <ele>123.20</ele>
        <time>2012-05-27T20:36:57Z</time>
      </trkpt>
      <trkpt lat="41.606503000" lon="2.540765100">
        <ele>124.20</ele>
        <time>2012-05-27T20:36:59Z</time>
      </trkpt>
      <trkpt lat="41.606548000" lon="2.540925100">
        <ele>124.60</ele>
        <time>2012-05-27T20:37:04Z</time>
      </trkpt>
      <trkpt lat="41.606602000" lon="2.541039100">
        <ele>125.10</ele>
        <time>2012-05-27T20:37:09Z</time>
      </trkpt>
      <trkpt lat="41.606667000" lon="2.541329100">
        <ele>126.10</ele>
        <time>2012-05-27T20:37:16Z</time>
      </trkpt>
      <trkpt lat="41.606747000" lon="2.541589100">
        <ele>127.50</ele>
        <time>2012-05-27T20:37:23Z</time>
      </trkpt>
      <trkpt lat="41.606823000" lon="2.541836100">
        <ele>128.90</ele>
        <time>2012-05-27T20:37:30Z</time>
      </trkpt>
      <trkpt lat="41.606915000" lon="2.542156100">
        <ele>130.90</ele>
        <time>2012-05-27T20:37:41Z</time>
      </trkpt>
      <trkpt lat="41.606960000" lon="2.542341100">
        <ele>132.30</ele>
        <time>2012-05-27T20:37:46Z</time>
      </trkpt>
      <trkpt lat="41.607010000" lon="2.542395100">
        <ele>133.30</ele>
        <time>2012-05-27T20:37:53Z</time>
      </trkpt>
      <trkpt lat="41.607014000" lon="2.542394100">
        <ele>134.20</ele>
        <time>2012-05-27T20:38:01Z</time>
      </trkpt>
      <trkpt lat="41.607010000" lon="2.542395100">
        <ele>134.70</ele>
        <time>2012-05-27T20:38:12Z</time>
      </trkpt>
      <trkpt lat="41.607010000" lon="2.542395100">
        <ele>134.70</ele>
        <time>2012-05-27T20:38:24Z</time>
      </trkpt>
      <trkpt lat="41.607010000" lon="2.542403100">
        <ele>135.20</ele>
        <time>2012-05-27T20:39:25Z</time>
      </trkpt>
    </trkseg>
  </trk>
</gpx>
